[[{"header":{"parameterUnit":"m.s-1","parameterCategory":1,"la1":30.6,"la2":29.2853,"lo1":-89.7004,"lo2":-87.6739,"dx":0.0162,"dy":0.0183,"nx":112,"ny":82,"refTime":"2022-11-29T06:00:00:Z","depth":0,"parameterNumber":2,"parameterNumberName":"U-component_of_WINDS"},"data":[0.0,0.0,0.0,0.0,0.0,0.0,0.0,0.0,0.0,0.0,0.0,0.0,0.0,0.0,0.0,0.0,0.0,0.0,0.0,0.0,0.0,0.0,0.0,0.0,0.0,0.0,0.0,0.0,0.0,0.0,0.0,0.0,0.0,0.0,0.0,0.0,0.0,0.0,0.0,0.0,0.0,0.0,0.0,0.0,0.0,0.0,0.0,0.0,0.0,0.0,0.0,0.0,0.0,0.0,0.0,0.0,0.0,0.0,0.0,0.0,0.0,0.0,0.0,0.0,0.0,0.0,0.0,0.0,0.0,0.0,0.0,0.0,0.0,0.0,0.0,0.0,0.0,0.0,0.0,0.0,0.0,0.0,0.0,0.0,0.0,0.0,0.0,0.0,0.0,0.0,-1.3856,-1.5149,-1.5608,-1.5574,-1.5005,-1.4333,-1.3675,-1.2999,0.0,0.0,0.0,0.0,0.0,0.0,0.0,0.0,0.0,0.0,0.0,0.0,0.0,0.0,0.0,0.0,0.0,0.0,0.0,0.0,0.0,0.0,0.0,0.0,0.0,0.0,0.0,0.0,0.0,0.0,0.0,0.0,0.0,0.0,0.0,0.0,0.0,0.0,0.0,0.0,0.0,0.0,0.0,0.0,0.0,0.0,0.0,0.0,0.0,0.0,0.0,0.0,0.0,0.0,0.0,0.0,0.0,0.0,0.0,0.0,0.0,0.0,0.0,0.0,0.0,0.0,0.0,0.0,0.0,0.0,0.0,0.0,0.0,0.0,0.0,0.0,0.0,0.0,0.0,0.0,0.0,0.0,0.0,0.0,0.0,0.0,0.0,0.0,0.0,0.0,0.0,0.0,0.0,0.0,0.0,0.0,0.0,0.0,0.0,0.0,0.0,0.0,0.0,0.0,-1.4479,-1.5583,-1.5767,-1.5769,-1.5664,-1.5035,-1.4363,-1.369,0.0,0.0,0.0,0.0,0.0,0.0,0.0,0.0,0.0,0.0,0.0,0.0,0.0,0.0,0.0,0.0,0.0,0.0,0.0,0.0,0.0,0.0,0.0,0.0,0.0,0.0,0.0,0.0,0.0,0.0,0.0,0.0,0.0,0.0,0.0,0.0,0.0,0.0,0.0,0.0,0.0,0.0,0.0,0.0,0.0,0.0,0.0,0.0,0.0,0.0,0.0,0.0,0.0,0.0,0.0,0.0,0.0,0.0,0.0,0.0,0.0,0.0,0.0,0.0,0.0,0.0,0.0,0.0,0.0,0.0,0.0,0.0,0.0,0.0,0.0,0.0,0.0,0.0,0.0,0.0,0.0,0.0,0.0,0.0,0.0,0.0,0.0,0.0,0.0,0.0,0.0,0.0,0.0,0.0,0.0,0.0,0.0,0.0,0.0,0.0,0.0,0.0,0.0,-1.4617,-1.5259,-1.5753,-1.5799,-1.5799,-1.5799,-1.5185,-1.4513,-1.3842,-1.1645,0.0,0.0,0.0,0.0,0.0,0.0,0.0,0.0,0.0,0.0,0.0,0.0,0.0,0.0,0.0,0.0,0.0,0.0,0.0,0.0,0.0,0.0,0.0,0.0,0.0,0.0,0.0,0.0,0.0,0.0,0.0,0.0,0.0,0.0,0.0,0.0,0.0,0.0,0.0,0.0,0.0,0.0,0.0,0.0,0.0,0.0,0.0,0.0,0.0,0.0,0.0,0.0,0.0,0.0,0.0,0.0,0.0,0.0,0.0,0.0,0.0,0.0,0.0,0.0,0.0,0.0,0.0,0.0,0.0,0.0,0.0,0.0,0.0,0.0,0.0,0.0,0.0,0.0,0.0,0.0,0.0,0.0,0.0,0.0,0.0,0.0,0.0,0.0,0.0,0.0,0.0,0.0,0.0,0.0,0.0,0.0,0.0,0.0,0.0,0.0,0.0,0.0,-1.5096,-1.6009,-1.6009,-1.6159,-1.6188,-1.6024,-1.5545,-1.4828,-1.3857,-1.2213,0.0,0.0,0.0,0.0,0.0,0.0,0.0,0.0,0.0,0.0,0.0,0.0,0.0,0.0,0.0,0.0,0.0,0.0,0.0,0.0,0.0,0.0,0.0,0.0,0.0,0.0,0.0,0.0,0.0,0.0,0.0,0.0,0.0,0.0,0.0,0.0,0.0,0.0,0.0,0.0,0.0,0.0,0.0,0.0,0.0,0.0,0.0,0.0,0.0,0.0,0.0,0.0,0.0,0.0,0.0,0.0,0.0,0.0,0.0,0.0,0.0,0.0,0.0,0.0,0.0,0.0,0.0,0.0,0.0,0.0,0.0,0.0,0.0,0.0,0.0,0.0,0.0,0.0,0.0,0.0,0.0,0.0,0.0,0.0,0.0,0.0,0.0,0.0,0.0,0.0,0.0,0.0,0.0,0.0,0.0,0.0,0.0,0.0,0.0,0.0,0.0,0.0,-1.5457,-1.6652,-1.6652,-1.7189,-1.7309,-1.6697,-1.6577,-1.5786,-1.3917,-1.3089,0.0,0.0,0.0,0.0,0.0,0.0,0.0,0.0,0.0,0.0,0.0,0.0,0.0,0.0,0.0,0.0,0.0,0.0,0.0,0.0,0.0,0.0,0.0,0.0,0.0,0.0,0.0,0.0,0.0,0.0,0.0,0.0,0.0,0.0,0.0,0.0,0.0,0.0,0.0,0.0,0.0,0.0,0.0,0.0,0.0,0.0,0.0,0.0,0.0,0.0,0.0,0.0,0.0,0.0,0.0,0.0,0.0,0.0,0.0,0.0,0.0,0.0,0.0,0.0,0.0,0.0,0.0,0.0,0.0,0.0,0.0,0.0,0.0,0.0,0.0,0.0,0.0,0.0,0.0,0.0,0.0,0.0,0.0,0.0,0.0,0.0,0.0,0.0,0.0,0.0,0.0,0.0,0.0,0.0,0.0,0.0,0.0,0.0,0.0,0.0,0.0,0.0,-1.601,-1.686,-1.7279,-1.7548,-1.7593,-1.7354,-1.695,-1.6219,-1.5125,0.0,0.0,0.0,0.0,0.0,0.0,0.0,0.0,0.0,0.0,0.0,0.0,0.0,0.0,0.0,0.0,0.0,0.0,0.0,0.0,0.0,0.0,0.0,0.0,0.0,0.0,0.0,0.0,0.0,0.0,0.0,0.0,0.0,0.0,0.0,0.0,0.0,0.0,0.0,0.0,0.0,0.0,0.0,0.0,0.0,0.0,0.0,0.0,0.0,0.0,0.0,0.0,0.0,0.0,0.0,0.0,0.0,0.0,0.0,0.0,0.0,0.0,0.0,0.0,0.0,0.0,0.0,0.0,0.0,0.0,0.0,0.0,0.0,0.0,0.0,0.0,0.0,0.0,0.0,0.0,0.0,0.0,0.0,0.0,0.0,0.0,0.0,0.0,0.0,0.0,0.0,0.0,0.0,0.0,0.0,0.0,0.0,0.0,0.0,0.0,0.0,0.0,-1.5649,-1.6697,-1.7503,-1.7968,-1.8207,-1.8252,-1.8042,-1.7593,-1.6906,-1.5873,0.0,0.0,0.0,0.0,0.0,0.0,0.0,0.0,0.0,0.0,0.0,0.0,0.0,0.0,0.0,0.0,0.0,0.0,0.0,0.0,0.0,0.0,0.0,0.0,0.0,0.0,0.0,0.0,0.0,0.0,0.0,0.0,0.0,0.0,0.0,0.0,0.0,0.0,0.0,0.0,0.0,0.0,0.0,0.0,0.0,0.0,0.0,0.0,0.0,0.0,0.0,0.0,0.0,0.0,0.0,0.0,0.0,0.0,0.0,0.0,0.0,0.0,0.0,0.0,0.0,0.0,0.0,0.0,0.0,0.0,0.0,0.0,0.0,0.0,0.0,0.0,0.0,0.0,0.0,0.0,0.0,0.0,0.0,0.0,0.0,0.0,0.0,0.0,0.0,0.0,0.0,0.0,0.0,0.0,0.0,0.0,0.0,0.0,0.0,0.0,0.0,0.0,-1.5739,-1.7521,-1.8702,-1.8717,-1.9286,-1.942,-1.8777,-1.8702,-1.7879,0.0,0.0,0.0,0.0,0.0,0.0,0.0,0.0,0.0,0.0,0.0,0.0,0.0,0.0,0.0,0.0,0.0,0.0,0.0,0.0,0.0,0.0,0.0,0.0,0.0,0.0,0.0,0.0,0.0,0.0,0.0,0.0,0.0,0.0,0.0,0.0,0.0,0.0,0.0,0.0,0.0,0.0,0.0,0.0,0.0,0.0,0.0,0.0,0.0,0.0,0.0,0.0,0.0,0.0,0.0,0.0,0.0,0.0,0.0,0.0,0.0,0.0,0.0,0.0,0.0,0.0,0.0,0.0,0.0,0.0,0.0,0.0,0.0,0.0,0.0,0.0,0.0,0.0,0.0,0.0,0.0,0.0,0.0,0.0,0.0,0.0,0.0,0.0,0.0,0.0,0.0,0.0,0.0,0.0,0.0,0.0,0.0,0.0,0.0,0.0,0.0,0.0,0.0,-1.6952,-1.8059,-1.8882,-1.9346,-1.9588,-1.9633,-1.9405,-1.8972,-1.8253,-1.7221,0.0,0.0,0.0,0.0,0.0,0.0,0.0,0.0,0.0,0.0,0.0,0.0,0.0,0.0,0.0,0.0,0.0,0.0,0.0,0.0,0.0,0.0,0.0,0.0,0.0,0.0,0.0,0.0,0.0,0.0,0.0,0.0,0.0,0.0,0.0,0.0,0.0,0.0,0.0,0.0,0.0,0.0,0.0,0.0,0.0,0.0,0.0,0.0,0.0,0.0,0.0,0.0,0.0,0.0,0.0,0.0,0.0,0.0,0.0,0.0,0.0,0.0,0.0,0.0,0.0,0.0,0.0,0.0,0.0,0.0,0.0,0.0,0.0,0.0,0.0,0.0,0.0,0.0,0.0,0.0,0.0,0.0,0.0,0.0,0.0,0.0,0.0,0.0,0.0,0.0,0.0,0.0,0.0,0.0,0.0,0.0,0.0,0.0,0.0,0.0,0.0,0.0,-1.7519,-1.8506,-1.9241,-1.9663,-1.9708,-1.9708,-1.9708,-1.9333,-1.8807,-1.8132,0.0,0.0,0.0,0.0,0.0,0.0,0.0,0.0,0.0,0.0,0.0,0.0,0.0,0.0,0.0,0.0,0.0,0.0,0.0,0.0,0.0,0.0,0.0,0.0,0.0,0.0,0.0,0.0,0.0,0.0,0.0,0.0,0.0,0.0,0.0,0.0,0.0,0.0,0.0,0.0,0.0,0.0,0.0,0.0,0.0,0.0,0.0,0.0,0.0,0.0,0.0,0.0,0.0,0.0,0.0,0.0,0.0,0.0,0.0,0.0,0.0,0.0,0.0,0.0,0.0,0.0,0.0,0.0,0.0,0.0,0.0,0.0,0.0,0.0,0.0,0.0,0.0,0.0,0.0,0.0,0.0,0.0,0.0,0.0,0.0,0.0,0.0,0.0,0.0,0.0,0.0,0.0,0.0,0.0,0.0,0.0,0.0,0.0,0.0,0.0,0.0,0.0,-1.7713,-1.8912,-1.9708,-1.9708,-1.9708,-1.9708,-1.9708,-1.9708,-1.9405,-1.8747,0.0,0.0,0.0,0.0,0.0,0.0,0.0,0.0,0.0,0.0,0.0,0.0,0.0,0.0,0.0,0.0,0.0,0.0,0.0,0.0,0.0,0.0,0.0,0.0,0.0,0.0,0.0,0.0,0.0,0.0,0.0,0.0,0.0,0.0,0.0,0.0,0.0,0.0,0.0,0.0,0.0,0.0,0.0,0.0,0.0,0.0,0.0,0.0,0.0,0.0,0.0,0.0,0.0,0.0,0.0,0.0,0.0,0.0,0.0,0.0,-1.5949,-1.4856,0.0,0.0,0.0,0.0,0.0,0.0,0.0,0.0,0.0,0.0,0.0,0.0,0.0,0.0,0.0,0.0,0.0,0.0,0.0,0.0,0.0,0.0,0.0,0.0,0.0,0.0,0.0,0.0,0.0,0.0,0.0,0.0,0.0,0.0,0.0,0.0,0.0,0.0,0.0,0.0,-1.8326,-1.9196,-1.9708,-1.9708,-1.9708,-1.9708,-1.9708,-1.9708,-1.9405,-1.8747,-1.7938,0.0,0.0,0.0,0.0,0.0,0.0,0.0,0.0,0.0,0.0,0.0,0.0,0.0,0.0,0.0,0.0,0.0,0.0,0.0,0.0,0.0,0.0,0.0,0.0,0.0,0.0,0.0,0.0,0.0,0.0,0.0,0.0,0.0,0.0,0.0,0.0,0.0,0.0,0.0,0.0,0.0,0.0,0.0,0.0,0.0,0.0,0.0,0.0,0.0,0.0,0.0,0.0,0.0,0.0,0.0,0.0,0.0,0.0,0.0,-1.743,-1.6518,0.0,0.0,0.0,0.0,0.0,0.0,0.0,0.0,0.0,0.0,0.0,0.0,0.0,0.0,0.0,0.0,0.0,0.0,0.0,0.0,0.0,0.0,0.0,0.0,0.0,0.0,0.0,0.0,0.0,0.0,0.0,0.0,0.0,0.0,0.0,0.0,0.0,0.0,0.0,0.0,-1.8612,-1.9286,-1.9708,-1.9708,-1.9708,-1.9708,-1.9708,-1.9708,-1.9435,-1.8829,-1.8176,0.0,0.0,0.0,0.0,0.0,0.0,0.0,0.0,0.0,0.0,0.0,0.0,0.0,0.0,0.0,0.0,0.0,0.0,0.0,0.0,0.0,0.0,0.0,0.0,0.0,0.0,0.0,0.0,0.0,0.0,0.0,0.0,0.0,0.0,0.0,0.0,0.0,0.0,0.0,0.0,0.0,0.0,0.0,0.0,0.0,0.0,0.0,0.0,0.0,0.0,0.0,0.0,0.0,-1.9166,-1.951,-2.0052,-2.0052,-2.0052,-1.9992,-1.8864,-1.8207,-1.7833,-1.7279,0.0,0.0,0.0,0.0,0.0,0.0,0.0,0.0,0.0,0.0,0.0,0.0,0.0,0.0,0.0,0.0,0.0,0.0,0.0,0.0,0.0,0.0,-1.704,-1.7697,-1.7878,-1.7609,-1.6683,0.0,0.0,0.0,0.0,0.0,0.0,0.0,0.0,0.0,0.0,0.0,-1.9031,-1.9525,-1.9932,-2.0052,-2.0052,-1.9997,-1.9875,-1.9786,-1.9509,-1.8936,-1.8294,-1.7082,0.0,0.0,0.0,0.0,0.0,0.0,0.0,0.0,0.0,0.0,0.0,0.0,0.0,0.0,0.0,0.0,0.0,0.0,0.0,0.0,0.0,0.0,0.0,0.0,0.0,0.0,0.0,0.0,0.0,0.0,0.0,0.0,-1.2525,-1.322,0.0,0.0,0.0,0.0,0.0,0.0,0.0,0.0,0.0,0.0,0.0,0.0,0.0,-1.8693,-1.9184,-1.9929,-2.0344,-2.0434,-2.1036,-2.135,-2.144,-2.144,-2.144,-2.1425,-2.1246,0.0,-1.8568,-1.8461,0.0,0.0,0.0,0.0,0.0,0.0,0.0,0.0,0.0,0.0,0.0,0.0,0.0,0.0,0.0,0.0,0.0,0.0,0.0,0.0,0.0,0.0,-1.7743,-1.8401,-1.8568,-1.8687,-1.9109,-1.7803,-1.6562,-1.6473,-1.6443,-1.6443,0.0,0.0,0.0,0.0,0.0,0.0,-2.0285,-2.0509,-2.0797,-2.1365,-2.144,-2.1198,-2.0616,-2.0139,-1.9589,-1.8941,-1.8373,-1.7523,-1.6334,-1.526,0.0,0.0,0.0,0.0,0.0,0.0,0.0,0.0,0.0,0.0,0.0,0.0,0.0,0.0,0.0,0.0,0.0,0.0,0.0,0.0,0.0,0.0,0.0,0.0,0.0,0.0,0.0,0.0,0.0,-1.2879,-1.3592,-1.4202,-1.507,-1.5586,0.0,0.0,0.0,0.0,0.0,0.0,0.0,0.0,0.0,-1.9357,-1.9372,-1.9845,-2.0797,-2.1126,-2.1261,-2.1276,-2.156,-2.1695,-2.1695,-2.1695,-2.1695,-2.1695,-2.1695,-2.1201,-2.0393,-2.0393,-2.0004,-1.9388,0.0,0.0,0.0,0.0,-1.8252,-1.8252,-1.8252,-1.7833,-1.7324,-1.7713,0.0,0.0,0.0,0.0,0.0,0.0,0.0,-1.8912,-1.9283,-1.9388,-1.9552,-2.0228,-2.0393,-2.0468,-2.0771,-2.0139,-1.9178,-1.8042,-1.7833,-1.7833,-1.7833,-1.8072,0.0,0.0,0.0,-2.0183,-2.1141,-2.1261,-2.138,-2.1665,-2.1695,-2.1445,-2.0758,-2.0479,-1.9829,-1.8582,-1.8284,-1.7528,-1.611,-1.5576,-1.468,0.0,0.0,0.0,0.0,0.0,0.0,0.0,0.0,0.0,0.0,0.0,0.0,0.0,0.0,0.0,0.0,0.0,0.0,0.0,0.0,0.0,0.0,0.0,0.0,0.0,0.0,0.0,0.0,-1.4018,-1.4488,-1.5184,-1.6259,-1.6731,0.0,0.0,0.0,0.0,0.0,0.0,-1.8877,-1.9214,-1.9691,-2.0336,-2.0351,-2.0872,-2.1934,-2.2099,-2.2278,-2.2443,-2.2622,-2.2697,-2.2697,-2.2697,-2.2697,-2.2697,-2.2697,-2.2697,-2.2652,-2.1979,-2.141,-2.0961,-2.0961,-2.0647,-2.0139,-1.9645,-1.9465,-1.9465,-1.9465,-1.9134,-1.8805,-1.9316,-1.9119,-1.8715,-1.8715,0.0,0.0,0.0,0.0,-2.0337,-2.0842,-2.0961,-2.1077,-2.1575,-2.1695,-2.1695,-2.1695,-2.1695,-2.1261,-1.9765,-1.9465,-1.9465,-1.9465,-1.9465,0.0,-2.0812,-2.0961,-2.1201,-2.1859,-2.1813,-2.1771,-2.1934,-2.181,-2.1446,-2.0781,-2.0604,-1.9927,-1.8496,-1.8152,-1.7432,-1.6179,-1.5844,-1.5324,-1.4525,0.0,0.0,0.0,0.0,0.0,0.0,0.0,0.0,0.0,0.0,0.0,0.0,0.0,0.0,0.0,0.0,0.0,0.0,0.0,0.0,0.0,0.0,0.0,0.0,0.0,0.0,0.0,0.0,0.0,-1.6133,-1.6401,0.0,0.0,0.0,0.0,-2.0418,-2.0099,-2.0318,-2.1441,-2.105,-2.1038,-2.1575,-2.161,-2.1929,-2.2643,-2.3206,-2.3812,-2.447,-2.5098,-2.5405,-2.5405,-2.5405,-2.5405,-2.5405,-2.5405,-2.5405,-2.5211,-2.2727,-2.168,-2.165,-2.165,-2.162,-2.159,-2.156,-2.1545,-2.1545,-2.1545,-2.153,-2.15,-2.1545,-2.153,-2.15,-2.15,-2.1515,0.0,0.0,-2.156,-2.1605,-2.1635,-2.165,-2.1665,-2.168,-2.1695,-2.1695,-2.1695,-2.1695,-2.1665,-2.156,-2.1545,-2.1545,-2.1545,0.0,-2.156,-2.1635,-2.165,-2.1874,-2.2568,-2.2095,-2.1931,-2.2581,-2.2085,-2.1462,-2.0851,-2.0322,-1.9719,-1.9018,-1.7999,-1.7395,-1.7322,-1.6292,-1.5668,-1.5618,-1.4563,0.0,0.0,0.0,0.0,0.0,0.0,0.0,0.0,0.0,0.0,0.0,0.0,0.0,0.0,0.0,0.0,0.0,0.0,0.0,0.0,0.0,0.0,0.0,0.0,0.0,0.0,0.0,0.0,-1.7348,-1.8187,0.0,-1.8739,-1.9926,-2.074,-2.0816,-2.0965,-2.1441,-2.2293,-2.2164,-2.253,-2.3528,-2.3558,-2.3887,-2.4552,-2.4777,-2.5016,-2.5247,-2.5495,-2.5615,-2.5615,-2.5615,-2.5615,-2.5615,-2.5615,-2.5615,-2.554,-2.4597,-2.3674,-2.2854,-2.2854,-2.2288,-2.1504,-2.1504,-2.1504,-2.1471,-2.1121,-2.1248,-2.1595,-2.1674,-2.1695,-2.1695,-2.1695,-2.1695,-2.1784,-2.2224,-2.2343,-2.2538,-2.3349,-2.3558,-2.3678,-2.4118,-2.4208,-2.4208,-2.4208,-2.4208,-2.4208,-2.4208,-2.2847,-2.1695,-2.1695,-2.1695,-2.1823,-2.2156,-2.2207,-2.2451,-2.3074,-2.2937,-2.2899,-2.3108,-2.2948,-2.252,-2.1878,-2.1325,-2.0601,-1.9573,-1.882,-1.8279,-1.7928,-1.7187,-1.6785,-1.6785,-1.5701,-1.4758,0.0,0.0,0.0,0.0,0.0,0.0,0.0,0.0,0.0,0.0,0.0,0.0,0.0,0.0,0.0,0.0,0.0,0.0,0.0,0.0,0.0,0.0,0.0,0.0,0.0,-1.6744,-1.7289,-1.7812,-1.9263,-2.0012,-1.9433,-2.0991,-2.1977,-2.1823,-2.2346,-2.2966,-2.3646,-2.3691,-2.4073,-2.4903,-2.4933,-2.5375,-2.6258,-2.6273,-2.6497,-2.6946,-2.6946,-2.6946,-2.6946,-2.6946,-2.6946,-2.6946,-2.6946,-2.6783,-2.6543,-2.6832,-2.6078,-2.4711,-2.4341,-2.3655,-2.2818,-2.2818,-2.265,-2.2353,-2.1746,-2.1823,-2.216,-2.2241,-2.228,-2.228,-2.228,-2.228,-2.2367,-2.281,-2.2926,-2.3115,-2.3996,-2.4214,-2.4316,-2.4762,-2.4864,-2.4864,-2.4864,-2.4864,-2.4864,-2.4864,-2.3866,-2.2948,-2.2684,-2.2641,-2.2681,-2.28,-2.2794,-2.2944,-2.3348,-2.3185,-2.3068,-2.3068,-2.2883,-2.2578,-2.2132,-2.1768,-2.1234,-2.0415,-1.9672,-1.9096,-1.8756,-1.8041,-1.7664,-1.7664,-1.6547,-1.5706,-1.516,0.0,0.0,0.0,0.0,0.0,0.0,0.0,0.0,0.0,0.0,0.0,0.0,0.0,0.0,0.0,0.0,0.0,0.0,0.0,0.0,0.0,0.0,0.0,-1.5956,-1.7245,-1.8114,-1.759,-1.9539,-2.0677,-2.0043,-2.1669,-2.3011,-2.3603,-2.4261,-2.4918,-2.5615,-2.5659,-2.5674,-2.5704,-2.5719,-2.6348,-2.7645,-2.766,-2.8319,-2.9606,-2.9606,-2.9606,-2.9606,-2.9606,-2.9606,-2.9606,-2.9606,-2.9098,-2.8354,-2.9222,-2.8623,-2.7076,-2.6057,-2.5625,-2.5601,-2.5577,-2.5111,-2.4351,-2.3654,-2.3434,-2.3418,-2.3418,-2.3418,-2.3418,-2.3418,-2.3418,-2.3393,-2.342,-2.342,-2.3434,-2.3475,-2.3475,-2.3489,-2.3502,-2.3502,-2.3502,-2.3502,-2.3502,-2.3502,-2.3502,-2.4671,-2.539,-2.4595,-2.4482,-2.422,-2.3497,-2.3394,0.0,-2.3396,-2.2831,-2.2415,-2.2415,-2.1907,-2.1543,-2.1543,-2.1518,-2.1506,-2.1506,-2.0464,-1.9849,-1.9823,-1.8819,-1.8242,-1.8204,-1.7112,-1.6283,-1.5743,0.0,0.0,0.0,0.0,0.0,0.0,0.0,0.0,0.0,0.0,0.0,0.0,0.0,0.0,0.0,0.0,0.0,0.0,0.0,0.0,0.0,-1.7209,-1.7584,-1.809,-1.8201,-1.8798,-2.0356,-2.1166,-2.1668,-2.1767,-2.3619,-2.4646,-2.4287,-2.4932,-2.563,-2.6288,-2.6806,-2.726,-2.7769,-2.8248,-2.8693,-2.9052,-2.9052,-2.9247,-2.9606,-2.9606,-2.9606,-2.9606,-2.9606,-2.9606,-2.9606,-2.9606,-2.9098,-2.8325,-2.8566,-2.8011,-2.7037,-2.6848,-2.6426,-2.5883,-2.5252,-2.437,-2.3522,-2.3793,-2.3744,-2.3614,-2.4044,-2.4195,-2.4195,-2.4195,-2.3828,-2.3515,-2.4007,-2.4131,-2.4323,-2.5204,-2.5438,-2.5534,-2.5918,-2.6014,-2.6014,-2.6014,-2.6014,-2.6014,-2.6014,-2.6328,-2.5993,-2.4032,-2.3701,-2.3621,-2.3379,-2.3336,-2.3303,-2.3196,-2.3012,-2.2896,-2.2896,-2.2762,-2.2656,-2.2656,-2.2309,-2.2083,-2.2083,-2.1418,-2.0867,-2.0478,-1.9736,-1.8995,-1.8229,-1.7501,-1.7084,0.0,0.0,0.0,0.0,0.0,0.0,0.0,0.0,0.0,0.0,0.0,0.0,0.0,0.0,0.0,0.0,0.0,0.0,0.0,0.0,0.0,0.0,-1.7765,-1.8467,-1.9656,-1.9511,-1.9688,-2.0778,-2.186,-2.2634,-2.2939,-2.4271,-2.5284,-2.5775,-2.6153,-2.6825,-2.7799,-2.8229,-2.8618,-2.8996,-2.9412,-2.9726,-2.9968,-2.9968,-3.0118,-3.0402,-3.0402,-3.0402,-3.0402,-3.0402,-3.0402,-3.0402,-3.0402,-2.9908,-2.9145,-2.9145,-2.8615,-2.7779,0.0,0.0,0.0,0.0,-2.4858,-2.4282,-2.4386,-2.4275,-2.4173,-2.4513,-2.4639,-2.4639,-2.4639,-2.4344,-2.4055,-2.4443,-2.4577,-2.4723,-2.5425,-2.5597,-2.5677,-2.5994,-2.6074,-2.6074,-2.6074,-2.6074,-2.6074,-2.6074,-2.6074,0.0,-2.4242,-2.4059,-2.3926,-2.3295,-2.3235,-2.3176,-2.3118,-2.3108,-2.3108,-2.3108,-2.3108,-2.3108,-2.3108,-2.2807,0.0,0.0,0.0,-2.1581,-2.1069,-2.049,0.0,0.0,0.0,-1.7953,-1.7727,-1.7388,0.0,0.0,-1.5103,-1.4827,0.0,0.0,0.0,0.0,0.0,0.0,0.0,0.0,0.0,0.0,0.0,0.0,0.0,0.0,0.0,0.0,-1.848,-1.9509,-2.0714,-2.0934,-2.077,-2.0271,-2.2086,-2.3452,-2.3639,-2.4321,-2.5479,-2.7259,-2.7528,-2.8152,-2.9399,-2.953,0.0,0.0,0.0,-2.9948,-3.0456,-3.0471,-3.0871,-3.1615,-3.1615,-3.1645,-3.172,-3.1632,-3.1632,-3.172,-3.15,-3.0982,-3.0348,-3.0256,-2.9684,-2.8798,-2.7568,-2.7029,-2.6847,-2.6197,-2.5908,-2.5762,-2.5109,0.0,0.0,-2.4936,-2.4936,-2.4936,-2.4936,-2.4885,-2.4788,-2.4788,-2.4788,-2.48,-2.4863,-2.4876,-2.4888,-2.4996,-2.5008,-2.5008,-2.5008,-2.5008,-2.5008,-2.5008,-2.5008,-2.4983,-2.4888,-2.4985,-2.4663,-2.3462,-2.3296,-2.3296,-2.3296,-2.3296,-2.3296,-2.3296,-2.3296,0.0,-2.3208,-2.3195,-2.317,-2.3108,-2.2594,-2.2096,-2.1606,-2.1081,-2.0541,-1.9999,-1.9384,-1.8857,-1.838,-1.8267,-1.8204,-1.8166,-1.6672,-1.6245,0.0,0.0,0.0,0.0,0.0,0.0,0.0,0.0,0.0,0.0,0.0,0.0,0.0,0.0,0.0,-1.9196,-1.951,-2.0051,-2.1207,-2.1739,-2.2188,-2.264,-2.3138,-2.3561,-2.3955,-2.5772,-2.6722,-2.6264,-2.7411,-2.8253,-2.8538,-2.9044,-2.9363,-2.9363,-2.9885,-3.0205,-3.0321,-3.0321,-3.0998,-3.2303,-3.2303,0.0,-3.308,-3.2344,-3.239,-3.3019,-3.1447,-3.075,-3.0651,-2.9896,-2.9052,-2.8216,-2.7742,-2.7177,-2.6573,-2.6451,-2.6092,-2.5653,-2.5501,-2.5543,-2.567,-2.567,-2.567,-2.567,-2.567,-2.5281,0.0,-2.4788,-2.4788,-2.4888,-2.5335,-2.5448,-2.5561,-2.6072,-2.6172,-2.6172,-2.6172,-2.6172,-2.6172,-2.6172,-2.6172,-2.6034,-2.5523,-2.5138,-2.4766,-2.4506,-2.4462,-2.4462,-2.4462,-2.4462,-2.4462,-2.4462,-2.4462,-2.4318,-2.3866,-2.3841,-2.364,-2.3133,-2.2594,-2.2259,-2.2159,-2.1619,-2.128,-2.1167,-2.0175,-1.9597,-1.9497,-1.8631,-1.8204,-1.8191,-1.7877,-1.7777,0.0,0.0,0.0,0.0,0.0,0.0,0.0,0.0,0.0,0.0,0.0,-1.779,-1.779,0.0,-1.9183,-1.971,-2.0275,-2.0941,-2.1782,-2.2343,-2.2845,-2.321,-2.3521,-2.4033,-2.4908,-2.5688,-2.6374,-2.6924,-2.7332,-2.7908,-2.8607,-2.8977,-2.9146,-2.9146,-2.9738,-3.0282,-3.0746,-3.0548,-3.1065,-3.2304,-3.1775,-3.1711,-3.2044,-3.1575,-3.1608,-3.1979,-3.1032,-3.0629,-3.0629,-2.9752,-2.8876,-2.8083,-2.7966,-2.7478,-2.6876,-2.66,-2.6311,-2.6059,-2.6059,-2.6138,-2.6199,-2.6199,-2.6199,-2.6199,-2.6199,-2.593,-2.5636,-2.5636,-2.5636,-2.5699,-2.5996,-2.6059,-2.6135,-2.6424,-2.6499,-2.6499,-2.6499,-2.6499,-2.6499,-2.6499,-2.6499,-2.6399,-2.6109,-2.5812,-2.5448,-2.4876,-2.4788,-2.4788,-2.4788,-2.4788,-2.4788,-2.4788,-2.4788,-2.4675,-2.4431,-2.4155,-2.3879,-2.359,-2.3007,-2.2694,-2.2694,-2.2196,-2.1895,-2.1895,-2.1079,-2.0639,-2.0639,-2.0112,-1.9849,-1.9849,-1.9849,-1.9258,0.0,0.0,0.0,0.0,0.0,0.0,0.0,-1.6459,-1.6974,-1.7473,-1.7978,-1.8392,-1.8493,-1.9309,-2.0037,-2.025,-2.1142,-2.1995,-2.256,-2.3083,-2.3471,-2.3572,-2.391,-2.4595,-2.5725,-2.5467,-2.5903,-2.7588,-2.7293,-2.7597,-2.8853,-2.8912,-2.8967,-2.9058,-2.9504,-3.0099,-3.086,-3.0549,-3.0934,-3.1989,-3.1179,-3.0863,-3.0986,-3.0815,-3.0815,-3.0986,-3.0815,-3.0608,-3.0379,-2.9772,-2.9044,-2.8423,-2.831,-2.7996,-2.7544,-2.7014,-2.6813,-2.6801,-2.6688,-2.665,-2.6637,-2.6524,-2.6499,-2.6499,-2.6499,-2.6499,-2.6499,-2.6499,-2.6499,-2.6499,-2.6499,-2.6499,-2.6499,-2.6499,-2.6499,-2.6499,-2.6499,-2.6499,-2.6499,-2.6499,-2.6499,-2.6499,-2.6499,-2.6499,-2.6197,-2.5272,-2.5146,-2.5146,-2.5146,-2.5146,-2.5146,-2.5146,-2.5146,-2.5096,-2.4983,-2.4469,-2.4117,-2.4004,-2.3521,-2.3221,-2.3108,-2.2681,-2.2472,-2.2472,-2.1933,-2.1644,-2.1644,-2.1543,-2.1493,-2.1493,-2.1493,-2.0539,-1.6312,-1.6312,-1.6312,-1.6312,-1.6722,-1.7134,0.0,-1.7614,-1.8041,-1.8103,-1.8531,-1.9058,-1.9535,-2.0163,-2.0918,-2.187,-2.2518,-2.312,-2.3728,-2.428,-2.4775,-2.5259,-2.4971,-2.4965,-2.5567,-2.6272,-2.6681,-2.6676,-2.7259,-2.7881,-2.8524,-2.855,-2.8802,-2.9345,-2.9424,-2.9499,-2.959,-2.9552,-3.025,-3.1668,-3.153,-3.1805,-3.2364,-3.1518,-3.159,-3.2329,-3.1481,-3.0651,-2.9885,-2.9783,-2.9719,-2.9553,-2.9038,-2.8762,-2.865,-2.8122,-2.7921,-2.7846,-2.7392,-2.7228,-2.714,-2.665,-2.6499,-2.6499,-2.6499,-2.6499,-2.6499,-2.6499,-2.6499,-2.6499,-2.6499,-2.6499,-2.6499,-2.6499,-2.6499,-2.6499,-2.6499,-2.6499,-2.6499,-2.6499,-2.6499,-2.6499,-2.6499,-2.6499,-2.6449,-2.6336,-2.6311,-2.6311,-2.6311,-2.6311,-2.6311,-2.6311,-2.6311,-2.6097,-2.5548,-2.5034,-2.4519,-2.4029,-2.3941,-2.3665,-2.312,-2.3045,-2.3007,-2.3007,-2.2468,-2.2221,-2.2221,-2.1732,-2.1493,-2.1493,-2.1493,-2.1355,-1.739,-1.7501,-1.7501,-1.7501,-1.7677,-1.7865,-1.7865,-1.8292,-1.8744,-1.907,-1.9585,-2.0137,-2.069,-2.1242,-2.1782,-2.2234,-2.302,-2.3715,-2.3966,-2.4732,-2.536,-2.5573,-2.5699,-2.5896,-2.6109,-2.6459,-2.6756,-2.6961,-2.7265,-2.7703,-2.8241,-2.828,-2.8395,-2.8638,-2.8935,-2.938,-2.9992,-2.9766,-3.021,-3.1343,-3.08,-3.0686,-3.0959,-3.0558,-3.0595,-3.0959,-3.0558,-3.0177,-2.9792,-2.9792,-2.9792,-2.9767,-2.9528,-2.9428,-2.9327,-2.8436,-2.8109,-2.8072,-2.7846,-2.7758,-2.767,-2.7153,-2.6977,-2.6914,-2.6587,-2.6499,-2.6499,-2.6499,-2.6499,-2.6499,-2.6499,-2.6499,-2.6499,-2.6499,-2.6499,-2.6499,-2.6499,-2.6499,-2.6499,-2.6499,-2.6499,-2.6499,-2.6499,-2.6499,-2.6499,-2.6499,-2.6499,-2.6499,-2.6499,-2.6499,-2.6499,-2.6499,-2.6499,-2.6399,-2.616,-2.5586,-2.5172,-2.4946,-2.4644,-2.4336,-2.4098,-2.3772,-2.364,-2.364,-2.3045,-2.2757,-2.2757,-2.2531,-2.2447,-2.2447,-2.2447,-2.2447,-1.8091,-1.8204,-1.8204,-1.8204,-1.8317,-1.8406,-1.8406,-1.897,-1.9585,-1.9962,-2.0515,-2.1081,-2.1606,-2.2046,-2.241,-2.2723,-2.359,-2.4268,-2.4418,-2.5247,-2.5837,-2.5837,-2.6373,-2.6725,-2.6725,-2.6725,-2.6952,-2.7469,-2.7507,-2.7745,-2.8298,-2.8335,-2.8411,-2.8561,-2.8963,-2.9491,-3.0223,-2.9948,-3.0139,-3.0796,-3.0101,-2.9792,-2.9792,-2.9792,-2.9792,-2.9792,-2.9792,-2.9792,-2.9792,-2.9792,-2.9792,-2.9792,-2.9792,-2.9792,-2.9691,-2.8875,-2.8574,-2.8549,-2.8386,-2.8335,-2.8247,-2.7695,-2.7507,-2.7444,-2.7065,-2.6839,-2.6725,-2.6725,-2.6612,-2.6499,-2.6499,-2.6499,-2.6499,-2.6499,-2.6499,-2.6499,-2.6499,-2.6499,-2.6499,-2.6499,-2.6499,-2.6499,-2.6499,-2.6499,-2.6499,-2.6499,-2.6499,-2.6499,-2.6499,-2.6499,-2.6499,-2.6499,-2.6499,-2.6499,-2.6499,-2.6109,-2.5774,-2.5598,-2.5247,-2.4938,-2.48,-2.4443,-2.423,-2.423,-2.3785,-2.3572,-2.3572,-2.3572,-2.3572,-2.3572,-2.3572,-2.3572,-1.8204,-1.8204,-1.8204,-1.8204,-1.8581,-1.8983,-1.8983,-1.9836,-2.0641,-2.0666,-2.1106,-2.1631,-2.2184,-2.2297,-2.2673,-2.3766,-2.4418,-2.4971,-2.5473,-2.6097,-2.6461,-2.6461,-2.6952,-2.7291,-2.7291,-2.7291,-2.7494,-2.8047,-2.8084,-2.8323,-2.8838,-2.8863,-2.9126,-2.9729,-2.9754,-2.9805,-2.9805,-2.983,-2.983,-2.9818,-2.9792,-2.9792,-2.9792,-2.9792,-2.9792,-2.9792,-2.9792,-2.9792,-2.9792,-2.9792,-2.9792,-2.9792,-2.9792,-2.9792,-2.9792,-2.9754,-2.9741,-2.9666,-2.9063,-2.8863,-2.8775,-2.826,-2.8084,-2.8084,-2.8059,-2.7682,-2.7291,-2.7291,-2.6901,-2.6499,-2.6499,-2.6499,-2.6499,-2.6499,-2.6499,-2.6499,-2.6499,-2.6499,-2.6499,-2.6499,-2.6499,-2.6499,-2.6499,-2.6499,-2.6499,-2.6499,-2.6499,-2.6499,-2.6499,-2.6499,-2.6499,-2.6499,-2.6499,-2.6499,-2.6499,-2.6474,-2.6223,-2.5636,-2.5573,-2.5347,-2.4813,-2.4775,-2.4763,-2.4763,-2.475,-2.4738,-2.4738,-2.4738,-2.4738,-2.4738,-2.4738,-2.4738,-1.9761,-1.956,-1.9359,-1.9761,-2.0,-2.0213,-2.0577,-2.0953,-2.1345,-2.1681,-2.1907,-2.2322,-2.3263,-2.3113,-2.3195,-2.4368,-2.4662,-2.5008,-2.5523,-2.6135,-2.6499,-2.6499,-2.6977,-2.7419,-2.7795,-2.7821,-2.8059,-2.8612,-2.8612,-2.8863,-2.9478,-2.9503,-2.9591,-2.9779,-2.9792,-2.9792,-2.9792,-2.9792,-2.9792,-2.9792,-2.9792,-2.9792,-2.9792,-2.9792,-2.9792,-2.9792,-2.9792,-2.9792,-2.9792,-2.9792,-2.9792,-2.9792,-2.9792,-2.9792,-2.9792,-2.9792,-2.9792,-2.9767,-2.9566,-2.9503,-2.9402,-2.8837,-2.8612,-2.8549,-2.821,-2.7971,-2.7821,-2.7821,-2.7431,-2.704,-2.704,-2.6763,-2.6499,-2.6499,-2.6499,-2.6499,-2.6499,-2.6499,-2.6499,-2.6499,-2.6499,-2.6499,-2.6499,-2.6499,-2.6499,-2.6499,-2.6499,-2.6499,-2.6499,-2.6499,-2.6499,-2.6499,-2.6499,-2.6499,-2.6499,-2.6499,-2.6411,-2.6223,-2.6197,-2.6122,-2.5946,-2.5536,-2.5335,-2.5335,-2.4996,-2.4788,-2.4788,-2.4788,-2.4788,-2.4788,-2.4788,-2.4788,-2.0591,-2.0427,-2.025,-2.0842,-2.0993,-2.1081,-2.1405,-2.1644,-2.1882,-2.2234,-2.2443,-2.2794,-2.3552,-2.3358,-2.3471,-2.46,-2.4788,-2.5071,-2.5799,-2.626,-2.6499,-2.6499,-2.7153,-2.772,-2.8072,-2.8473,-2.885,-2.9214,-2.9239,-2.9402,-2.9779,-2.9792,-2.9792,-2.9792,-2.9792,-2.9792,-2.9792,-2.9792,-2.9792,-2.9792,-2.9792,-2.9792,-2.9792,-2.9792,-2.9792,-2.9792,-2.9792,-2.9792,-2.9792,-2.9792,-2.9792,-2.9792,-2.9792,-2.9792,-2.9792,-2.9792,-2.9792,-2.9792,-2.9792,-2.9792,-2.9729,-2.9365,-2.9239,-2.9176,-2.8812,-2.8561,-2.8398,-2.8398,-2.7996,-2.7582,-2.7582,-2.7203,-2.6788,-2.6788,-2.6637,-2.6499,-2.6499,-2.6499,-2.6499,-2.6499,-2.6499,-2.6499,-2.6499,-2.6499,-2.6499,-2.6499,-2.6499,-2.6499,-2.6499,-2.6499,-2.6499,-2.6499,-2.6499,-2.6499,-2.6499,-2.6499,-2.6499,-2.6499,-2.6499,-2.6499,-2.6499,-2.6135,-2.59,-2.59,-2.5573,-2.541,-2.541,-2.541,-2.541,-2.541,-2.541,-2.541,-2.0717,-2.0717,-2.083,-2.1393,-2.1531,-2.1543,-2.1568,-2.1983,-2.2347,-2.2347,-2.2744,-2.3108,-2.3145,-2.312,-2.3471,-2.46,-2.4788,-2.5197,-2.6298,-2.6474,-2.6499,-2.6499,-2.7431,-2.8109,-2.8109,-2.9126,-2.9792,-2.9792,-2.9792,-2.9792,-2.9792,-2.9792,-2.9792,-2.9792,-2.9792,-2.9792,-2.9792,-2.9792,-2.9792,-2.9792,-2.9792,-2.9792,-2.9792,-2.9792,-2.9792,-2.9792,-2.9792,-2.9792,-2.9792,-2.9792,-2.9792,-2.9792,-2.9792,-2.9792,-2.9792,-2.9792,-2.9792,-2.9792,-2.9792,-2.9792,-2.9792,-2.9792,-2.9792,-2.9792,-2.9792,-2.9415,-2.8938,-2.8938,-2.8574,-2.8147,-2.8147,-2.7733,-2.7318,-2.7318,-2.6964,-2.6562,-2.6549,-2.6537,-2.6524,-2.6499,-2.6499,-2.6499,-2.6499,-2.6499,-2.6499,-2.6499,-2.6499,-2.6499,-2.6499,-2.6499,-2.6499,-2.6499,-2.6499,-2.6499,-2.6499,-2.6499,-2.6499,-2.6499,-2.6499,-2.6499,-2.6499,-2.6499,-2.6499,-2.6499,-2.6499,-2.6499,-2.6499,-2.6499,-2.6499,-2.6499,-2.6499,-2.6499,-2.1081,-2.1006,-2.0918,-2.1857,-2.2108,-2.2209,-2.2594,-2.2794,-2.2895,-2.2895,-2.3007,-2.3233,-2.3703,-2.3396,-2.3471,-2.46,-2.4788,-2.5059,-2.5724,-2.6223,-2.6499,-2.6499,-2.7431,-2.8109,-2.8109,-2.9126,-2.9792,-2.9792,-2.9792,-2.9792,-2.9792,-2.9792,-2.9792,-2.9792,-2.9792,-2.9792,-2.9792,-2.9792,-2.9792,-2.9792,-2.9792,-2.9792,-2.9792,-2.9792,-2.9792,-2.9792,-2.9792,-2.9792,-2.9792,-2.9792,-2.9792,-2.9792,-2.9792,-2.9792,-2.9792,-2.9792,-2.9792,-2.9792,-2.9792,-2.9792,-2.9792,-2.9792,-2.9792,-2.9792,-2.9792,-2.9691,-2.9578,-2.9578,-2.9164,-2.8687,-2.8687,-2.831,-2.7896,-2.7896,-2.7783,-2.757,-2.719,-2.7115,-2.6989,-2.6575,-2.6499,-2.6499,-2.6499,-2.6499,-2.6499,-2.6499,-2.6499,-2.6499,-2.6499,-2.6499,-2.6499,-2.6499,-2.6499,-2.6499,-2.6499,-2.6499,-2.6499,-2.6499,-2.6499,-2.6499,-2.6499,-2.6499,-2.6499,-2.6499,-2.6499,-2.6499,-2.6499,-2.6499,-2.6499,-2.6499,-2.6499,-2.6499,-2.1255,-2.1295,-2.132,-2.2397,-2.2644,-2.2732,-2.3032,-2.292,-2.2744,-2.2744,-2.2556,-2.251,-2.2836,-2.2836,-2.3032,-2.391,-2.4462,-2.5008,-2.5523,-2.6135,-2.6499,-2.6499,-2.7431,-2.8109,-2.8109,-2.9126,-2.9792,-2.9792,-2.9792,-2.9792,-2.9792,-2.9792,-2.9792,-2.9792,-2.9792,-2.9792,-2.9792,-2.9792,-2.9792,-2.9792,-2.9792,-2.9792,-2.9792,-2.9792,-2.9792,-2.9792,-2.9792,-2.9792,-2.9792,-2.9792,-2.9792,-2.9792,-2.9792,-2.9792,-2.9792,-2.9792,-2.9792,-2.9792,-2.9792,-2.9792,-2.9792,-2.9792,-2.9792,-2.9792,-2.9792,-2.9792,-2.9792,-2.9792,-2.9566,-2.9302,-2.9302,-2.8888,-2.8461,-2.8461,-2.8285,-2.8021,-2.7708,-2.7645,-2.7482,-2.6964,-2.6663,-2.6499,-2.6499,-2.6499,-2.6499,-2.6499,-2.6499,-2.6499,-2.6499,-2.6499,-2.6499,-2.6499,-2.6499,-2.6499,-2.6499,-2.6499,-2.6499,-2.6499,-2.6499,-2.6499,-2.6499,-2.6499,-2.6499,-2.6499,-2.6499,-2.6499,-2.6499,-2.6499,-2.6499,-2.6499,-2.6499,-2.6499,-2.1257,-2.138,-2.1631,-2.2631,-2.2882,-2.2882,-2.2882,-2.2518,-2.2196,-2.2196,-2.182,-2.1493,-2.1493,-2.1882,-2.2355,-2.2907,-2.3885,-2.4775,-2.541,-2.6021,-2.6411,-2.6487,-2.7431,-2.8109,-2.8109,-2.9126,-2.9792,-2.9792,-2.9792,-2.9792,-2.9792,-2.9792,-2.9792,-2.9792,-2.9792,-2.9792,-2.9792,-2.9792,-2.9792,-2.9792,-2.9792,-2.9792,-2.9792,-2.9792,-2.9792,-2.9792,-2.9792,-2.9792,-2.9792,-2.9792,-2.9792,-2.9792,-2.9792,-2.9792,-2.9792,-2.9792,-2.9792,-2.9792,-2.9792,-2.9792,-2.9792,-2.9792,-2.9792,-2.9792,-2.9792,-2.9792,-2.9792,-2.9792,-2.9792,-2.9792,-2.9792,-2.9415,-2.9001,-2.9001,-2.8674,-2.831,-2.8235,-2.816,-2.7959,-2.7494,-2.704,-2.6688,-2.6612,-2.66,-2.6575,-2.6499,-2.6499,-2.6499,-2.6499,-2.6499,-2.6499,-2.6499,-2.6499,-2.6499,-2.6499,-2.6499,-2.6499,-2.6499,-2.6499,-2.6499,-2.6499,-2.6499,-2.6499,-2.6499,-2.6499,-2.6499,-2.6499,-2.6499,-2.6499,-2.6499,-2.6499,-2.6499,-2.0679,-2.083,-2.0993,-2.1606,-2.1782,-2.1782,-2.1782,-2.1707,-2.1631,-2.1631,-2.1556,-2.1493,-2.1493,-2.1568,-2.1807,-2.2359,-2.297,-2.376,-2.4775,-2.541,-2.5925,-2.6436,-2.7431,-2.8109,-2.8109,-2.9126,-2.9792,-2.9792,-2.9792,-2.9792,-2.9792,-2.9792,-2.9792,-2.9792,-2.9792,-2.9792,-2.9792,-2.9792,-2.9792,-2.9792,-2.9792,-2.9792,-2.9792,-2.9792,-2.9792,-2.9792,-2.9792,-2.9792,-2.9792,-2.9792,-2.9792,-2.9792,-2.9792,-2.9792,-2.9792,-2.9792,-2.9792,-2.9792,-2.9792,-2.9792,-2.9792,-2.9792,-2.9792,-2.9792,-2.9792,-2.9792,-2.9792,-2.9792,-2.9792,-2.9792,-2.9792,-2.9716,-2.9641,-2.9641,-2.9566,-2.9365,-2.885,-2.8423,-2.8084,-2.7984,-2.7883,-2.767,-2.7253,-2.7178,-2.7014,-2.6562,-2.6499,-2.6499,-2.6499,-2.6499,-2.6499,-2.6499,-2.6499,-2.6499,-2.6499,-2.6499,-2.6499,-2.6499,-2.6499,-2.6499,-2.6499,-2.6499,-2.6499,-2.6499,-2.6499,-2.6499,-2.6499,-2.6499,-2.6499,-2.6499,-2.6499,-2.6499,-2.0541,-2.0691,-2.083,-2.1383,-2.1493,-2.1493,-2.1493,-2.1295,-2.1081,-2.1081,-2.0815,-2.0614,-2.0614,-2.088,-2.127,-2.1794,-2.2556,-2.3496,-2.4625,-2.5272,-2.5812,-2.6424,-2.7431,-2.8109,-2.8109,-2.9126,-2.9792,-2.9792,-2.9792,-2.9792,-2.9792,-2.9792,-2.9792,-2.9792,-2.9792,-2.9792,-2.9792,-2.9792,-2.9792,-2.9792,-2.9792,-2.9792,-2.9792,-2.9792,-2.9792,-2.9792,-2.9792,-2.9792,-2.9792,-2.9792,-2.9792,-2.9792,-2.9792,-2.9792,-2.9792,-2.9792,-2.9792,-2.9792,-2.9792,-2.9792,-2.9792,-2.9792,-2.9792,-2.9792,-2.9792,-2.9792,-2.9792,-2.9792,-2.9792,-2.9792,-2.9792,-2.9792,-2.9792,-2.9792,-2.9792,-2.9716,-2.944,-2.8938,-2.8536,-2.8536,-2.8298,-2.8021,-2.7758,-2.7708,-2.762,-2.7356,-2.7318,-2.7241,-2.6964,-2.6927,-2.6813,-2.6524,-2.6499,-2.6499,-2.6499,-2.6499,-2.6499,-2.6499,-2.6499,-2.6499,-2.6499,-2.6499,-2.6499,-2.6499,-2.6499,-2.6499,-2.6499,-2.6499,-2.6499,-2.6499,-2.6499,-2.6499,-2.0352,-2.0515,-2.0616,-2.1016,-2.1129,-2.1104,-2.0991,-2.0654,-2.0302,-2.0189,-1.9773,-1.9459,-1.9459,-1.9924,-2.0515,-2.1041,-2.2058,-2.3145,-2.4274,-2.5021,-2.5636,-2.6248,-2.7356,-2.8109,-2.8109,-2.9126,-2.9792,-2.9792,-2.9792,-2.9792,-2.9792,-2.9792,-2.9792,-2.9792,-2.9792,-2.9792,-2.9792,-2.9792,-2.9792,-2.9792,-2.9792,-2.9792,-2.9792,-2.9792,-2.9792,-2.9792,-2.9792,-2.9792,-2.9792,-2.9792,-2.9792,-2.9792,-2.9792,-2.9792,-2.9792,-2.9792,-2.9663,-2.9495,-2.9702,-2.9624,-2.9495,-2.9702,-2.9792,-2.9792,-2.9792,-2.9792,-2.9792,-2.9792,-2.9792,-2.9792,-2.9792,-2.9792,-2.9792,-2.9792,-2.9792,-2.9792,-2.9792,-2.944,-2.9076,-2.9076,-2.8762,-2.8423,-2.8298,-2.8285,-2.8247,-2.8122,-2.8109,-2.7946,-2.7519,-2.7457,-2.7329,-2.6889,-2.6637,-2.6499,-2.6499,-2.6499,-2.6499,-2.6499,-2.6499,-2.6499,-2.6499,-2.6499,-2.6499,-2.6499,-2.6499,-2.6499,-2.6499,-2.6499,-2.6499,-2.6499,-2.6499,-2.6562,-1.9748,-1.9874,-1.9899,-1.9949,-1.9962,-1.9836,-1.9334,-1.9196,-1.9008,-1.853,-1.8392,-1.8355,-1.8355,-1.8782,-1.9321,-1.9874,-2.0903,-2.202,-2.3108,-2.4186,-2.5084,-2.5611,-2.7105,-2.8109,-2.8109,-2.9126,-2.9792,-2.9792,-2.9792,-2.9792,-2.9792,-2.9792,-2.9792,-2.9792,-2.9792,-2.9792,-2.9792,-2.9792,-2.9792,-2.9792,-2.9792,-2.9792,-2.9792,-2.9792,-2.9792,-2.9792,-2.9792,-2.9792,-2.9792,-2.9792,-2.9792,-2.9792,-2.9792,-2.9792,-2.9792,-2.9792,-2.9145,-2.8386,-2.9443,-2.9106,-2.8426,-2.9456,-2.9792,-2.9792,-2.9792,-2.9792,-2.9792,-2.9792,-2.9792,-2.9792,-2.9792,-2.9792,-2.9792,-2.9792,-2.9792,-2.9792,-2.9792,-2.9754,-2.9716,-2.9716,-2.9679,-2.9465,-2.89,-2.8813,-2.865,-2.8185,-2.8109,-2.8084,-2.8034,-2.8034,-2.8009,-2.7959,-2.709,-2.6499,-2.6499,-2.6499,-2.6499,-2.6499,-2.6499,-2.6499,-2.6499,-2.6499,-2.6499,-2.6499,-2.6499,-2.6499,-2.6499,-2.6499,-2.6499,-2.6499,-2.6499,-2.6763,-1.9334,-1.956,-1.9798,-1.9798,-1.9572,-1.9259,-1.9045,-1.8744,-1.8468,-1.8254,-1.8204,-1.8204,-1.8204,-1.8356,-1.8782,-1.966,-2.0503,-2.1493,-2.2895,-2.4073,-2.5008,-2.5536,-2.708,-2.8109,-2.8109,-2.9126,-2.9792,-2.9792,-2.9792,-2.9792,-2.9792,-2.9792,-2.9792,-2.9792,-2.9792,-2.9792,-2.9792,-2.9792,-2.9792,-2.9792,-2.9792,-2.9792,-2.9792,-2.9792,-2.9792,-2.9792,-2.9792,-2.9792,-2.9792,-2.9792,-2.9792,-2.974,-2.9028,-2.8767,-2.8688,-2.8039,-2.7545,-2.7209,-2.7678,-2.7947,-2.8176,-2.8636,-2.9236,-2.9792,-2.9792,-2.9792,-2.9792,-2.9792,-2.9792,-2.9792,-2.9792,-2.9275,-2.8767,-2.8767,-2.8279,-2.7799,-2.7799,-2.8319,-2.8569,-2.7919,-2.8331,-2.8694,-2.8475,-2.8439,-2.8572,-2.9063,-2.9114,-2.9001,-2.8649,-2.8562,-2.8473,-2.8134,-2.7708,-2.7444,-2.7444,-2.7444,-2.7444,-2.7444,-2.7444,-2.7444,-2.7444,-2.7444,-2.7444,-2.7444,-2.7444,-2.7444,-2.7444,-2.7444,-2.7444,-2.7444,-2.7444,-2.757,-1.882,-1.9045,-1.9271,-1.912,-1.8921,-1.8658,-1.8301,-1.8086,-1.7915,-1.7739,-1.7702,-1.7702,-1.7702,-1.784,-1.8254,-1.9183,-2.0113,-2.1157,-2.246,-2.3873,-2.4926,-2.5322,-2.6992,-2.8109,-2.8109,-2.9126,-2.9792,-2.9792,-2.9792,-2.9663,-2.9326,-2.9287,-2.9456,-2.9792,-2.9792,-2.9792,-2.9792,-2.9456,-2.9287,-2.9275,-2.8961,-2.8831,-2.8831,-2.8831,-2.8831,-2.8831,-2.8831,-2.8831,-2.8831,-2.8831,-2.8831,-2.8752,-2.7947,-2.7643,-2.7522,-2.676,-2.6307,-2.6058,-2.6389,-2.6789,-2.7186,-2.7522,-2.8159,-2.8831,-2.8831,-2.9287,-2.9714,-2.9404,-2.9079,-2.8831,-2.8831,-2.8239,-2.7643,-2.7643,-2.7046,-2.6524,-2.6524,-2.7075,-2.74,-2.6637,-2.7128,-2.7643,-2.7643,-2.7643,-2.7907,-2.8712,-2.8831,-2.8657,-2.8256,-2.8169,-2.8062,-2.7685,-2.7913,-2.8102,-2.8098,-2.8109,-2.8109,-2.8109,-2.8109,-2.8109,-2.8109,-2.8109,-2.8109,-2.8109,-2.8109,-2.8109,-2.8109,-2.8109,-2.8109,-2.8109,-2.8109,-2.8197,-1.8066,-1.8216,-1.8074,-1.7472,-1.7774,-1.7912,-1.6702,-1.6929,-1.7247,-1.6638,-1.6513,-1.6513,-1.6513,-1.6999,-1.7599,-1.8129,-1.9623,-2.0893,-2.1458,-2.3427,-2.4788,-2.48,-2.6766,-2.8109,-2.8109,-2.9126,-2.9792,-2.9792,-2.9792,-2.9326,-2.8176,-2.8136,-2.8636,-2.9753,-2.9792,-2.9792,-2.9792,-2.8676,-2.8136,-2.8096,-2.7046,-2.6524,-2.6524,-2.6524,-2.6524,-2.6524,-2.6524,-2.6524,-2.6524,-2.6524,-2.6524,-2.6524,-2.6513,-2.6524,-2.6524,-2.6524,-2.5797,-2.4999,-2.6099,-2.5755,-2.4999,-2.6141,-2.6513,-2.6524,-2.6524,-2.8051,-2.9573,-2.8426,-2.736,-2.6524,-2.6524,-2.6524,-2.6524,-2.6524,-2.6513,-2.6524,-2.6524,-2.6513,-2.6513,-2.6524,-2.6513,-2.6524,-2.6524,-2.6524,-2.6513,-2.6524,-2.6524,-2.6513,-2.6513,-2.6513,-2.6502,-2.6502,-2.747,-2.811,-2.8111,-2.8109,-2.8109,-2.8109,-2.8109,-2.8109,-2.8109,-2.8109,-2.8109,-2.8109,-2.8109,-2.8109,-2.8109,-2.8109,-2.8109,-2.8109,-2.8109,-2.8361,-1.7725,-1.7915,-1.8157,-1.7978,-1.7763,-1.7543,-1.7161,-1.6928,-1.6735,-1.6538,-1.65,-1.65,-1.65,-1.6672,-1.7099,-1.8053,-1.8805,-1.9799,-2.1299,-2.2887,-2.4132,-2.4723,-2.6766,-2.8411,-2.9189,-2.8858,-2.8636,-2.8636,-2.7959,-2.7383,-2.7046,-2.7005,-2.7168,-2.7516,-2.7545,-2.7545,-2.7545,-2.7168,-2.7005,-2.7005,-2.6637,-2.6524,-2.6524,-2.6524,-2.6524,-2.6524,-2.6524,-2.6524,-2.6524,-2.6524,-2.6524,-2.6431,-2.563,-2.5336,-2.5252,-2.4467,-2.393,-2.3681,-2.4059,-2.4467,-2.4872,-2.521,-2.5891,-2.6524,-2.6524,-2.6976,-2.7464,-2.7128,-2.676,-2.6524,-2.6524,-2.5922,-2.5336,-2.5336,-2.4755,-2.4188,-2.4188,-2.4798,-2.5126,-2.4307,-2.5431,-2.6524,-2.6524,-2.6524,-2.676,-2.7481,-2.6964,-2.6524,-2.6524,-2.6524,-2.6524,-2.6524,-2.7441,-2.8124,-2.8113,-2.8794,-2.9264,-2.9264,-2.9264,-2.9264,-2.9264,-2.9264,-2.9264,-2.9264,-2.9264,-2.9264,-2.9264,-2.9264,-2.9264,-2.9264,-2.9264,-2.9352,-1.7105,-1.73,-1.7495,-1.7276,-1.7142,-1.6938,-1.6499,-1.6431,-1.638,-1.5898,-1.5986,-1.6173,-1.6173,-1.6333,-1.6843,-1.8006,-1.86,-1.9525,-2.1244,-2.2658,-2.398,-2.5291,-2.6636,-2.7763,-2.8485,-2.7907,-2.7481,-2.7481,-2.6883,-2.6307,-2.588,-2.585,-2.5683,-2.5231,-2.6058,-2.6524,-2.6524,-2.6058,-2.585,-2.5839,-2.5431,-2.5231,-2.5231,-2.5231,-2.5231,-2.5231,-2.5231,-2.5231,0.0,-2.5231,-2.5231,-2.5147,-2.4425,-2.4168,-2.4082,-2.3343,-2.3091,-2.3091,-2.3091,-2.3551,-2.4168,-2.4168,-2.4638,-2.5231,-2.5231,-2.5515,-2.585,-2.585,-2.5557,-2.5231,-2.5231,-2.4681,-2.4168,-2.4168,-2.3637,-2.3091,-2.3091,-2.3681,-2.3963,-2.3266,-2.4264,-2.5231,-2.5231,-2.5231,-2.5431,-2.6119,-2.563,-2.5231,-2.5231,-2.5231,-2.5231,-2.5231,-2.6202,-2.7023,-2.7441,-2.891,-2.9624,-2.9197,-2.9573,-2.9792,-2.9792,-2.9792,-2.9792,-2.9792,-2.9792,-2.9792,-2.9792,-2.9792,-2.9792,-2.9792,-2.9792,-2.9792,0.0,-1.6402,-1.6315,-1.5798,-1.6051,-1.6151,-1.5017,-1.5611,0.0,-1.4926,-1.5141,-1.5543,-1.5543,-1.597,-1.6691,-1.7878,-1.871,-1.9729,-2.1163,-2.2551,-2.4186,-2.6174,-2.6385,-2.6438,-2.6505,-2.6442,-2.6389,-2.6389,-2.6307,-2.5808,-2.4755,-2.467,-2.4168,-2.3135,-2.5147,-2.6265,-2.6265,-2.521,-2.467,-2.466,-2.3594,-2.3091,-2.3091,-2.3091,-2.3091,-2.3091,-2.3091,-2.3091,-2.3091,-2.3091,-2.3091,-2.3091,-2.3091,-2.3091,-2.3091,-2.3091,-2.3091,-2.3091,-2.3091,-2.3091,-2.3091,-2.3091,-2.3091,-2.3091,-2.3091,-2.3844,-2.467,-2.467,-2.392,-2.3091,-2.3091,-2.3091,-2.3091,-2.3091,-2.3091,-2.3091,-2.3091,-2.3091,-2.3091,-2.3091,-2.3178,-2.3222,-2.3222,-2.3222,-2.3222,-2.3222,-2.3135,-2.3091,-2.3091,-2.3091,-2.3091,-2.3091,-2.4125,-2.521,-2.6182,-2.8291,-2.9157,-2.8176,-2.9028,-2.9585,-2.9585,-2.9585,-2.9585,-2.9585,-2.9624,-2.9663,-2.9663,-2.9753,-2.9792,-2.9792,-2.9792,-2.9792,-1.522,0.0,-1.5886,-1.6216,-1.6051,-1.5754,0.0,-1.5253,-1.5039,-1.4755,-1.4812,-1.4903,-1.4903,-1.5277,-1.5801,-1.6558,-1.7175,-1.8148,-1.9871,-2.1728,-2.35,-2.5161,-2.5354,-2.5673,-2.6423,-2.5714,-2.521,-2.521,-2.4382,-2.3767,-2.3507,-2.3507,-2.3387,-2.3091,-2.3637,-2.3887,-2.3887,-2.3637,-2.3507,-2.3507,-2.3222,-2.3091,-2.3091,-2.3091,-2.3091,-2.3091,-2.3091,-2.3091,-2.3091,-2.3091,-2.3091,-2.3091,-2.3091,-2.3091,-2.3091,-2.3091,-2.3091,-2.3091,-2.3091,-2.3091,-2.3091,-2.3091,-2.3091,-2.3091,-2.3091,-2.3309,-2.3507,-2.3507,-2.3299,-2.3091,-2.3091,-2.3091,-2.3091,-2.3091,-2.3091,-2.3091,-2.3091,-2.3091,-2.3091,-2.3091,-2.38,-2.4414,-2.4414,-2.4414,-2.4414,-2.4414,-2.3681,-2.3091,-2.3091,-2.3091,-2.3091,-2.3091,-2.4125,-2.4542,-2.393,-2.5975,-2.7504,-2.8056,-2.7574,-2.7261,-2.7261,-2.7261,-2.7261,-2.7261,-2.8068,-2.8518,-2.8518,-2.9365,-2.9792,-2.9792,-2.9792,-2.9792,-1.4733,-1.5141,-1.561,-1.5656,-1.5644,-1.5443,-1.4903,-1.4744,-1.4537,-1.4001,-1.4084,-1.4348,-1.4542,-1.5435,-1.6317,-1.6718,-1.761,-1.8705,-2.0009,-2.1812,-2.3287,-2.4135,-2.4404,-2.4645,-2.4904,-2.4382,-2.4006,-2.4006,-2.3464,-2.3091,-2.3091,-2.3091,-2.3091,-2.3091,-2.3091,-2.3091,-2.3091,-2.3091,-2.3091,-2.3091,-2.3091,-2.3091,-2.3091,-2.3091,-2.3091,-2.3091,-2.3091,-2.3091,-2.3091,-2.3091,-2.3091,-2.3091,-2.3091,-2.3091,-2.3091,-2.3091,-2.3091,-2.3091,-2.3091,-2.3091,-2.3091,-2.3091,-2.3091,-2.3091,-2.3091,-2.3091,-2.3091,-2.3091,-2.3091,-2.3091,-2.3091,-2.3091,-2.3091,-2.3091,-2.3091,-2.3091,-2.3091,-2.3091,-2.3091,-2.3091,-2.3594,-2.4006,-2.4006,-2.4006,-2.4006,-2.4006,-2.3507,-2.3091,-2.3091,-2.3091,-2.3091,-2.3091,-2.3627,-2.3963,-2.3877,-2.451,-2.542,-2.6521,-2.6543,-2.6524,-2.6524,-2.6524,-2.6524,-2.6524,-2.7562,-2.8096,-2.8096,-2.8727,-2.9275,-2.9792,-2.9275,-2.9314,-1.4324,-1.488,-1.5231,-1.4789,-1.5017,-1.5062,-1.4016,-1.412,-1.4152,-1.3193,-1.3401,-1.3945,-1.4541,-1.589,-1.7055,-1.7418,-1.8638,-1.9814,-2.0565,-2.2007,-2.302,-2.3078,-2.3484,-2.3581,-2.3139,-2.3091,-2.3091,-2.3091,-2.3091,-2.3091,-2.3091,-2.3091,-2.3091,-2.3091,-2.3091,-2.3091,-2.3091,-2.3091,-2.3091,-2.3091,-2.3091,-2.3091,-2.3091,-2.3091,-2.3091,-2.3091,-2.3091,-2.3091,-2.3091,-2.3091,-2.3091,-2.3091,-2.3091,-2.3091,-2.3091,-2.3091,-2.3091,-2.3091,-2.3091,-2.3091,-2.3091,-2.3091,-2.3091,-2.3091,-2.3091,-2.3091,-2.3091,-2.3091,-2.3091,-2.3091,-2.3091,-2.3091,-2.3091,-2.3091,-2.3091,-2.3091,-2.3091,-2.3091,-2.3091,-2.3091,-2.3091,-2.3091,-2.3091,-2.3091,-2.3091,-2.3091,-2.3091,-2.3091,-2.3091,-2.3091,-2.3091,-2.3091,-2.3091,-2.3507,-2.4457,-2.3681,-2.3507,-2.4457,-2.5431,-2.5975,-2.5975,-2.5975,-2.5975,-2.5975,-2.7238,-2.7763,-2.7591,-2.7924,-2.8597,-2.9534,-2.8557,-2.8727,-1.3189,-1.3624,-1.419,-1.4606,-1.4399,-1.4027,-1.3839,-1.3491,-1.3213,-1.338,-1.3474,-1.4017,-1.5558,-1.5763,-1.6066,-1.7236,-1.8168,-1.9068,-1.9937,-2.0905,-2.166,-2.2053,-2.2498,-2.2847,-2.3096,-2.3091,-2.3091,-2.3091,-2.3091,-2.3091,-2.3091,-2.3091,-2.3091,-2.3091,-2.3091,-2.3091,-2.3091,-2.3091,-2.3091,-2.3091,-2.3091,-2.3091,-2.3091,-2.3091,-2.3091,-2.3091,-2.3091,-2.3091,-2.3091,-2.3091,-2.3091,-2.3091,-2.3091,-2.3091,-2.3091,-2.3091,-2.3091,-2.3091,-2.3091,-2.3091,-2.3091,-2.3091,-2.3091,-2.3091,-2.3091,-2.3091,-2.3091,-2.3091,-2.3091,-2.3091,-2.3091,-2.3091,-2.3091,-2.3091,-2.3091,-2.3091,-2.3091,-2.3091,-2.3091,-2.3091,-2.3091,-2.3091,-2.3091,-2.3091,-2.3091,-2.3091,-2.3091,-2.3091,-2.3091,-2.3091,-2.3091,-2.3091,-2.3091,-2.3178,-2.3343,-2.3222,-2.3178,-2.3343,-2.3517,-2.3637,-2.3637,-2.3637,-2.3637,-2.3637,-2.5683,-2.6254,-2.5326,-2.7186,-2.8176,-2.8347,-2.8176,-2.8727,-1.2853,-1.3104,-1.3372,-1.3658,-1.3755,-1.3771,-1.3667,-1.3427,-1.334,-1.3734,-1.3821,-1.4208,-1.5474,-1.6144,-1.6978,-1.8512,-1.9077,-1.9426,-1.9853,-2.0879,-2.166,-2.1865,-2.2461,-2.2886,-2.3081,-2.3091,-2.3091,-2.3091,-2.3091,-2.3091,-2.3091,-2.3091,-2.3091,-2.3091,-2.3091,-2.3091,-2.3091,-2.3091,-2.3091,-2.3091,-2.3091,-2.3091,-2.3091,-2.3091,-2.3091,-2.3091,-2.3091,-2.3091,-2.3091,-2.3091,-2.3091,-2.3091,-2.3091,-2.3091,-2.3091,-2.3091,-2.3091,-2.3091,-2.3091,-2.3091,-2.3091,-2.3091,-2.3091,-2.3091,-2.3091,-2.3091,-2.3091,-2.3091,-2.3091,-2.3091,-2.3091,-2.3091,-2.3091,-2.3091,-2.3091,-2.3091,-2.3091,-2.3091,-2.3091,-2.3091,-2.3091,-2.3091,-2.3091,-2.3091,-2.3091,-2.3091,-2.3091,-2.3091,-2.3091,-2.3091,-2.3091,-2.3091,-2.3091,-2.3091,-2.3091,-2.3091,-2.3091,-2.3091,-2.3091,-2.3091,-2.3091,-2.3091,-2.3091,-2.3091,-2.4723,-2.5336,-2.4787,-2.5817,-2.6614,-2.7209,-2.6614,-2.6953,-1.2756,-1.2905,-1.2925,-1.3023,-1.3389,-1.3679,-1.3529,-1.3584,-1.3782,-1.4299,-1.4406,-1.4754,-1.594,-1.7153,-1.8396,-1.9689,-1.9902,-1.999,-2.0195,-2.1182,-2.1924,-2.2021,-2.2685,-2.3091,-2.3091,-2.3091,-2.3091,-2.3091,-2.3091,-2.3091,-2.3091,-2.3091,-2.3091,-2.3091,-2.3091,-2.3091,-2.3091,-2.3091,-2.3091,-2.3091,-2.3091,-2.3091,-2.3091,-2.3091,-2.3091,-2.3091,-2.3091,-2.3091,-2.3091,-2.3091,-2.3091,-2.3091,-2.3091,-2.3091,-2.3091,-2.3091,-2.3091,-2.3091,-2.3091,-2.3091,-2.3091,-2.3091,-2.3091,-2.3091,-2.3091,-2.3091,-2.3091,-2.3091,-2.3091,-2.3091,-2.3091,-2.3091,-2.3091,-2.3091,-2.3091,-2.3091,-2.3091,-2.3091,-2.3091,-2.3091,-2.3091,-2.3091,-2.3091,-2.3091,-2.3091,-2.3091,-2.3091,-2.3091,-2.3091,-2.3091,-2.3091,-2.3091,-2.3091,-2.3091,-2.3091,-2.3091,-2.3091,-2.3091,-2.3091,-2.3091,-2.3091,-2.3091,-2.3091,-2.3091,-2.4211,-2.466,-2.4414,-2.466,-2.5252,-2.6099,-2.521,-2.542,-1.2661,-1.2905,-1.2993,-1.3359,-1.3482,-1.3518,-1.3496,-1.3782,-1.4289,-1.5118,-1.5322,-1.593,-1.7989,-1.9117,-1.9761,-1.9881,-1.9911,-2.0167,-2.0986,-2.1562,-2.2031,-2.2422,-2.2818,-2.3091,-2.3091,-2.3091,-2.3091,-2.3091,-2.3091,-2.3091,-2.3091,-2.3091,-2.3091,-2.3091,-2.3091,-2.3091,-2.3091,-2.3091,-2.3091,-2.3091,-2.3091,-2.3091,-2.3091,-2.3091,-2.3091,-2.3091,-2.3091,-2.3091,-2.3091,-2.3091,-2.3091,-2.3091,-2.3091,-2.3091,-2.3091,-2.3091,-2.3091,-2.3091,-2.3091,-2.3091,-2.3091,-2.3091,-2.3091,-2.3091,-2.3091,-2.3091,-2.3091,-2.3091,-2.3091,-2.3091,-2.3091,-2.3091,-2.3091,-2.3091,-2.3091,-2.3091,-2.3091,-2.3091,-2.3091,-2.3091,-2.3091,-2.3091,-2.3091,-2.3091,-2.3091,-2.3091,-2.3091,-2.3091,-2.3091,-2.3091,-2.3091,-2.3091,-2.3091,-2.3091,-2.3091,-2.3091,-2.3091,-2.3091,-2.3091,-2.3091,-2.3091,-2.3091,-2.3091,-2.3091,-2.4211,-2.4296,-2.3222,-2.4286,-2.483,-2.4914,-2.483,-2.542,-1.2661,-1.2905,-1.3013,-1.3408,-1.3906,-1.4307,-1.4307,-1.4629,-1.5069,-1.5723,-1.6035,-1.6637,-1.7988,-1.9143,-1.9889,-1.9891,-2.0333,-2.081,-2.1151,-2.1836,-2.2334,-2.249,-2.2838,-2.3091,-2.3091,-2.3091,-2.3091,-2.3091,-2.3091,-2.3091,-2.3091,-2.3091,-2.3091,-2.3091,-2.3091,-2.3091,-2.3091,-2.3091,-2.3091,-2.3091,-2.3091,-2.3091,-2.3091,-2.3091,-2.3091,-2.3091,-2.3091,-2.3091,-2.3091,-2.3091,-2.3091,-2.3091,-2.3091,-2.3091,-2.3091,-2.3091,-2.3091,-2.3091,-2.3091,-2.3091,-2.3091,-2.3091,-2.3091,-2.3091,-2.3091,-2.3091,-2.3091,-2.3091,-2.3091,-2.3091,-2.3091,-2.3091,-2.3091,-2.3091,-2.3091,-2.3091,-2.3091,-2.3091,-2.3091,-2.3091,-2.3091,-2.3091,-2.3091,-2.3091,-2.3091,-2.3091,-2.3091,-2.3091,-2.3091,-2.3091,-2.3091,-2.3091,-2.3091,-2.3091,-2.3091,-2.3091,-2.3091,-2.3091,-2.3091,-2.3091,-2.3091,-2.3091,-2.3091,-2.3091,-2.3507,-2.3507,-2.3091,-2.3551,-2.3757,-2.3757,-2.3757,-2.3973,-1.2661,-1.3003,-1.3184,-1.3603,-1.4248,-1.4882,-1.5155,-1.5518,-1.5957,-1.6418,-1.6934,-1.7564,-1.8457,-1.9326,-2.001,-2.0283,-2.08,-2.1288,-2.1561,-2.2139,-2.2568,-2.2652,-2.2916,-2.3091,-2.3091,-2.3091,-2.3091,-2.3091,-2.3091,-2.3091,-2.3091,-2.3091,-2.3091,-2.3091,-2.3091,-2.3091,-2.3091,-2.3091,-2.3091,-2.3091,-2.3091,-2.3091,-2.3091,-2.3091,-2.3091,-2.3091,-2.3091,-2.3091,-2.3091,-2.3091,-2.3091,-2.3091,-2.3091,-2.3091,-2.3091,-2.3091,-2.3091,-2.3091,-2.3091,-2.3091,-2.3091,-2.3091,-2.3091,-2.3091,-2.3091,-2.3091,-2.3091,-2.3091,-2.3091,-2.3091,-2.3091,-2.3091,-2.3091,-2.3091,-2.3091,-2.3091,-2.3091,-2.3091,-2.3091,-2.3091,-2.3091,-2.3091,-2.3091,-2.3091,-2.3091,-2.3091,-2.3091,-2.3091,-2.3091,-2.3091,-2.3091,-2.3091,-2.3091,-2.3091,-2.3091,-2.3091,-2.3091,-2.3091,-2.3091,-2.3091,-2.3091,-2.3091,-2.3091,-2.3091,-2.3091,-2.3091,-2.3091,-2.3091,-2.3091,-2.3091,-2.3091,-2.3091,-1.2661,-1.3184,-1.3578,-1.3997,-1.4463,-1.5019,-1.5909,-1.6416,-1.6833,-1.7314,-1.8066,-1.887,-1.9756,-1.9922,-2.0215,-2.1054,-2.12,-2.1502,-2.2393,-2.2519,-2.2676,-2.3042,-2.3091,-2.3091,-2.3091,-2.3091,-2.3091,-2.3091,-2.3091,-2.3091,-2.3091,-2.3091,-2.3091,-2.3091,-2.3091,-2.3091,-2.3091,-2.3091,-2.3091,-2.3091,-2.3091,-2.3091,-2.3091,-2.3091,-2.3091,-2.3091,-2.3091,-2.3091,-2.3091,-2.3091,-2.3091,-2.3091,-2.3091,-2.3091,-2.3091,-2.3091,-2.3091,-2.3091,-2.3091,-2.3091,-2.3091,-2.3091,-2.3091,-2.3091,-2.3091,-2.3091,-2.3091,-2.3091,-2.3091,-2.3091,-2.3091,-2.3091,-2.3091,-2.3091,-2.3091,-2.3091,-2.3091,-2.3091,-2.3091,-2.3091,-2.3091,-2.3091,-2.3091,-2.3091,-2.3091,-2.3091,-2.3091,-2.3091,-2.3091,-2.3091,-2.3091,-2.3091,-2.3091,-2.3091,-2.3091,-2.3091,-2.3091,-2.3091,-2.3091,-2.3091,-2.3091,-2.3091,-2.3091,-2.3091,-2.3091,-2.3091,-2.3091,-2.3091,-2.3091,-2.3091,-2.3091,-2.3091,-1.2661,-1.2993,-1.3242,-1.3929,-1.4687,-1.5459,-1.6338,-1.6875,-1.748,-1.8516,-1.915,-1.9572,-1.9863,-2.0381,-2.0888,-2.1151,-2.1697,-2.2217,-2.248,-2.2721,-2.2955,-2.3081,-2.3091,-2.3091,-2.3091,-2.3091,-2.3091,-2.3091,-2.3091,-2.3091,-2.3091,-2.3091,-2.3091,-2.3091,-2.3091,-2.3091,-2.3091,-2.3091,-2.3091,-2.3091,-2.3091,-2.3091,-2.3091,-2.3091,-2.3091,-2.3091,-2.3091,-2.3091,-2.3091,-2.3091,-2.3091,-2.3091,-2.3091,-2.3091,-2.3091,-2.3091,-2.3091,-2.3091,-2.3091,-2.3091,-2.3091,-2.3091,-2.3091,-2.3091,-2.3091,-2.3091,-2.3091,-2.3091,-2.3091,-2.3091,-2.3091,-2.3091,-2.3091,-2.3091,-2.3091,-2.3091,-2.3091,-2.3091,-2.3091,-2.3091,-2.3091,-2.3091,-2.3091,-2.3091,-2.3091,-2.3091,-2.3091,-2.3091,-2.3091,-2.3091,-2.3091,-2.3091,-2.3091,-2.3091,-2.3091,-2.3091,-2.3091,-2.3091,-2.3091,-2.3091,-2.3091,-2.3091,-2.3091,-2.3091,-2.3091,-2.3091,-2.3091,-2.3091,-2.3091,-2.3091,-2.3091,-2.3091,-1.2661,-1.3023,-1.3291,-1.3938,-1.4747,-1.5771,-1.7135,-1.7652,-1.8154,-1.9092,-1.9619,-2.0019,-2.0333,-2.0839,-2.1307,-2.1648,-2.2178,-2.2568,-2.2744,-2.2935,-2.3091,-2.3091,-2.3091,-2.3091,-2.3091,-2.3091,-2.3091,-2.3091,-2.3091,-2.3091,-2.3091,-2.3091,-2.3091,-2.3091,-2.3091,-2.3091,-2.3091,-2.3091,-2.3091,-2.3091,-2.3091,-2.3091,-2.3091,-2.3091,-2.3091,-2.3091,-2.3091,-2.3091,-2.3091,-2.3091,-2.3091,-2.3091,-2.3091,-2.3091,-2.3091,-2.3091,-2.3091,-2.3091,-2.3091,-2.3091,-2.3091,-2.3091,-2.3091,-2.3091,-2.3091,-2.3091,-2.3091,-2.3091,-2.3091,-2.3091,-2.3091,-2.3091,-2.3091,-2.3091,-2.3091,-2.3091,-2.3091,-2.3091,-2.3091,-2.3091,-2.3091,-2.3091,-2.3091,-2.3091,-2.3091,-2.3091,-2.3091,-2.3091,-2.3091,-2.3091,-2.3091,-2.3091,-2.3091,-2.3091,-2.3091,-2.3091,-2.3091,-2.3091,-2.3091,-2.3091,-2.3091,-2.3091,-2.3091,-2.3091,-2.3091,-2.3091,-2.3091,-2.3091,-2.3091,-2.3091,-2.3091,-2.3091,-1.2661,-1.3164,-1.3555,-1.3997,-1.4806,-1.6034,-1.8081,-1.8607,-1.8792,-1.9307,-1.9707,-2.0234,-2.1044,-2.122,-2.1522,-2.2383,-2.2549,-2.2705,-2.3042,-2.3091,-2.3091,-2.3091,-2.3091,-2.3091,-2.3091,-2.3091,-2.3091,-2.3091,-2.3091,-2.3091,-2.3091,-2.3091,-2.3091,-2.3091,-2.3091,-2.3091,-2.3091,-2.3091,-2.3091,-2.3091,-2.3003,-2.3003,-2.3091,-2.3091,-2.3091,-2.3091,-2.3091,-2.3091,-2.3091,-2.3091,-2.3091,-2.3091,-2.3091,-2.3091,-2.3091,-2.3091,-2.3091,-2.3091,-2.3091,-2.3091,-2.3091,-2.3091,-2.3091,-2.3091,-2.3091,-2.3091,-2.3091,-2.3091,-2.3091,-2.3091,-2.3091,-2.3091,-2.3091,-2.3091,-2.3091,-2.3091,-2.3091,-2.3091,-2.3091,-2.3091,-2.3091,-2.3091,-2.3091,-2.3091,-2.3091,-2.3091,-2.3091,-2.3091,-2.3091,-2.3091,-2.3091,-2.3091,-2.3091,-2.3091,-2.3091,-2.3091,-2.3091,-2.3091,-2.3091,-2.3091,-2.3091,-2.3091,-2.3091,-2.3091,-2.3091,-2.3091,-2.3091,-2.3091,-2.3091,-2.3091,-2.3091,-2.3091,-1.2661,-1.2949,-1.3193,-1.3919,-1.5274,-1.6716,-1.7891,-1.8662,-1.9365,-2.0175,-2.04,-2.0596,-2.1093,-2.1514,-2.1914,-2.2432,-2.275,-2.2994,-2.3081,-2.3091,-2.3091,-2.3091,-2.3091,-2.3091,-2.3091,-2.3091,-2.3091,-2.3091,-2.3091,-2.3091,-2.3091,-2.3091,-2.3091,-2.3091,-2.3091,-2.3091,-2.3091,-2.3091,-2.3091,-2.3101,-2.2129,-2.2173,-2.3091,-2.3091,-2.3091,-2.3091,-2.3091,-2.3091,-2.3091,-2.3091,-2.3091,-2.3091,-2.3091,-2.3091,-2.3091,-2.3091,-2.3091,-2.3091,-2.3091,-2.3091,-2.3091,-2.3091,-2.3091,-2.3091,-2.3091,-2.3091,-2.3091,-2.3091,-2.3091,-2.3091,-2.3091,-2.3091,-2.3091,-2.3091,-2.3091,-2.3091,-2.3091,-2.3091,-2.3091,-2.3091,-2.3091,-2.3091,-2.3091,-2.3091,-2.3091,-2.3091,-2.3091,-2.3091,-2.3091,-2.3091,-2.3091,-2.3091,-2.3091,-2.3091,-2.3091,-2.3091,-2.3091,-2.3091,-2.3091,-2.3091,-2.3091,-2.3091,-2.3091,-2.3091,-2.3091,-2.3091,-2.3091,-2.3091,-2.3091,-2.3091,-2.3091,-2.3091,-1.2383,-1.2725,-1.316,-1.418,-1.5566,-1.6931,-1.7812,-1.8672,-1.9473,-2.0117,-2.0458,-2.0801,-2.1426,-2.1738,-2.209,-2.2672,-2.2955,-2.3091,-2.3091,-2.3091,-2.3091,-2.3091,-2.3091,-2.3091,-2.3091,-2.3091,-2.3091,-2.3091,-2.3091,-2.3091,-2.3091,-2.3091,-2.3091,-2.3091,-2.2536,-2.2262,-2.2262,-2.1676,-2.1355,-2.1364,-2.0764,-2.0755,-2.1409,-2.2589,-2.3091,-2.3091,-2.3091,-2.3091,-2.3091,-2.3091,-2.3091,-2.3091,-2.3091,-2.3091,-2.3091,-2.3091,-2.3091,-2.3091,-2.3091,-2.3091,-2.3091,-2.3091,-2.3091,-2.3091,-2.3091,-2.3091,-2.3091,-2.3091,-2.3091,-2.3091,-2.3091,-2.3091,-2.3091,-2.3091,-2.3091,-2.3091,-2.3091,-2.3091,-2.3091,-2.3091,-2.3091,-2.3091,-2.3091,-2.3091,-2.3091,-2.3091,-2.3091,-2.3091,-2.3091,-2.3091,-2.3091,-2.3091,-2.3091,-2.3091,-2.3091,-2.3091,-2.3091,-2.3091,-2.3091,-2.3091,-2.3091,-2.3091,-2.3091,-2.3091,-2.3091,-2.3091,-2.3091,-2.3091,-2.3091,-2.3091,-2.3091,-2.3091,-1.2086,-1.2656,-1.3369,-1.4529,-1.5762,-1.6902,-1.7725,-1.8623,-1.9385,-1.9736,-2.0215,-2.0879,-2.1728,-2.1885,-2.2158,-2.2955,-2.3091,-2.3091,-2.3091,-2.3091,-2.3091,-2.3091,-2.3091,-2.3091,-2.3091,-2.3091,-2.3091,-2.3091,-2.2916,-2.2775,-2.2775,-2.2589,-2.2501,-2.2501,-2.1525,-2.098,-2.098,-1.9988,-1.9497,-1.9497,-1.9497,-1.9405,-1.9268,-2.1454,-2.2589,-2.2818,-2.3003,-2.3091,-2.3091,-2.3091,-2.3091,-2.3091,-2.3091,-2.3091,-2.3091,-2.3091,-2.3091,-2.3091,-2.3091,-2.3091,-2.3091,-2.3091,-2.3091,-2.3091,-2.3091,-2.3091,-2.3091,-2.3091,-2.3091,-2.3091,-2.3091,-2.3091,-2.3091,-2.3091,-2.3091,-2.3091,-2.3091,-2.3091,-2.3091,-2.3091,-2.3091,-2.3091,-2.3091,-2.3091,-2.3091,-2.3091,-2.3091,-2.3091,-2.3091,-2.3091,-2.3091,-2.3091,-2.3091,-2.3091,-2.3091,-2.3091,-2.3091,-2.3091,-2.3091,-2.3091,-2.3091,-2.3091,-2.3091,-2.3091,-2.3091,-2.3091,-2.3091,-2.3091,-2.3091,-2.3091,-2.3091,-2.3091,-1.2086,-1.3051,-1.4075,-1.4648,-1.5762,-1.6833,-1.7353,-1.8408,-1.9307,-1.9365,-2.0048,-2.0879,-2.1728,-2.1885,-2.2158,-2.2955,-2.3091,-2.3091,-2.3091,-2.3091,-2.3091,-2.3091,-2.3091,-2.3091,-2.3091,-2.3091,-2.3091,-2.3091,-2.212,-2.1525,-2.1525,-2.0531,-1.9988,-1.9988,-1.9807,-1.9716,-1.9716,-1.9579,-1.9497,-1.9497,-1.9497,-1.8948,-1.801,-1.936,-2.0531,-2.1614,-2.2633,-2.3091,-2.3091,-2.3091,-2.3091,-2.3091,-2.3091,-2.3091,-2.3091,-2.3091,-2.3091,-2.3091,-2.3091,-2.3091,-2.3091,-2.3091,-2.3091,-2.3091,-2.3091,-2.3091,-2.3091,-2.3091,-2.3091,-2.3091,-2.3091,-2.3091,-2.3091,-2.3091,-2.3091,-2.3091,-2.3091,-2.3091,-2.3091,-2.3091,-2.3091,-2.3091,-2.3091,-2.3091,-2.3091,-2.3091,-2.3091,-2.3091,-2.3091,-2.3091,-2.3091,-2.3091,-2.3091,-2.3091,-2.3091,-2.3091,-2.3091,-2.3091,-2.3091,-2.3091,-2.3091,-2.3091,-2.3091,-2.3091,-2.3091,-2.3091,-2.3091,-2.3091,-2.3091,-2.3091,-2.3091,-2.3091,-1.2018,-1.2683,-1.3402,-1.4208,-1.5215,-1.6141,-1.6865,-1.7822,-1.8711,-1.9189,-1.9775,-2.0469,-2.1357,-2.1719,-2.209,-2.2685,-2.2945,-2.3091,-2.3091,-2.3091,-2.3091,-2.3091,-2.2492,-2.2076,-2.2076,-2.1489,-2.1087,-2.1087,-2.0576,-2.0305,-2.0305,-1.9807,-1.9497,-1.9497,-1.8818,-1.8503,-1.8503,-1.7755,-1.7436,-1.7436,-1.7436,-1.7163,-1.6669,-1.7902,-1.9131,-2.035,-2.1578,-2.1721,-2.1132,-2.181,-2.2076,-2.2076,-2.2076,-2.2492,-2.3091,-2.3091,-2.3091,-2.3091,-2.3091,-2.3091,-2.3091,-2.3091,-2.3091,-2.3091,-2.3091,-2.3091,-2.3091,-2.3091,-2.3091,-2.3091,-2.3091,-2.3091,-2.3091,-2.3091,-2.3091,-2.3091,-2.3091,-2.3091,-2.3091,-2.3091,-2.3091,-2.3091,-2.3091,-2.3091,-2.3091,-2.3091,-2.3091,-2.3091,-2.3091,-2.3091,-2.3091,-2.3091,-2.3091,-2.3091,-2.3091,-2.3091,-2.3091,-2.3091,-2.3091,-2.3091,-2.3091,-2.3091,-2.3091,-2.3091,-2.3091,-2.3091,-2.3091,-2.3091,-2.3091,-2.3091,-2.3091,-2.3091,-1.1508,-1.1917,-1.2356,-1.3436,-1.4447,-1.537,-1.6179,-1.7236,-1.8193,-1.8828,-1.9192,-1.9602,-2.031,-2.1146,-2.1894,-2.2432,-2.273,-2.2974,-2.3081,-2.3091,-2.3003,-2.2677,-2.1845,-2.1159,-2.089,-2.0034,-1.9497,-1.9497,-1.9222,-1.9039,-1.9039,-1.8718,-1.858,-1.858,-1.7677,-1.7225,-1.7225,-1.6244,-1.5784,-1.5784,-1.5784,-1.5784,-1.5832,-1.6763,-1.7723,-1.8626,-2.0161,-2.035,-1.9588,-2.0486,-2.0845,-2.0845,-2.0845,-2.1391,-2.2227,-2.2545,-2.2633,-2.2677,-2.3003,-2.3091,-2.3091,-2.3091,-2.3091,-2.3091,-2.3091,-2.3091,-2.3091,-2.3091,-2.3091,-2.3091,-2.3091,-2.3091,-2.3091,-2.3091,-2.3091,-2.3091,-2.3091,-2.3091,-2.3091,-2.3091,-2.3091,-2.3091,-2.3091,-2.3091,-2.3091,-2.3091,-2.3091,-2.3091,-2.3091,-2.3091,-2.3091,-2.3091,-2.3091,-2.3091,-2.3091,-2.3091,-2.3091,-2.3091,-2.3091,-2.3091,-2.3091,-2.3091,-2.3091,-2.3091,-2.3091,-2.3091,-2.3091,-2.3091,-2.3091,-2.3091,-2.3091,-2.3091,-1.0299,-1.0779,-1.1319,-1.2322,-1.3524,-1.4638,-1.5313,-1.6787,-1.8018,-1.8066,-1.8045,-1.8088,-1.8391,-1.9967,-2.1502,-2.2373,-2.2529,-2.2643,-2.3042,-2.3091,-2.2677,-2.1525,-2.1337,-2.0845,-1.9716,-1.9542,-1.9497,-1.9497,-1.8457,-1.7777,-1.7777,-1.6669,-1.6015,-1.6015,-1.592,-1.592,-1.592,-1.5832,-1.5784,-1.5784,-1.5784,-1.5784,-1.5784,-1.5872,-1.592,-1.615,-1.8534,-1.9534,-1.9497,-1.9588,-1.9579,-1.9579,-1.9579,-1.9633,-1.9807,-2.098,-2.1382,-2.1569,-2.2677,-2.3091,-2.3091,-2.3091,-2.3091,-2.3091,-2.3091,-2.3091,-2.3091,-2.3091,-2.3091,-2.3091,-2.3091,-2.3091,-2.3091,-2.3091,-2.3091,-2.3091,-2.3091,-2.3091,-2.3091,-2.3091,-2.3091,-2.3091,-2.3091,-2.3091,-2.3091,-2.3091,-2.3091,-2.3091,-2.3091,-2.3091,-2.3091,-2.3091,-2.3091,-2.3091,-2.3091,-2.3091,-2.3091,-2.3091,-2.3091,-2.3091,-2.3091,-2.3091,-2.3091,-2.3091,-2.3091,-2.3091,-2.3091,-2.3091,-2.3091,-2.3091,-2.3091,-2.3091,-0.9706,-0.9963,-1.0282,-1.154,-1.2206,-1.2783,-1.3767,-1.4471,-1.5197,-1.6128,-1.6307,-1.6465,-1.6965,-1.8027,-1.9223,-2.0435,-2.0866,-2.1405,-2.2537,-2.2691,-2.2659,-2.2463,-2.1078,-1.9988,-1.9542,-1.8072,-1.7117,-1.7117,-1.6702,-1.648,-1.648,-1.6062,-1.5784,-1.5784,-1.5784,-1.5784,-1.5784,-1.5784,-1.5784,-1.5784,-1.5784,-1.5784,-1.5784,-1.5784,-1.5784,-1.5825,-1.6749,-1.7117,-1.7203,-1.7994,-1.8319,-1.8319,-1.8319,-1.8818,-1.9534,-1.9988,-2.0124,-2.0215,-2.0629,-2.1311,-2.1933,-2.1933,-2.1933,-2.2076,-2.2862,-2.2536,-2.1933,-2.1933,-2.1933,-2.1933,-2.1933,-2.1933,-2.1933,-2.1933,-2.1355,-2.0809,-2.0809,-2.1996,-2.2862,-2.2076,-2.2589,-2.3091,-2.3091,-2.3091,-2.3091,-2.3091,-2.3091,-2.3091,-2.3091,-2.3091,-2.3091,-2.3091,-2.3091,-2.3091,-2.3091,-2.3091,-2.3091,-2.3091,-2.3091,-2.2765,-2.1987,-2.1933,-2.1578,-2.0809,-2.1534,-2.235,-2.3091,-2.3091,-2.3091,-2.3091,-2.3091,-2.3091,-0.8776,-0.8933,-0.9207,-1.048,-1.0975,-1.1421,-1.2405,-1.2915,-1.3498,-1.4471,-1.4601,-1.4741,-1.5364,-1.5619,-1.6444,-1.8554,-1.9206,-1.9856,-2.1046,-2.1187,-2.1151,-2.1009,-1.9636,-1.8589,-1.8178,-1.6732,-1.5784,-1.5784,-1.5784,-1.5784,-1.5784,-1.5784,-1.5784,-1.5784,-1.5784,-1.5784,-1.5784,-1.5784,-1.5784,-1.5784,-1.5784,-1.5784,-1.5784,-1.5784,-1.5784,-1.5784,-1.5784,-1.5784,-1.5872,-1.6716,-1.7037,-1.7037,-1.7037,-1.7537,-1.8303,-1.8726,-1.891,-1.8948,-1.936,-2.0034,-2.0711,-2.0711,-2.0711,-2.0845,-2.1632,-2.1355,-2.0711,-2.0711,-2.0711,-2.0711,-2.0711,-2.0711,-2.0711,-2.0711,-2.0079,-1.9405,-1.9001,-2.0449,-2.1632,-2.0845,-2.1346,-2.1908,-2.1908,-2.1908,-2.1908,-2.1908,-2.1908,-2.2041,-2.2448,-2.2129,-2.2041,-2.2448,-2.2129,-2.1908,-2.1908,-2.1908,-2.1908,-2.1908,-2.1908,-2.1534,-2.0711,-2.0711,-2.0305,-1.9542,-2.038,-2.1455,-2.272,-2.2984,-2.3169,-2.3315,-2.3315,-2.3393,0.0,0.0,0.0,-0.9131,-0.9909,-1.0601,-1.1278,-1.2305,-1.3089,-1.3122,-1.2972,-1.3014,-1.3524,-1.2894,-1.3407,-1.6797,-1.768,-1.8062,-1.8504,-1.8562,-1.814,-1.6974,-1.7041,-1.6746,-1.5562,-1.5645,-1.5764,-1.5764,-1.5778,-1.5784,-1.5784,-1.5784,-1.5784,-1.5784,-1.5784,-1.5784,-1.5784,-1.5784,-1.5784,-1.5784,-1.5784,-1.5784,-1.5784,-1.5784,-1.5784,-1.5784,-1.5784,-1.5784,-1.5784,-1.5784,-1.5784,-1.5784,-1.5784,-1.5784,-1.5967,-1.7178,-1.7638,-1.7824,-1.8993,-1.9405,-1.9451,-1.9451,-1.9451,-1.9443,-1.9497,-1.9497,-1.9451,-1.9451,-1.9451,-1.9451,-1.9451,-1.9451,-1.9451,-1.9451,-1.9405,-1.9085,-1.7917,-1.8542,-1.9405,-1.9451,-1.9497,-1.9497,-1.9497,-1.9497,-1.9497,-1.9497,-1.9497,-1.9898,-2.1114,-2.0215,-1.9943,-2.1114,-2.0215,-1.9497,-1.9497,-1.9497,-1.9497,-1.9497,-1.9497,-1.9497,-1.9451,-1.9459,-1.9422,-1.9422,-1.972,-2.0564,-2.1951,-2.2704,-2.3344,-2.3809,-2.3809,-2.4033,-0.7404,0.0,0.0,0.0,0.0,0.0,-0.9697,-1.0086,-1.0494,-1.1183,-1.128,-1.1402,-1.1937,-1.2014,-1.2376,-1.3556,-1.5035,-1.6457,-1.7623,-1.8029,-1.8169,-1.8124,-1.7409,-1.6765,-1.6462,-1.5874,-1.5518,0.0,-1.5712,-1.5784,-1.5784,-1.5784,-1.5784,-1.5784,-1.5784,-1.5784,-1.5784,-1.5784,-1.5784,-1.5784,-1.5784,-1.5784,-1.5784,-1.5784,-1.5784,-1.5784,-1.5784,-1.5784,-1.5784,-1.5784,-1.5784,-1.5784,-1.5784,-1.5784,-1.5825,-1.6197,-1.6339,-1.6386,-1.6702,-1.7444,-1.8187,-1.8187,-1.8187,-1.8365,-1.9222,-1.891,-1.8187,-1.8187,-1.8187,-1.8187,-1.8187,-1.8187,-1.8187,-1.8187,-1.749,-1.6749,-1.6386,-1.6567,-1.7117,-1.8002,-1.891,-1.9497,-1.9497,-1.9497,-1.9497,-1.9497,-1.9497,-1.9625,-1.9943,-1.9724,-1.9633,-1.9943,-1.9716,-1.9497,-1.9497,-1.9497,-1.9497,-1.9497,-1.9497,-1.9093,-1.8226,-1.8371,-1.8075,-1.7184,-1.8301,-1.9565,-2.1001,-2.2091,-2.3139,-2.4248,-2.4248,-2.4307,-0.7268,-0.739,-0.7594,-0.7933,0.0,0.0,-0.8798,-0.9038,-0.9357,-0.9907,-1.0137,-1.0405,-1.0955,-1.1243,-1.1491,-1.187,-1.3024,-1.4304,-1.5538,-1.5871,-1.6124,-1.6454,-1.6026,-1.5742,-1.582,-1.5473,-1.5217,-1.5217,-1.5484,-1.5705,-1.5771,-1.5784,-1.5784,-1.5784,-1.5784,-1.5784,-1.5784,-1.5784,-1.5784,-1.5784,-1.5784,-1.5784,-1.5784,-1.5784,-1.5784,-1.5784,-1.5784,-1.5784,-1.5784,-1.5784,-1.5784,-1.5784,-1.5784,-1.5784,-1.5784,-1.5784,-1.5784,-1.5784,-1.5784,-1.6298,-1.6897,-1.6897,-1.6897,-1.7037,-1.7762,-1.749,-1.6897,-1.6897,-1.6897,-1.6897,-1.6897,-1.6897,-1.6897,-1.6897,-1.6339,-1.5784,-1.5784,-1.5784,-1.6015,-1.6756,-1.749,-1.794,-1.794,-1.794,-1.794,-1.794,-1.794,-1.8172,-1.868,-1.8311,-1.8172,-1.868,-1.8265,-1.794,-1.794,-1.794,-1.8001,-1.8138,-1.8145,-1.7891,-1.733,-1.7412,-1.7176,-1.6502,-1.7477,-1.8675,-2.0184,-2.17,-2.3167,-2.4697,-2.4873,-2.4923,-0.7141,-0.7241,-0.745,-0.7484,-0.7899,0.0,-0.8382,-0.8778,-0.9131,-0.9198,-0.9452,-0.9836,-1.0392,-1.0492,-1.0673,-1.1156,-1.153,-1.2087,-1.2979,-1.314,-1.3267,-1.352,-1.3828,-1.4102,-1.4352,-1.4689,-1.4921,-1.4955,-1.5211,-1.5504,-1.5718,-1.5764,-1.5784,-1.5784,-1.5784,-1.5784,-1.5784,-1.5784,-1.5784,-1.5784,-1.5784,-1.5784,-1.5784,-1.5784,-1.5784,-1.5784,-1.5784,-1.5784,-1.5784,-1.5784,-1.5784,-1.5784,-1.5784,-1.5784,-1.5784,-1.5784,-1.5784,-1.5784,-1.5784,-1.5784,-1.5784,-1.5784,-1.5784,-1.5784,-1.5784,-1.5784,-1.5784,-1.5784,-1.5784,-1.5784,-1.5784,-1.5784,-1.5784,-1.5784,-1.5784,-1.5784,-1.5784,-1.5784,-1.5784,-1.5784,-1.5784,-1.5784,-1.5784,-1.5784,-1.5784,-1.5784,-1.5784,-1.6204,-1.7365,-1.648,-1.6251,-1.7365,-1.648,-1.5798,-1.5831,-1.5879,-1.6005,-1.6299,-1.6319,-1.6433,-1.6693,-1.674,-1.6754,-1.6754,-1.7194,-1.818,-1.9627,-2.1603,-2.3303,-2.4746,-2.5402,-2.5538,-0.7417,-0.7248,-0.7168,-0.743,-0.7578,0.0,-0.8288,-0.8489,-0.8677,-0.9118,-0.9257,-0.9404,-0.9816,-0.9883,-0.9967,-1.0283,-1.0621,-1.1243,-1.2325,-1.2723,-1.2991,-1.326,-1.3347,-1.3494,-1.3746,-1.4088,-1.4355,-1.4589,-1.5097,-1.5424,-1.5478,-1.5705,-1.5784,-1.5784,-1.5784,-1.5784,-1.5784,-1.5784,-1.5784,-1.5784,-1.5784,-1.5784,-1.5784,-1.5784,-1.5784,-1.5784,-1.5784,-1.5784,-1.5784,-1.5784,-1.5784,-1.5784,-1.5784,-1.5784,-1.5784,-1.5784,-1.5784,-1.5784,-1.5784,-1.5784,-1.5784,-1.5784,-1.5784,-1.5784,-1.5784,-1.5784,-1.5784,-1.5784,-1.5784,-1.5784,-1.5784,-1.5784,-1.5784,-1.5784,-1.5784,-1.5784,-1.5784,-1.5784,-1.5784,-1.5784,-1.5784,-1.5784,-1.5784,-1.5784,-1.5784,-1.5784,-1.5784,-1.5872,-1.6157,-1.5967,-1.592,-1.6157,-1.5967,-1.5925,-1.6166,-1.6186,-1.6313,-1.6607,-1.662,-1.6647,-1.67,-1.6934,-1.7112,-1.7112,-1.8466,-1.931,-1.9627,-2.2171,-2.309,-2.2405,-2.4669,-2.4559,-0.7776,-0.7475,-0.7281,-0.745,-0.7513,0.0,0.0,-0.8067,-0.8237,-0.8505,-0.8678,-0.8898,-0.9192,-0.9365,-0.9559,-0.9853,-1.0027,-1.0412,-1.1109,-1.1717,-1.2204,-1.2505,-1.2672,-1.2872,-1.3166,-1.3474,-1.3828,-1.4269,-1.471,-1.5084,-1.5384,-1.5531,-1.5678,-1.5778,-1.5784,-1.5784,-1.5784,-1.5784,-1.5784,-1.5784,-1.5784,-1.5784,-1.5784,-1.5784,-1.5784,-1.5784,-1.5784,-1.5784,-1.5784,-1.5784,-1.5784,-1.5784,-1.5784,-1.5784,-1.5784,-1.5784,-1.5784,-1.5784,-1.5784,-1.5784,-1.5784,-1.5784,-1.5784,-1.5784,-1.5784,-1.5784,-1.5784,-1.5784,-1.5784,-1.5784,-1.5784,-1.5784,-1.5784,-1.5784,-1.5784,-1.5784,-1.5784,-1.5784,-1.5784,-1.5784,-1.5784,-1.5784,-1.5784,-1.5784,-1.5784,-1.5784,-1.5784,-1.5784,-1.5784,-1.5784,-1.5838,-1.6039,-1.6052,-1.6166,-1.6466,-1.6486,-1.6613,-1.6907,-1.6927,-1.6994,-1.7134,-1.7281,-1.742,-1.742,-1.8175,-1.861,-1.861,-2.0641,-2.1651,-2.1752,-2.3076,-2.2968,-0.8139,-0.7789,-0.7578,-0.7578,-0.7578,-0.7591,0.0,0.0,0.0,-0.7979,-0.8163,-0.8402,-0.8671,-0.8891,-0.9084,-0.9266,-0.9452,-0.9619,-0.9657,-1.047,0.0,-1.1611,-1.1924,-1.2225,-1.2502,-1.2872,-1.3367,-1.3961,-1.4269,-1.4669,-1.5197,-1.5337,-1.5504,-1.5738,-1.5751,-1.5784,-1.5784,-1.5784,-1.5784,-1.5784,-1.5784,-1.5784,-1.5784,-1.5784,-1.5784,-1.5784,-1.5784,-1.5784,-1.5784,-1.5784,-1.5784,-1.5784,-1.5784,-1.5784,-1.5784,-1.5784,-1.5784,-1.5784,-1.5784,-1.5784,-1.5784,-1.5784,-1.5784,-1.5784,-1.5784,-1.5784,-1.5784,-1.5784,-1.5784,-1.5784,-1.5784,-1.5784,-1.5784,-1.5784,-1.5784,-1.5784,-1.5784,-1.5784,-1.5784,-1.5784,-1.5784,-1.5784,-1.5784,-1.5784,-1.5784,-1.5784,-1.5784,-1.5784,-1.5784,-1.5879,-1.6005,-1.6246,-1.6375,-1.6473,-1.6767,-1.6794,-1.6914,-1.7266,-1.7286,-1.7387,-1.7569,-1.7582,-1.7582,-1.7582,-1.7582,-1.7582,-1.7582,-1.8708,-1.9775,-2.0939,-2.144,-2.1448,-0.8435,-0.8103,-0.7852,-0.7852,-0.7852,-0.7925,-0.8234,0.0,-0.7979,-0.827,0.0,-0.8045,-0.8395,0.0,0.0,-0.7826,-0.8604,-0.9004,-0.8258,-0.9158,-1.0117,-1.0673,-1.1189,-1.1502,-1.157,-1.2355,-1.3085,-1.3606,-1.3968,-1.4282,-1.4603,-1.5117,-1.5411,-1.5444,-1.5698,-1.5784,-1.5784,-1.5784,-1.5784,-1.5784,-1.5784,-1.5784,-1.5784,-1.5784,-1.5784,-1.5784,-1.5784,-1.5784,-1.5784,-1.5784,-1.5784,-1.5784,-1.5784,-1.5784,-1.5784,-1.5784,-1.5784,-1.5784,-1.5784,-1.5784,-1.5784,-1.5784,-1.5784,-1.5784,-1.5784,-1.5784,-1.5784,-1.5784,-1.5784,-1.5784,-1.5784,-1.5784,-1.5784,-1.5784,-1.5784,-1.5784,-1.5784,-1.5784,-1.5784,-1.5784,-1.5784,-1.5784,-1.5784,-1.5784,-1.5784,-1.5784,-1.5784,-1.5784,-1.5784,-1.6059,-1.6239,-1.6321,-1.6506,-1.678,-1.7125,-1.7146,-1.7273,-1.7515,-1.7528,-1.7549,-1.7582,-1.7582,-1.7582,-1.7582,-1.7582,-1.7582,-1.7582,-1.7733,-1.7891,-1.8146,-2.0582,-2.0377,-0.9045,-0.8638,-0.8372,-0.823,-0.8039,-0.7939,-0.809,-0.7999,-0.7892,-0.7879,0.0,0.0,0.0,0.0,0.0,0.0,-0.8132,0.0,0.0,0.0,-0.9392,0.0,0.0,0.0,-1.1142,-1.1971,-1.2592,-1.2846,-1.3427,-1.3955,-1.4255,-1.4663,-1.5044,-1.5384,-1.5518,-1.5658,-1.5784,-1.5784,-1.5784,-1.5784,-1.5784,-1.5784,-1.5784,-1.5784,-1.5784,-1.5784,-1.5784,-1.5784,-1.5784,-1.5784,-1.5784,-1.5784,-1.5784,-1.5784,-1.5784,-1.5784,-1.5784,-1.5784,-1.5784,-1.5784,-1.5784,-1.5784,-1.5784,-1.5784,-1.5784,-1.5784,-1.5784,-1.5784,-1.5784,-1.5784,-1.5784,-1.5784,-1.5784,-1.5784,-1.5784,-1.5784,-1.5784,-1.5784,-1.5784,-1.5784,-1.5784,-1.5838,-1.6059,-1.5945,-1.5784,-1.5784,-1.5979,-1.6086,-1.6086,-1.6346,-1.6593,-1.6811,-1.6938,-1.7132,-1.7427,-1.7454,-1.7507,-1.7575,-1.7582,-1.7582,-1.7582,-1.7582,-1.7582,-1.7582,-1.7582,-1.7582,-1.7582,-1.7582,-1.7582,-1.7635,-1.8805,-1.8708,-0.967,-0.9297,-0.9078,-0.8704,-0.8425,-0.8245,-0.8165,-0.8085,-0.7963,-0.7678,-0.7702,0.0,0.0,0.0,0.0,0.0,0.0,-0.7819,0.0,-0.8119,0.0,0.0,0.0,0.0,0.0,-1.145,-1.1957,-1.2278,0.0,-1.344,-1.3941,-1.4242,-1.4669,-1.5257,-1.5357,-1.5538,-1.5778,-1.5784,-1.5784,-1.5784,-1.5784,-1.5784,-1.5784,-1.5784,-1.5784,-1.5784,-1.5784,-1.5784,-1.5784,-1.5784,-1.5784,-1.5784,-1.5784,-1.5784,-1.5784,-1.5784,-1.5784,-1.5784,-1.5784,-1.5784,-1.5784,-1.5784,-1.5784,-1.5784,-1.5784,-1.5784,-1.5784,-1.5784,-1.5784,-1.5784,-1.5784,-1.5784,-1.5784,-1.5784,-1.5784,-1.5784,-1.5784,-1.5784,-1.5804,-1.5939,-1.5952,-1.6046,-1.6339,-1.6146,-1.5979,-1.6059,-1.6253,-1.6393,-1.6393,-1.6647,-1.6907,-1.7179,-1.7273,-1.7407,-1.7562,-1.7582,-1.7582,-1.7582,-1.7582,-1.7582,-1.7582,-1.7582,-1.7582,-1.7582,-1.7582,-1.7582,-1.7582,-1.7582,-1.7582,-1.7582,-1.7582,-1.7582,-1.0254,-1.005,-0.9903,-0.9331,-0.9178,-0.9098,-0.8844,-0.8564,-0.8301,-0.7952,-0.7682,-0.7497,0.0,0.0,0.0,0.0,0.0,0.0,0.0,0.0,0.0,0.0,0.0,0.0,0.0,0.0,0.0,0.0,-1.2325,0.0,-1.3573,-1.3941,-1.4369,-1.5001,-1.5251,-1.5538,-1.5778,-1.5784,-1.5784,-1.5784,-1.5784,-1.5784,-1.5784,-1.5784,-1.5784,-1.5784,-1.5784,-1.5784,-1.5784,-1.5784,-1.5784,-1.5784,-1.5784,-1.5784,-1.5784,-1.5784,-1.5784,-1.5784,-1.5784,-1.5784,-1.5784,-1.5784,-1.5784,-1.5784,-1.5784,-1.5784,-1.5784,-1.5784,-1.5784,-1.5784,-1.5784,-1.5784,-1.5784,-1.5784,-1.5784,-1.5784,-1.5784,-1.5784,-1.5912,-1.6206,-1.6259,-1.6353,-1.664,-1.6446,-1.6353,-1.6633,-1.6687,-1.6693,-1.6693,-1.6998,-1.7192,-1.7199,-1.7454,-1.7569,-1.7582,-1.7582,-1.7582,-1.7582,-1.7582,-1.7582,-1.7582,-1.7582,-1.7582,-1.7582,-1.7582,-1.7582,-1.7582,-1.7582,-1.7582,-1.7582,-1.7582,-1.7582,0.0,-1.0842,-1.0555,-0.9937,-0.979,-0.9664,-0.9178,-0.8991,-0.8811,-0.8323,-0.8167,-0.8033,0.0,0.0,0.0,0.0,0.0,0.0,0.0,0.0,0.0,0.0,0.0,0.0,0.0,0.0,0.0,0.0,0.0,0.0,0.0,-1.3593,-1.4062,-1.4656,-1.4957,-1.5251,-1.5538,-1.5732,-1.5784,-1.5784,-1.5784,-1.5784,-1.5784,-1.5784,-1.5784,-1.5784,-1.5784,-1.5784,-1.5784,-1.5784,-1.5784,-1.5784,-1.5784,-1.5784,-1.5784,-1.5784,-1.5784,-1.5784,-1.5784,-1.5784,-1.5784,-1.5784,-1.5784,-1.5784,-1.5784,-1.5784,-1.5784,-1.5784,-1.5784,-1.5784,-1.5784,-1.5784,-1.5784,-1.5784,-1.5784,-1.5838,-1.6079,-1.6119,-1.6206,-1.6506,-1.656,-1.6653,-1.6998,-1.6971,-1.6871,-1.672,-1.6874,-1.7052,-1.7052,-1.7255,-1.7435,-1.7435,-1.7522,-1.7582,-1.7582,-1.7582,-1.7582,-1.7582,-1.7582,-1.7582,-1.7582,-1.7582,-1.7582,-1.7582,-1.7582,-1.7582,-1.7582,-1.7582,-1.7582,-1.7582,-1.7582,-1.7582,-1.2031,-1.1677,0.0,-1.0696,-1.0508,-1.0274,-0.9657,-0.9524,-0.9357,-0.8804,-0.8604,0.0,0.0,0.0,0.0,0.0,0.0,0.0,0.0,-0.7188,0.0,0.0,0.0,0.0,0.0,0.0,0.0,0.0,0.0,0.0,0.0,0.0,-1.372,-1.4349,-1.48,-1.5149,-1.5391,-1.5685,-1.5784,-1.5784,-1.5784,-1.5784,-1.5784,-1.5784,-1.5784,-1.5784,-1.5784,-1.5784,-1.5784,-1.5784,-1.5784,-1.5784,-1.5784,-1.5784,-1.5784,-1.5784,-1.5784,-1.5784,-1.5784,-1.5784,-1.5784,-1.5784,-1.5784,-1.5784,-1.5784,-1.5784,-1.5784,-1.5784,-1.5784,-1.5784,-1.5784,-1.5905,-1.5985,-1.5985,-1.6066,-1.6192,-1.6386,-1.6426,-1.6513,-1.6807,-1.6867,-1.6954,-1.7306,-1.7353,-1.7293,-1.7048,-1.7181,-1.7353,-1.7353,-1.7468,-1.7582,-1.7582,-1.7582,-1.7582,-1.7582,-1.7582,-1.7582,-1.7582,-1.7582,-1.7582,-1.7582,-1.7582,-1.7582,-1.7582,-1.7582,-1.7582,-1.7582,-1.7582,-1.7582,-1.7589,-1.7695,-1.7749]},{"header":{"parameterUnit":"m.s-1","parameterCategory":1,"la1":30.6,"la2":29.2853,"lo1":-89.7004,"lo2":-87.6739,"dx":0.0162,"dy":0.0183,"nx":112,"ny":82,"refTime":"2022-11-29T06:00:00:Z","depth":0,"parameterNumber":3,"parameterNumberName":"V-component_of_WINDS"},"data":[0.0,0.0,0.0,0.0,0.0,0.0,0.0,0.0,0.0,0.0,0.0,0.0,0.0,0.0,0.0,0.0,0.0,0.0,0.0,0.0,0.0,0.0,0.0,0.0,0.0,0.0,0.0,0.0,0.0,0.0,0.0,0.0,0.0,0.0,0.0,0.0,0.0,0.0,0.0,0.0,0.0,0.0,0.0,0.0,0.0,0.0,0.0,0.0,0.0,0.0,0.0,0.0,0.0,0.0,0.0,0.0,0.0,0.0,0.0,0.0,0.0,0.0,0.0,0.0,0.0,0.0,0.0,0.0,0.0,0.0,0.0,0.0,0.0,0.0,0.0,0.0,0.0,0.0,0.0,0.0,0.0,0.0,0.0,0.0,0.0,0.0,0.0,0.0,0.0,0.0,1.0753,1.1889,1.2724,1.301,1.2563,1.2027,1.1475,1.0883,0.0,0.0,0.0,0.0,0.0,0.0,0.0,0.0,0.0,0.0,0.0,0.0,0.0,0.0,0.0,0.0,0.0,0.0,0.0,0.0,0.0,0.0,0.0,0.0,0.0,0.0,0.0,0.0,0.0,0.0,0.0,0.0,0.0,0.0,0.0,0.0,0.0,0.0,0.0,0.0,0.0,0.0,0.0,0.0,0.0,0.0,0.0,0.0,0.0,0.0,0.0,0.0,0.0,0.0,0.0,0.0,0.0,0.0,0.0,0.0,0.0,0.0,0.0,0.0,0.0,0.0,0.0,0.0,0.0,0.0,0.0,0.0,0.0,0.0,0.0,0.0,0.0,0.0,0.0,0.0,0.0,0.0,0.0,0.0,0.0,0.0,0.0,0.0,0.0,0.0,0.0,0.0,0.0,0.0,0.0,0.0,0.0,0.0,0.0,0.0,0.0,0.0,0.0,0.0,1.1415,1.2846,1.3113,1.3173,1.3085,1.2588,1.2052,1.1487,0.0,0.0,0.0,0.0,0.0,0.0,0.0,0.0,0.0,0.0,0.0,0.0,0.0,0.0,0.0,0.0,0.0,0.0,0.0,0.0,0.0,0.0,0.0,0.0,0.0,0.0,0.0,0.0,0.0,0.0,0.0,0.0,0.0,0.0,0.0,0.0,0.0,0.0,0.0,0.0,0.0,0.0,0.0,0.0,0.0,0.0,0.0,0.0,0.0,0.0,0.0,0.0,0.0,0.0,0.0,0.0,0.0,0.0,0.0,0.0,0.0,0.0,0.0,0.0,0.0,0.0,0.0,0.0,0.0,0.0,0.0,0.0,0.0,0.0,0.0,0.0,0.0,0.0,0.0,0.0,0.0,0.0,0.0,0.0,0.0,0.0,0.0,0.0,0.0,0.0,0.0,0.0,0.0,0.0,0.0,0.0,0.0,0.0,0.0,0.0,0.0,0.0,0.0,1.1837,1.244,1.3131,1.3198,1.3198,1.3198,1.2714,1.2178,1.164,0.9793,0.0,0.0,0.0,0.0,0.0,0.0,0.0,0.0,0.0,0.0,0.0,0.0,0.0,0.0,0.0,0.0,0.0,0.0,0.0,0.0,0.0,0.0,0.0,0.0,0.0,0.0,0.0,0.0,0.0,0.0,0.0,0.0,0.0,0.0,0.0,0.0,0.0,0.0,0.0,0.0,0.0,0.0,0.0,0.0,0.0,0.0,0.0,0.0,0.0,0.0,0.0,0.0,0.0,0.0,0.0,0.0,0.0,0.0,0.0,0.0,0.0,0.0,0.0,0.0,0.0,0.0,0.0,0.0,0.0,0.0,0.0,0.0,0.0,0.0,0.0,0.0,0.0,0.0,0.0,0.0,0.0,0.0,0.0,0.0,0.0,0.0,0.0,0.0,0.0,0.0,0.0,0.0,0.0,0.0,0.0,0.0,0.0,0.0,0.0,0.0,0.0,0.0,1.2667,1.3403,1.3403,1.3529,1.3554,1.3416,1.3044,1.247,1.1653,1.027,0.0,0.0,0.0,0.0,0.0,0.0,0.0,0.0,0.0,0.0,0.0,0.0,0.0,0.0,0.0,0.0,0.0,0.0,0.0,0.0,0.0,0.0,0.0,0.0,0.0,0.0,0.0,0.0,0.0,0.0,0.0,0.0,0.0,0.0,0.0,0.0,0.0,0.0,0.0,0.0,0.0,0.0,0.0,0.0,0.0,0.0,0.0,0.0,0.0,0.0,0.0,0.0,0.0,0.0,0.0,0.0,0.0,0.0,0.0,0.0,0.0,0.0,0.0,0.0,0.0,0.0,0.0,0.0,0.0,0.0,0.0,0.0,0.0,0.0,0.0,0.0,0.0,0.0,0.0,0.0,0.0,0.0,0.0,0.0,0.0,0.0,0.0,0.0,0.0,0.0,0.0,0.0,0.0,0.0,0.0,0.0,0.0,0.0,0.0,0.0,0.0,0.0,1.3028,1.4035,1.4035,1.4488,1.4588,1.4072,1.4002,1.3304,1.1703,1.0958,0.0,0.0,0.0,0.0,0.0,0.0,0.0,0.0,0.0,0.0,0.0,0.0,0.0,0.0,0.0,0.0,0.0,0.0,0.0,0.0,0.0,0.0,0.0,0.0,0.0,0.0,0.0,0.0,0.0,0.0,0.0,0.0,0.0,0.0,0.0,0.0,0.0,0.0,0.0,0.0,0.0,0.0,0.0,0.0,0.0,0.0,0.0,0.0,0.0,0.0,0.0,0.0,0.0,0.0,0.0,0.0,0.0,0.0,0.0,0.0,0.0,0.0,0.0,0.0,0.0,0.0,0.0,0.0,0.0,0.0,0.0,0.0,0.0,0.0,0.0,0.0,0.0,0.0,0.0,0.0,0.0,0.0,0.0,0.0,0.0,0.0,0.0,0.0,0.0,0.0,0.0,0.0,0.0,0.0,0.0,0.0,0.0,0.0,0.0,0.0,0.0,0.0,1.3493,1.4242,1.4563,1.479,1.4828,1.4626,1.4286,1.367,1.2663,0.0,0.0,0.0,0.0,0.0,0.0,0.0,0.0,0.0,0.0,0.0,0.0,0.0,0.0,0.0,0.0,0.0,0.0,0.0,0.0,0.0,0.0,0.0,0.0,0.0,0.0,0.0,0.0,0.0,0.0,0.0,0.0,0.0,0.0,0.0,0.0,0.0,0.0,0.0,0.0,0.0,0.0,0.0,0.0,0.0,0.0,0.0,0.0,0.0,0.0,0.0,0.0,0.0,0.0,0.0,0.0,0.0,0.0,0.0,0.0,0.0,0.0,0.0,0.0,0.0,0.0,0.0,0.0,0.0,0.0,0.0,0.0,0.0,0.0,0.0,0.0,0.0,0.0,0.0,0.0,0.0,0.0,0.0,0.0,0.0,0.0,0.0,0.0,0.0,0.0,0.0,0.0,0.0,0.0,0.0,0.0,0.0,0.0,0.0,0.0,0.0,0.0,1.3073,1.4011,1.4752,1.511,1.5311,1.5349,1.5173,1.4828,1.4217,1.3261,0.0,0.0,0.0,0.0,0.0,0.0,0.0,0.0,0.0,0.0,0.0,0.0,0.0,0.0,0.0,0.0,0.0,0.0,0.0,0.0,0.0,0.0,0.0,0.0,0.0,0.0,0.0,0.0,0.0,0.0,0.0,0.0,0.0,0.0,0.0,0.0,0.0,0.0,0.0,0.0,0.0,0.0,0.0,0.0,0.0,0.0,0.0,0.0,0.0,0.0,0.0,0.0,0.0,0.0,0.0,0.0,0.0,0.0,0.0,0.0,0.0,0.0,0.0,0.0,0.0,0.0,0.0,0.0,0.0,0.0,0.0,0.0,0.0,0.0,0.0,0.0,0.0,0.0,0.0,0.0,0.0,0.0,0.0,0.0,0.0,0.0,0.0,0.0,0.0,0.0,0.0,0.0,0.0,0.0,0.0,0.0,0.0,0.0,0.0,0.0,0.0,0.0,1.3148,1.467,1.5693,1.5706,1.6183,1.6296,1.5756,1.5693,1.5003,0.0,0.0,0.0,0.0,0.0,0.0,0.0,0.0,0.0,0.0,0.0,0.0,0.0,0.0,0.0,0.0,0.0,0.0,0.0,0.0,0.0,0.0,0.0,0.0,0.0,0.0,0.0,0.0,0.0,0.0,0.0,0.0,0.0,0.0,0.0,0.0,0.0,0.0,0.0,0.0,0.0,0.0,0.0,0.0,0.0,0.0,0.0,0.0,0.0,0.0,0.0,0.0,0.0,0.0,0.0,0.0,0.0,0.0,0.0,0.0,0.0,0.0,0.0,0.0,0.0,0.0,0.0,0.0,0.0,0.0,0.0,0.0,0.0,0.0,0.0,0.0,0.0,0.0,0.0,0.0,0.0,0.0,0.0,0.0,0.0,0.0,0.0,0.0,0.0,0.0,0.0,0.0,0.0,0.0,0.0,0.0,0.0,0.0,0.0,0.0,0.0,0.0,0.0,1.4224,1.5153,1.5844,1.6233,1.64,1.6437,1.6283,1.5919,1.5316,1.445,0.0,0.0,0.0,0.0,0.0,0.0,0.0,0.0,0.0,0.0,0.0,0.0,0.0,0.0,0.0,0.0,0.0,0.0,0.0,0.0,0.0,0.0,0.0,0.0,0.0,0.0,0.0,0.0,0.0,0.0,0.0,0.0,0.0,0.0,0.0,0.0,0.0,0.0,0.0,0.0,0.0,0.0,0.0,0.0,0.0,0.0,0.0,0.0,0.0,0.0,0.0,0.0,0.0,0.0,0.0,0.0,0.0,0.0,0.0,0.0,0.0,0.0,0.0,0.0,0.0,0.0,0.0,0.0,0.0,0.0,0.0,0.0,0.0,0.0,0.0,0.0,0.0,0.0,0.0,0.0,0.0,0.0,0.0,0.0,0.0,0.0,0.0,0.0,0.0,0.0,0.0,0.0,0.0,0.0,0.0,0.0,0.0,0.0,0.0,0.0,0.0,0.0,1.4733,1.5563,1.6145,1.6463,1.65,1.65,1.65,1.6187,1.5781,1.5248,0.0,0.0,0.0,0.0,0.0,0.0,0.0,0.0,0.0,0.0,0.0,0.0,0.0,0.0,0.0,0.0,0.0,0.0,0.0,0.0,0.0,0.0,0.0,0.0,0.0,0.0,0.0,0.0,0.0,0.0,0.0,0.0,0.0,0.0,0.0,0.0,0.0,0.0,0.0,0.0,0.0,0.0,0.0,0.0,0.0,0.0,0.0,0.0,0.0,0.0,0.0,0.0,0.0,0.0,0.0,0.0,0.0,0.0,0.0,0.0,0.0,0.0,0.0,0.0,0.0,0.0,0.0,0.0,0.0,0.0,0.0,0.0,0.0,0.0,0.0,0.0,0.0,0.0,0.0,0.0,0.0,0.0,0.0,0.0,0.0,0.0,0.0,0.0,0.0,0.0,0.0,0.0,0.0,0.0,0.0,0.0,0.0,0.0,0.0,0.0,0.0,0.0,1.4896,1.5869,1.65,1.65,1.65,1.65,1.65,1.65,1.6283,1.5731,0.0,0.0,0.0,0.0,0.0,0.0,0.0,0.0,0.0,0.0,0.0,0.0,0.0,0.0,0.0,0.0,0.0,0.0,0.0,0.0,0.0,0.0,0.0,0.0,0.0,0.0,0.0,0.0,0.0,0.0,0.0,0.0,0.0,0.0,0.0,0.0,0.0,0.0,0.0,0.0,0.0,0.0,0.0,0.0,0.0,0.0,0.0,0.0,0.0,0.0,0.0,0.0,0.0,0.0,0.0,0.0,0.0,0.0,0.0,0.0,1.3353,1.2438,0.0,0.0,0.0,0.0,0.0,0.0,0.0,0.0,0.0,0.0,0.0,0.0,0.0,0.0,0.0,0.0,0.0,0.0,0.0,0.0,0.0,0.0,0.0,0.0,0.0,0.0,0.0,0.0,0.0,0.0,0.0,0.0,0.0,0.0,0.0,0.0,0.0,0.0,0.0,0.0,1.5412,1.6107,1.65,1.65,1.65,1.65,1.65,1.65,1.6283,1.5731,1.5085,0.0,0.0,0.0,0.0,0.0,0.0,0.0,0.0,0.0,0.0,0.0,0.0,0.0,0.0,0.0,0.0,0.0,0.0,0.0,0.0,0.0,0.0,0.0,0.0,0.0,0.0,0.0,0.0,0.0,0.0,0.0,0.0,0.0,0.0,0.0,0.0,0.0,0.0,0.0,0.0,0.0,0.0,0.0,0.0,0.0,0.0,0.0,0.0,0.0,0.0,0.0,0.0,0.0,0.0,0.0,0.0,0.0,0.0,0.0,1.4626,1.386,0.0,0.0,0.0,0.0,0.0,0.0,0.0,0.0,0.0,0.0,0.0,0.0,0.0,0.0,0.0,0.0,0.0,0.0,0.0,0.0,0.0,0.0,0.0,0.0,0.0,0.0,0.0,0.0,0.0,0.0,0.0,0.0,0.0,0.0,0.0,0.0,0.0,0.0,0.0,0.0,1.5618,1.6183,1.65,1.65,1.65,1.65,1.65,1.65,1.649,1.6476,1.5975,0.0,0.0,0.0,0.0,0.0,0.0,0.0,0.0,0.0,0.0,0.0,0.0,0.0,0.0,0.0,0.0,0.0,0.0,0.0,0.0,0.0,0.0,0.0,0.0,0.0,0.0,0.0,0.0,0.0,0.0,0.0,0.0,0.0,0.0,0.0,0.0,0.0,0.0,0.0,0.0,0.0,0.0,0.0,0.0,0.0,0.0,0.0,0.0,0.0,0.0,0.0,0.0,0.0,1.6082,1.6371,1.6789,1.6789,1.6789,1.6738,1.5864,1.5311,1.4997,1.4563,0.0,0.0,0.0,0.0,0.0,0.0,0.0,0.0,0.0,0.0,0.0,0.0,0.0,0.0,0.0,0.0,0.0,0.0,0.0,0.0,0.0,0.0,1.4362,1.4916,1.5035,1.4808,1.3967,0.0,0.0,0.0,0.0,0.0,0.0,0.0,0.0,0.0,0.0,0.0,1.5969,1.6384,1.6688,1.6789,1.6789,1.6854,1.6938,1.6861,1.7033,1.7581,1.7097,1.6641,0.0,0.0,0.0,0.0,0.0,0.0,0.0,0.0,0.0,0.0,0.0,0.0,0.0,0.0,0.0,0.0,0.0,0.0,0.0,0.0,0.0,0.0,0.0,0.0,0.0,0.0,0.0,0.0,0.0,0.0,0.0,0.0,1.2829,1.3571,0.0,0.0,0.0,0.0,0.0,0.0,0.0,0.0,0.0,0.0,0.0,0.0,0.0,1.5825,1.6061,1.6722,1.7109,1.7184,1.7652,1.7915,1.799,1.799,1.799,1.7978,1.7827,0.0,1.558,1.5525,0.0,0.0,0.0,0.0,0.0,0.0,0.0,0.0,0.0,0.0,0.0,0.0,0.0,0.0,0.0,0.0,0.0,0.0,0.0,0.0,0.0,0.0,1.4921,1.5475,1.558,1.568,1.5999,1.4972,1.3959,1.3883,1.3889,1.3889,0.0,0.0,0.0,0.0,0.0,0.0,1.7058,1.7247,1.7451,1.7928,1.799,1.8185,1.8726,1.8293,1.8227,1.8817,1.8253,1.7831,1.767,1.6508,0.0,0.0,0.0,0.0,0.0,0.0,0.0,0.0,0.0,0.0,0.0,0.0,0.0,0.0,0.0,0.0,0.0,0.0,0.0,0.0,0.0,0.0,0.0,0.0,0.0,0.0,0.0,0.0,0.0,1.3841,1.4512,1.5807,1.564,1.5654,0.0,0.0,0.0,0.0,0.0,0.0,0.0,0.0,0.0,1.7088,1.7101,1.7213,1.7451,1.7727,1.784,1.7852,1.8091,1.8204,1.8204,1.8204,1.8204,1.8204,1.8204,1.779,1.7112,1.7112,1.6785,1.6304,0.0,0.0,0.0,0.0,1.5349,1.5349,1.5349,1.4997,1.4601,1.4896,0.0,0.0,0.0,0.0,0.0,0.0,0.0,1.5869,1.6216,1.6304,1.6443,1.6974,1.7112,1.7174,1.739,1.6898,1.6128,1.5173,1.4997,1.4997,1.4997,1.5198,0.0,0.0,0.0,1.6936,1.7739,1.784,1.794,1.8179,1.8204,1.8437,1.9063,1.8848,1.8941,1.9496,1.9268,1.8879,1.837,1.78,1.7,0.0,0.0,0.0,0.0,0.0,0.0,0.0,0.0,0.0,0.0,0.0,0.0,0.0,0.0,0.0,0.0,0.0,0.0,0.0,0.0,0.0,0.0,0.0,0.0,0.0,0.0,0.0,0.0,1.55,1.6233,1.7622,1.68,1.6441,0.0,0.0,0.0,0.0,0.0,0.0,1.6922,1.7453,1.7886,1.8191,1.8204,1.8264,1.8405,1.8543,1.8694,1.8832,1.8982,1.9045,1.9045,1.9045,1.9045,1.9045,1.9045,1.9045,1.9007,1.8442,1.7965,1.7589,1.7589,1.7325,1.6898,1.6484,1.6333,1.6333,1.6333,1.6091,1.5814,1.6208,1.6078,1.5739,1.5739,0.0,0.0,0.0,0.0,1.7027,1.7488,1.7589,1.7725,1.8103,1.8204,1.8204,1.8204,1.8204,1.784,1.6584,1.6333,1.6333,1.6333,1.6333,0.0,1.7463,1.7589,1.779,1.8342,1.8548,1.8718,1.8858,1.9001,1.9352,1.998,1.9854,2.0014,2.0587,2.0293,1.9834,1.9238,1.8882,1.8222,1.7234,0.0,0.0,0.0,0.0,0.0,0.0,0.0,0.0,0.0,0.0,0.0,0.0,0.0,0.0,0.0,0.0,0.0,0.0,0.0,0.0,0.0,0.0,0.0,0.0,0.0,0.0,0.0,0.0,0.0,1.8036,1.7899,0.0,0.0,0.0,0.0,1.7324,1.7782,1.8094,1.8111,1.8623,1.8695,1.8224,1.8213,1.8441,1.8958,1.9472,2.0025,2.0578,2.1106,2.1317,2.1317,2.1317,2.1317,2.1317,2.1317,2.1317,2.1154,1.907,1.8191,1.8166,1.8166,1.8141,1.8116,1.8091,1.8078,1.8078,1.8078,1.8066,1.8041,1.8078,1.8066,1.8041,1.8041,1.8053,0.0,0.0,1.8091,1.8129,1.8154,1.8166,1.8179,1.8191,1.8204,1.8204,1.8204,1.8204,1.8179,1.8091,1.8078,1.8078,1.8078,0.0,1.8091,1.8154,1.8166,1.8355,1.8895,1.9505,2.0096,2.0601,2.1188,2.1792,2.2457,2.1936,2.1852,2.2515,2.1356,2.0639,2.0598,1.9373,1.8672,1.8612,1.7279,0.0,0.0,0.0,0.0,0.0,0.0,0.0,0.0,0.0,0.0,0.0,0.0,0.0,0.0,0.0,0.0,0.0,0.0,0.0,0.0,0.0,0.0,0.0,0.0,0.0,0.0,0.0,0.0,1.8082,1.8108,0.0,1.8577,1.8179,1.8029,1.8416,1.8305,1.8353,1.8706,1.8888,1.9242,1.9786,1.9811,2.0088,2.0602,2.079,2.0991,2.1232,2.1393,2.1493,2.1493,2.1493,2.1493,2.1493,2.1493,2.1493,2.143,2.0639,2.0399,2.0533,2.0533,2.0603,2.0721,2.0721,2.0721,2.0644,2.0219,1.9771,1.9274,1.847,1.8204,1.8204,1.8204,1.8204,1.8279,1.8607,1.8707,1.887,1.9635,1.9811,1.9912,2.0238,2.0313,2.0313,2.0313,2.0313,2.0313,2.0313,1.9171,1.8204,1.8204,1.8204,1.8597,1.9819,1.9995,2.0483,2.1849,2.2247,2.2453,2.2658,2.2848,2.327,2.3928,2.3374,2.3081,2.3274,2.2478,2.1784,2.1365,2.0483,2.0004,2.0004,1.867,1.7549,0.0,0.0,0.0,0.0,0.0,0.0,0.0,0.0,0.0,0.0,0.0,0.0,0.0,0.0,0.0,0.0,0.0,0.0,0.0,0.0,0.0,0.0,0.0,0.0,0.0,1.8353,1.8622,1.8935,1.8684,1.8662,1.9181,1.8777,1.8687,1.9223,1.9127,1.9271,1.9798,1.9835,2.02,2.0943,2.0968,2.1292,2.2033,2.2046,2.2234,2.2611,2.2611,2.2611,2.2611,2.2611,2.2611,2.2611,2.2611,2.2774,2.3023,2.2715,2.3021,2.3501,2.2207,2.1771,2.1891,2.1891,2.2065,2.2255,2.2033,2.168,2.1167,2.0336,2.0061,2.0061,2.0061,2.0061,2.0139,2.0493,2.0598,2.0767,2.1511,2.1707,2.1798,2.2149,2.224,2.224,2.224,2.224,2.224,2.224,2.0655,1.9384,1.9632,1.9682,2.0199,2.1684,2.1916,2.2351,2.3553,2.3904,2.4044,2.4044,2.422,2.4531,2.4961,2.4604,2.432,2.4276,2.3496,2.2808,2.2353,2.15,2.1051,2.1051,1.972,1.8717,1.8027,0.0,0.0,0.0,0.0,0.0,0.0,0.0,0.0,0.0,0.0,0.0,0.0,0.0,0.0,0.0,0.0,0.0,0.0,0.0,0.0,0.0,0.0,0.0,1.8889,1.9322,1.9985,2.055,1.971,1.9324,1.9869,1.9425,1.9309,1.9849,2.0402,2.0955,2.1493,2.1531,2.1543,2.1568,2.1581,2.2108,2.3145,2.3158,2.371,2.4788,2.4788,2.4788,2.4788,2.4788,2.4788,2.4788,2.4788,2.5294,2.6038,2.518,2.5772,2.684,2.3104,2.1693,2.1721,2.1749,2.2168,2.2857,2.3551,2.3742,2.3675,2.3675,2.3675,2.3675,2.3675,2.3675,2.3701,2.3729,2.3729,2.3742,2.3784,2.3784,2.3798,2.3812,2.3812,2.3812,2.3812,2.3812,2.3812,2.3812,2.2657,2.1878,2.2537,2.2631,2.2883,2.3652,2.3754,0.0,2.3807,2.4376,2.4785,2.4785,2.5313,2.5674,2.5674,2.5644,2.563,2.563,2.4388,2.3655,2.3625,2.2428,2.1739,2.1695,2.0393,1.9405,1.8762,0.0,0.0,0.0,0.0,0.0,0.0,0.0,0.0,0.0,0.0,0.0,0.0,0.0,0.0,0.0,0.0,0.0,0.0,0.0,0.0,0.0,2.0464,2.0272,1.9021,2.017,2.0604,1.9066,2.0086,2.0833,2.0701,2.0759,2.1096,2.1772,2.1482,2.1506,2.2058,2.2443,2.2874,2.3301,2.3703,2.4023,2.4324,2.4324,2.4487,2.4788,2.4788,2.4788,2.4788,2.4788,2.4788,2.4788,2.4788,2.5294,2.6069,2.5834,2.635,2.7156,2.604,2.5969,2.6511,2.7139,2.6888,2.6181,2.5908,2.4857,2.3563,2.3068,2.291,2.291,2.291,2.3263,2.3772,2.4164,2.4289,2.4483,2.5425,2.5661,2.5758,2.6202,2.63,2.63,2.63,2.63,2.63,2.63,2.5986,2.5211,2.3668,2.3393,2.3776,2.4907,2.508,2.543,2.6392,2.6707,2.6807,2.6807,2.6947,2.7061,2.7061,2.6587,2.6318,2.6318,2.5525,2.4814,2.435,2.352,2.2637,2.1724,2.0857,2.0314,0.0,0.0,0.0,0.0,0.0,0.0,0.0,0.0,0.0,0.0,0.0,0.0,0.0,0.0,0.0,0.0,0.0,0.0,0.0,0.0,0.0,0.0,2.1171,2.1291,2.0578,2.1433,2.1722,2.0598,2.167,2.2388,2.2104,2.2485,2.2766,2.2803,2.2935,2.3114,2.3326,2.3634,2.396,2.433,2.4625,2.4888,2.5146,2.5146,2.5272,2.5511,2.5511,2.5511,2.5511,2.5511,2.5511,2.5511,2.5511,2.5999,2.6765,2.6765,2.7274,2.7961,0.0,0.0,0.0,0.0,2.8596,2.7933,2.7868,2.7079,2.6036,2.5662,2.5514,2.5514,2.5514,2.5822,2.6251,2.6558,2.6646,2.6804,2.7565,2.7751,2.7838,2.8182,2.8268,2.8268,2.8268,2.8268,2.8268,2.8268,2.8268,0.0,2.6397,2.5688,2.5545,2.633,2.6436,2.672,2.7489,2.76,2.76,2.76,2.76,2.76,2.76,2.724,0.0,0.0,0.0,2.5719,2.5053,2.4365,0.0,0.0,0.0,2.1395,2.1126,2.0722,0.0,0.0,1.7999,1.767,0.0,0.0,0.0,0.0,0.0,0.0,0.0,0.0,0.0,0.0,0.0,0.0,0.0,0.0,0.0,0.0,2.2024,2.2842,2.3006,2.3097,2.3271,2.3578,2.3789,2.3917,2.3951,2.4321,2.4337,2.3748,2.4623,2.5127,2.4943,2.4999,0.0,0.0,0.0,2.5353,2.584,2.5853,2.6076,2.6587,2.6587,2.6612,2.6675,2.6779,2.6779,2.6675,2.6904,2.7411,2.8053,2.8153,2.8728,2.9369,2.8114,2.7685,2.7862,2.8526,2.871,2.8737,2.9463,0.0,0.0,2.9456,2.9456,2.9456,2.9456,2.9525,2.9606,2.9606,2.9606,2.9621,2.9696,2.9711,2.9726,2.9789,2.9804,2.9804,2.9804,2.9804,2.9804,2.9804,2.9804,2.9774,2.9726,2.8616,2.7754,2.7838,2.7824,2.7824,2.7824,2.7824,2.7824,2.7824,2.7824,0.0,2.772,2.7705,2.7675,2.76,2.6986,2.6333,2.5749,2.5068,2.4425,2.3834,2.3152,2.2523,2.1904,2.1769,2.1695,2.165,1.9869,1.9361,0.0,0.0,0.0,0.0,0.0,0.0,0.0,0.0,0.0,0.0,0.0,0.0,0.0,0.0,0.0,2.2877,2.3251,2.379,2.4885,2.5509,2.5301,2.3858,2.4543,2.5377,2.5971,2.5381,2.5637,2.7257,2.647,2.5889,2.5865,2.6267,2.6497,2.6497,2.6909,2.7196,2.7301,2.7301,2.7245,2.7165,2.7165,0.0,2.7819,2.8553,2.8531,2.7891,2.9453,3.0152,3.0253,3.1026,3.1844,3.2458,3.0475,3.0117,3.0703,3.0834,3.055,3.0103,3.0257,2.9579,2.8635,2.8635,2.8635,2.8635,2.8635,2.9083,0.0,2.9606,2.9606,2.9726,3.0193,3.0328,3.0462,3.1002,3.1122,3.1122,3.1122,3.1122,3.1122,3.1122,3.1122,3.0957,3.0417,2.9694,2.919,2.9205,2.9217,2.9217,2.9217,2.9217,2.9217,2.9217,2.9217,2.8981,2.8442,2.8412,2.8173,2.763,2.6986,2.6527,2.6408,2.5764,2.536,2.5226,2.4044,2.3355,2.3236,2.2203,2.1695,2.168,2.1306,2.1186,0.0,0.0,0.0,0.0,0.0,0.0,0.0,0.0,0.0,0.0,0.0,2.1201,2.1201,0.0,2.2862,2.349,2.4163,2.4956,2.5959,2.6686,2.6748,2.5778,2.6469,2.7164,2.7482,2.7427,2.7611,2.8248,2.7935,2.7666,2.7565,2.78,2.7962,2.7962,2.853,2.8611,2.8112,2.8926,2.9032,2.8392,2.8925,2.9313,2.9556,3.0029,2.9994,2.9626,3.0562,3.0965,3.0965,3.1836,3.271,3.3394,3.2313,3.196,3.1959,3.163,3.1286,3.0987,3.0987,3.0536,2.9941,2.9941,2.9941,2.9941,2.9941,3.0226,3.0552,3.0552,3.0552,3.0627,3.0913,3.0987,3.1077,3.1421,3.1511,3.1511,3.1511,3.1511,3.1511,3.1511,3.1511,3.1391,3.1047,3.0761,3.0328,2.9711,2.9606,2.9606,2.9606,2.9606,2.9606,2.9606,2.9606,2.9472,2.9116,2.8786,2.8457,2.8113,2.748,2.7106,2.7106,2.6452,2.6093,2.6093,2.5121,2.4597,2.4597,2.3969,2.3655,2.3655,2.3655,2.2951,0.0,0.0,0.0,0.0,0.0,0.0,0.0,1.9615,2.0228,2.0778,2.1425,2.1919,2.2039,2.3011,2.3879,2.4133,2.5196,2.6213,2.6886,2.757,2.8034,2.8154,2.8558,2.8797,2.8822,2.9232,2.9343,2.8882,2.9268,2.9465,2.9425,2.9422,2.9477,2.9634,3.0155,3.0033,2.9221,3.0549,3.0799,2.9961,3.0774,3.1201,3.1326,3.1495,3.1495,3.1326,3.1495,3.1696,3.1943,3.2562,3.3265,3.3873,3.3739,3.3365,3.2826,3.2123,3.1884,3.1869,3.1735,3.169,3.1675,3.154,3.1511,3.1511,3.1511,3.1511,3.1511,3.1511,3.1511,3.1511,3.1511,3.1511,3.1511,3.1511,3.1511,3.1511,3.1511,3.1511,3.1511,3.1511,3.1511,3.1511,3.1511,3.1511,3.1152,3.0118,2.9968,2.9968,2.9968,2.9968,2.9968,2.9968,2.9968,2.9909,2.9774,2.916,2.8742,2.8607,2.8094,2.7735,2.76,2.7091,2.6782,2.6782,2.6138,2.5794,2.5794,2.5674,2.5615,2.5615,2.5615,2.4477,1.9483,1.9483,1.9483,1.9483,1.9929,2.0374,0.0,2.0991,2.15,2.1575,2.2134,2.2763,2.3281,2.3977,2.4874,2.6063,2.6896,2.7615,2.8278,2.8936,2.9592,3.0103,2.9759,2.9687,3.0201,2.9695,2.9828,3.1027,3.0542,3.0427,3.0924,3.0953,3.1226,3.1814,3.19,3.1911,3.18,3.1969,3.1877,3.153,3.1668,3.1944,3.2435,3.3285,3.3217,3.247,3.332,3.4191,3.499,3.5103,3.5183,3.522,3.4607,3.4354,3.4219,3.3514,3.3275,3.3185,3.2572,3.2378,3.2273,3.169,3.1511,3.1511,3.1511,3.1511,3.1511,3.1511,3.1511,3.1511,3.1511,3.1511,3.1511,3.1511,3.1511,3.1511,3.1511,3.1511,3.1511,3.1511,3.1511,3.1511,3.1511,3.1511,3.1451,3.1316,3.1286,3.1286,3.1286,3.1286,3.1286,3.1286,3.1286,3.1032,3.0447,2.9834,2.922,2.8637,2.8532,2.8203,2.7615,2.7525,2.748,2.748,2.6836,2.6482,2.6482,2.5899,2.5615,2.5615,2.5615,2.545,2.0771,2.0857,2.0857,2.0857,2.1066,2.1291,2.1291,2.1799,2.2388,2.2727,2.334,2.3999,2.4657,2.5315,2.5959,2.6497,2.7495,2.8263,2.8562,2.9475,3.0223,3.0477,3.0627,3.0793,3.1047,3.0775,3.0984,3.1989,3.1783,3.1869,3.2488,3.2532,3.2665,3.2945,3.336,3.3282,3.2731,3.3644,3.3773,3.3101,3.3686,3.408,3.4308,3.4691,3.4658,3.4308,3.4691,3.51,3.5504,3.5504,3.5504,3.5474,3.519,3.507,3.4951,3.3888,3.3499,3.3455,3.3185,3.308,3.2976,3.2288,3.2079,3.2004,3.1615,3.1511,3.1511,3.1511,3.1511,3.1511,3.1511,3.1511,3.1511,3.1511,3.1511,3.1511,3.1511,3.1511,3.1511,3.1511,3.1511,3.1511,3.1511,3.1511,3.1511,3.1511,3.1511,3.1511,3.1511,3.1511,3.1511,3.1511,3.1511,3.1391,3.1107,3.0492,2.9998,2.9729,2.937,2.9067,2.8783,2.8393,2.8173,2.8173,2.7525,2.718,2.718,2.6911,2.6752,2.6752,2.6752,2.6752,2.156,2.1695,2.1695,2.1695,2.1829,2.1984,2.1984,2.2607,2.334,2.3789,2.4395,2.5068,2.5749,2.6273,2.6707,2.7081,2.8113,2.8921,2.9101,3.0088,3.0791,3.0791,3.1361,3.178,3.178,3.178,3.2049,3.2736,3.2781,3.3066,3.3724,3.3769,3.3858,3.4038,3.4517,3.4453,3.3787,3.491,3.5133,3.4428,3.5166,3.5504,3.5504,3.5504,3.5504,3.5504,3.5504,3.5504,3.5504,3.5504,3.5504,3.5504,3.5504,3.5504,3.5385,3.4412,3.4053,3.4023,3.3829,3.3769,3.3664,3.3006,3.2781,3.2706,3.2183,3.1914,3.178,3.178,3.1645,3.1511,3.1511,3.1511,3.1511,3.1511,3.1511,3.1511,3.1511,3.1511,3.1511,3.1511,3.1511,3.1511,3.1511,3.1511,3.1511,3.1511,3.1511,3.1511,3.1511,3.1511,3.1511,3.1511,3.1511,3.1511,3.1511,3.1047,3.0717,3.0507,3.0088,2.9786,2.9621,2.9131,2.8876,2.8876,2.8408,2.8154,2.8154,2.8154,2.8154,2.8154,2.8154,2.8154,2.1695,2.1695,2.1695,2.1695,2.2194,2.2673,2.2673,2.364,2.4545,2.4575,2.5098,2.5779,2.6437,2.6572,2.7021,2.8323,2.9101,2.9759,3.0357,3.1032,3.1466,3.1466,3.2049,3.2452,3.2452,3.2452,3.2766,3.3425,3.3469,3.3754,3.4444,3.4474,3.4788,3.5429,3.5459,3.5442,3.5442,3.5472,3.5472,3.5457,3.5504,3.5504,3.5504,3.5504,3.5504,3.5504,3.5504,3.5504,3.5504,3.5504,3.5504,3.5504,3.5504,3.5504,3.5504,3.5459,3.5444,3.5355,3.4713,3.4474,3.4369,3.3679,3.3469,3.3469,3.344,3.2991,3.2452,3.2452,3.1989,3.1511,3.1511,3.1511,3.1511,3.1511,3.1511,3.1511,3.1511,3.1511,3.1511,3.1511,3.1511,3.1511,3.1511,3.1511,3.1511,3.1511,3.1511,3.1511,3.1511,3.1511,3.1511,3.1511,3.1511,3.1511,3.1511,3.1481,3.1182,3.0552,3.0477,3.0208,2.9636,2.9592,2.9577,2.9577,2.9562,2.9547,2.9547,2.9547,2.9547,2.9547,2.9547,2.9547,2.3498,2.331,2.3071,2.3498,2.3782,2.4088,2.4522,2.4971,2.5382,2.5839,2.6108,2.6602,2.7724,2.7545,2.7705,2.9041,2.9457,2.9804,3.0417,3.1077,3.1511,3.1511,3.2079,3.2677,3.3125,3.3155,3.344,3.4098,3.4174,3.4474,3.513,3.516,3.5265,3.5489,3.5504,3.5504,3.5504,3.5504,3.5504,3.5504,3.5504,3.5504,3.5504,3.5504,3.5504,3.5504,3.5504,3.5504,3.5504,3.5504,3.5504,3.5504,3.5504,3.5504,3.5504,3.5504,3.5504,3.5474,3.5235,3.516,3.504,3.4367,3.4174,3.4099,3.3619,3.3335,3.3155,3.3155,3.2691,3.2153,3.2153,3.1824,3.1511,3.1511,3.1511,3.1511,3.1511,3.1511,3.1511,3.1511,3.1511,3.1511,3.1511,3.1511,3.1511,3.1511,3.1511,3.1511,3.1511,3.1511,3.1511,3.1511,3.1511,3.1511,3.1511,3.1511,3.1406,3.1182,3.1152,3.1062,3.0853,3.0432,3.0193,3.0193,2.9789,2.9606,2.9606,2.9606,2.9606,2.9606,2.9606,2.9606,2.4485,2.4291,2.4133,2.4784,2.4963,2.5068,2.551,2.5794,2.6078,2.6497,2.6806,2.7225,2.8068,2.7899,2.8034,2.9382,2.9606,2.9879,3.0746,3.1227,3.1511,3.1511,3.2288,3.3036,3.3455,3.3933,3.4382,3.4816,3.4846,3.504,3.5489,3.5504,3.5504,3.5504,3.5504,3.5504,3.5504,3.5504,3.5504,3.5504,3.5504,3.5504,3.5504,3.5504,3.5504,3.5504,3.5504,3.5504,3.5504,3.5504,3.5504,3.5504,3.5504,3.5504,3.5504,3.5504,3.5504,3.5504,3.5504,3.5504,3.5429,3.4996,3.4846,3.4771,3.4337,3.4038,3.3844,3.3844,3.3365,3.2871,3.2871,3.2348,3.1854,3.1854,3.1675,3.1511,3.1511,3.1511,3.1511,3.1511,3.1511,3.1511,3.1511,3.1511,3.1511,3.1511,3.1511,3.1511,3.1511,3.1511,3.1511,3.1511,3.1511,3.1511,3.1511,3.1511,3.1511,3.1511,3.1511,3.1511,3.1511,3.1077,3.0866,3.0866,3.0477,3.0283,3.0283,3.0283,3.0283,3.0283,3.0283,3.0283,2.4634,2.4634,2.4769,2.5495,2.5659,2.5674,2.5704,2.6198,2.6632,2.6632,2.7165,2.76,2.7645,2.7615,2.8034,2.9382,2.9606,3.0028,3.1271,3.1481,3.1511,3.1511,3.2691,3.3499,3.3499,3.4711,3.5504,3.5504,3.5504,3.5504,3.5504,3.5504,3.5504,3.5504,3.5504,3.5504,3.5504,3.5504,3.5504,3.5504,3.5504,3.5504,3.5504,3.5504,3.5504,3.5504,3.5504,3.5504,3.5504,3.5504,3.5504,3.5504,3.5504,3.5504,3.5504,3.5504,3.5504,3.5504,3.5504,3.5504,3.5504,3.5504,3.5504,3.5504,3.5504,3.5055,3.4563,3.4563,3.4053,3.3544,3.3544,3.3051,3.2557,3.2557,3.2064,3.1585,3.157,3.1555,3.154,3.1511,3.1511,3.1511,3.1511,3.1511,3.1511,3.1511,3.1511,3.1511,3.1511,3.1511,3.1511,3.1511,3.1511,3.1511,3.1511,3.1511,3.1511,3.1511,3.1511,3.1511,3.1511,3.1511,3.1511,3.1511,3.1511,3.1511,3.1511,3.1511,3.1511,3.1511,3.1511,3.1511,2.5068,2.4978,2.4874,2.6048,2.6348,2.6467,2.6986,2.7225,2.7345,2.7345,2.748,2.775,2.8248,2.7944,2.8034,2.9382,2.9606,2.9864,3.0657,3.1182,3.1511,3.1511,3.2691,3.3499,3.3499,3.4711,3.5504,3.5504,3.5504,3.5504,3.5504,3.5504,3.5504,3.5504,3.5504,3.5504,3.5504,3.5504,3.5504,3.5504,3.5504,3.5504,3.5504,3.5504,3.5504,3.5504,3.5504,3.5504,3.5504,3.5504,3.5504,3.5504,3.5504,3.5504,3.5504,3.5504,3.5504,3.5504,3.5504,3.5504,3.5504,3.5504,3.5504,3.5504,3.5504,3.5385,3.525,3.525,3.4756,3.4264,3.4264,3.3739,3.3245,3.3245,3.311,3.2856,3.2333,3.2243,3.2093,3.16,3.1511,3.1511,3.1511,3.1511,3.1511,3.1511,3.1511,3.1511,3.1511,3.1511,3.1511,3.1511,3.1511,3.1511,3.1511,3.1511,3.1511,3.1511,3.1511,3.1511,3.1511,3.1511,3.1511,3.1511,3.1511,3.1511,3.1511,3.1511,3.1511,3.1511,3.1511,3.1511,2.533,2.5322,2.5352,2.6692,2.7046,2.7151,2.751,2.7375,2.7165,2.7165,2.6941,2.6826,2.7215,2.7215,2.751,2.8558,2.9217,2.9804,3.0417,3.1077,3.1511,3.1511,3.2691,3.3499,3.3499,3.4711,3.5504,3.5504,3.5504,3.5504,3.5504,3.5504,3.5504,3.5504,3.5504,3.5504,3.5504,3.5504,3.5504,3.5504,3.5504,3.5504,3.5504,3.5504,3.5504,3.5504,3.5504,3.5504,3.5504,3.5504,3.5504,3.5504,3.5504,3.5504,3.5504,3.5504,3.5504,3.5504,3.5504,3.5504,3.5504,3.5504,3.5504,3.5504,3.5504,3.5504,3.5504,3.5504,3.5235,3.4921,3.4921,3.4427,3.3918,3.3918,3.3709,3.3395,3.3021,3.2946,3.2751,3.2064,3.1705,3.1511,3.1511,3.1511,3.1511,3.1511,3.1511,3.1511,3.1511,3.1511,3.1511,3.1511,3.1511,3.1511,3.1511,3.1511,3.1511,3.1511,3.1511,3.1511,3.1511,3.1511,3.1511,3.1511,3.1511,3.1511,3.1511,3.1511,3.1511,3.1511,3.1511,3.1511,2.5277,2.548,2.5779,2.7031,2.733,2.733,2.733,2.6896,2.6452,2.6452,2.6004,2.5615,2.5615,2.6078,2.6701,2.736,2.8528,2.9592,3.0283,3.0943,3.1406,3.1496,3.2691,3.3499,3.3499,3.4711,3.5504,3.5504,3.5504,3.5504,3.5504,3.5504,3.5504,3.5504,3.5504,3.5504,3.5504,3.5504,3.5504,3.5504,3.5504,3.5504,3.5504,3.5504,3.5504,3.5504,3.5504,3.5504,3.5504,3.5504,3.5504,3.5504,3.5504,3.5504,3.5504,3.5504,3.5504,3.5504,3.5504,3.5504,3.5504,3.5504,3.5504,3.5504,3.5504,3.5504,3.5504,3.5504,3.5504,3.5504,3.5504,3.5055,3.4638,3.4638,3.4173,3.3739,3.3649,3.3559,3.332,3.2766,3.2153,3.1735,3.1645,3.163,3.16,3.1511,3.1511,3.1511,3.1511,3.1511,3.1511,3.1511,3.1511,3.1511,3.1511,3.1511,3.1511,3.1511,3.1511,3.1511,3.1511,3.1511,3.1511,3.1511,3.1511,3.1511,3.1511,3.1511,3.1511,3.1511,3.1511,3.1511,2.459,2.4769,2.4963,2.5749,2.5959,2.5959,2.5959,2.5869,2.5779,2.5779,2.5689,2.5615,2.5615,2.5704,2.5989,2.6647,2.7435,2.8378,2.9592,3.0283,3.0896,3.1436,3.2691,3.3499,3.3499,3.4711,3.5504,3.5504,3.5504,3.5504,3.5504,3.5504,3.5504,3.5504,3.5504,3.5504,3.5504,3.5504,3.5504,3.5504,3.5504,3.5504,3.5504,3.5504,3.5504,3.5504,3.5504,3.5504,3.5504,3.5504,3.5504,3.5504,3.5504,3.5504,3.5504,3.5504,3.5504,3.5504,3.5504,3.5504,3.5504,3.5504,3.5504,3.5504,3.5504,3.5504,3.5504,3.5504,3.5504,3.5504,3.5504,3.5415,3.5325,3.5325,3.5235,3.4996,3.4459,3.3873,3.3469,3.335,3.323,3.2976,3.2407,3.2318,3.2123,3.1585,3.1511,3.1511,3.1511,3.1511,3.1511,3.1511,3.1511,3.1511,3.1511,3.1511,3.1511,3.1511,3.1511,3.1511,3.1511,3.1511,3.1511,3.1511,3.1511,3.1511,3.1511,3.1511,3.1511,3.1511,3.1511,3.1511,2.4425,2.4605,2.4769,2.5427,2.5615,2.5615,2.5615,2.5322,2.5068,2.5068,2.4807,2.4567,2.4567,2.4829,2.5292,2.5974,2.6941,2.8064,2.9412,3.0118,3.0761,3.1421,3.2691,3.3499,3.3499,3.4711,3.5504,3.5504,3.5504,3.5504,3.5504,3.5504,3.5504,3.5504,3.5504,3.5504,3.5504,3.5504,3.5504,3.5504,3.5504,3.5504,3.5504,3.5504,3.5504,3.5504,3.5504,3.5504,3.5504,3.5504,3.5504,3.5504,3.5504,3.5504,3.5504,3.5504,3.5504,3.5504,3.5504,3.5504,3.5504,3.5504,3.5504,3.5504,3.5504,3.5504,3.5504,3.5504,3.5504,3.5504,3.5504,3.5504,3.5504,3.5504,3.5504,3.5415,3.5085,3.4487,3.4008,3.4008,3.3724,3.3395,3.308,3.3021,3.2916,3.2602,3.2557,3.2392,3.2064,3.2019,3.1884,3.154,3.1511,3.1511,3.1511,3.1511,3.1511,3.1511,3.1511,3.1511,3.1511,3.1511,3.1511,3.1511,3.1511,3.1511,3.1511,3.1511,3.1511,3.1511,3.1511,3.1511,2.4201,2.4395,2.4515,2.5046,2.5181,2.5151,2.5016,2.456,2.4141,2.4007,2.3565,2.3191,2.3191,2.3744,2.4395,2.5076,2.6288,2.7645,2.8992,2.9819,3.0552,3.1212,3.2602,3.3499,3.3499,3.4711,3.5504,3.5504,3.5504,3.5504,3.5504,3.5504,3.5504,3.5504,3.5504,3.5504,3.5504,3.5504,3.5504,3.5504,3.5504,3.5504,3.5504,3.5504,3.5504,3.5504,3.5504,3.5504,3.5504,3.5504,3.5504,3.5504,3.5504,3.5504,3.5504,3.5504,3.5587,3.5701,3.5554,3.5619,3.5701,3.5554,3.5504,3.5504,3.5504,3.5504,3.5504,3.5504,3.5504,3.5504,3.5504,3.5504,3.5504,3.5504,3.5504,3.5504,3.5504,3.5085,3.4728,3.4728,3.4277,3.3873,3.3724,3.3709,3.3664,3.3514,3.3499,3.3305,3.2796,3.2721,3.2497,3.1974,3.1675,3.1511,3.1511,3.1511,3.1511,3.1511,3.1511,3.1511,3.1511,3.1511,3.1511,3.1511,3.1511,3.1511,3.1511,3.1511,3.1511,3.1511,3.1511,3.1585,2.3535,2.3684,2.3714,2.3774,2.3789,2.364,2.3092,2.2927,2.2703,2.2084,2.1919,2.1874,2.1874,2.2433,2.3077,2.3684,2.4911,2.6243,2.76,2.8888,2.9894,3.0522,3.2302,3.3499,3.3499,3.4711,3.5504,3.5504,3.5504,3.5504,3.5504,3.5504,3.5504,3.5504,3.5504,3.5504,3.5504,3.5504,3.5504,3.5504,3.5504,3.5504,3.5504,3.5504,3.5504,3.5504,3.5504,3.5504,3.5504,3.5504,3.5504,3.5504,3.5504,3.5504,3.5504,3.5504,3.5911,3.6415,3.5718,3.5943,3.6384,3.5733,3.5504,3.5504,3.5504,3.5504,3.5504,3.5504,3.5504,3.5504,3.5504,3.5504,3.5504,3.5504,3.5504,3.5504,3.5504,3.5459,3.5415,3.5415,3.537,3.5115,3.4518,3.4414,3.4219,3.3589,3.3499,3.3469,3.341,3.341,3.338,3.332,3.2213,3.1511,3.1511,3.1511,3.1511,3.1511,3.1511,3.1511,3.1511,3.1511,3.1511,3.1511,3.1511,3.1511,3.1511,3.1511,3.1511,3.1511,3.1511,3.1824,2.3092,2.331,2.3595,2.3595,2.3325,2.3002,2.2748,2.2388,2.2009,2.1754,2.1695,2.1695,2.1695,2.1924,2.2433,2.343,2.438,2.5615,2.7345,2.8753,2.9804,3.0432,3.2273,3.3499,3.3499,3.4711,3.5504,3.5504,3.5504,3.5504,3.5504,3.5504,3.5504,3.5504,3.5504,3.5504,3.5504,3.5504,3.5504,3.5504,3.5504,3.5504,3.5504,3.5504,3.5504,3.5504,3.5504,3.5504,3.5504,3.5504,3.5504,3.5522,3.6006,3.6165,3.6228,3.6707,3.7055,3.7279,3.6981,3.6753,3.6554,3.6244,3.5863,3.5504,3.5504,3.5504,3.5504,3.5504,3.5504,3.5504,3.5504,3.5831,3.6165,3.6165,3.6523,3.689,3.689,3.6492,3.6321,3.6799,3.6508,3.6073,3.5798,3.5752,3.5521,3.479,3.4696,3.4562,3.4143,3.4114,3.3933,3.3529,3.3021,3.2706,3.2706,3.2706,3.2706,3.2706,3.2706,3.2706,3.2706,3.2706,3.2706,3.2706,3.2706,3.2706,3.2706,3.2706,3.2706,3.2706,3.2706,3.2856,2.2478,2.2697,2.3068,2.3194,2.2801,2.2384,2.2299,2.1843,2.135,2.1141,2.1096,2.1096,2.1096,2.1261,2.1754,2.2862,2.3917,2.5158,2.6767,2.8513,2.9771,3.0178,3.2168,3.3499,3.3499,3.4711,3.5504,3.5504,3.5504,3.5587,3.5814,3.5846,3.5733,3.5504,3.5504,3.5504,3.5504,3.5733,3.5846,3.5831,3.6085,3.6164,3.6164,3.6164,3.6164,3.6164,3.6164,3.6164,3.6164,3.6164,3.6164,3.6227,3.6753,3.6934,3.7024,3.7602,3.7921,3.8092,3.7863,3.7557,3.7247,3.7024,3.6615,3.6164,3.6164,3.5846,3.5569,3.575,3.599,3.6164,3.6164,3.6554,3.6934,3.6934,3.7397,3.7793,3.7793,3.7352,3.7114,3.769,3.7338,3.6934,3.6934,3.6934,3.6783,3.6258,3.6164,3.6027,3.5523,3.5493,3.5278,3.4805,3.4547,3.4166,3.356,3.3499,3.3499,3.3499,3.3499,3.3499,3.3499,3.3499,3.3499,3.3499,3.3499,3.3499,3.3499,3.3499,3.3499,3.3499,3.3499,3.3604,2.153,2.171,2.1828,2.2213,2.1998,2.1633,2.1378,2.0999,2.0509,1.9872,1.9723,1.9723,1.9723,2.0258,2.0927,2.1605,2.3334,2.4844,2.5516,2.7919,2.9606,2.9621,3.1898,3.3499,3.3499,3.4711,3.5504,3.5504,3.5504,3.5814,3.6554,3.6584,3.6244,3.5537,3.5504,3.5504,3.5504,3.6212,3.6584,3.6615,3.7397,3.7793,3.7793,3.7793,3.7793,3.7793,3.7793,3.7793,3.7793,3.7793,3.7793,3.7793,3.7777,3.7793,3.7793,3.7793,3.8246,3.8772,3.8064,3.8274,3.8772,3.8035,3.7777,3.7793,3.7793,3.6723,3.5636,3.6384,3.7144,3.7793,3.7793,3.7793,3.7793,3.7793,3.7777,3.7793,3.7793,3.7777,3.7777,3.7793,3.7777,3.7793,3.7793,3.7793,3.7777,3.7793,3.7793,3.7777,3.7777,3.7777,3.7761,3.7761,3.7038,3.5738,3.3651,3.3499,3.3499,3.3499,3.3499,3.3499,3.3499,3.3499,3.3499,3.3499,3.3499,3.3499,3.3499,3.3499,3.3499,3.3499,3.3499,3.3874,2.1077,2.135,2.1734,2.1857,2.1452,2.1,2.091,2.0444,1.9944,1.9753,1.9708,1.9708,1.9708,1.9869,2.0378,2.1515,2.3274,2.478,2.5497,2.8263,3.0068,2.966,3.1898,3.3858,3.4786,3.5716,3.6244,3.6244,3.6768,3.7175,3.7397,3.7427,3.7308,3.7101,3.7055,3.7055,3.7055,3.7308,3.7427,3.7427,3.769,3.7793,3.7793,3.7793,3.7793,3.7793,3.7793,3.7793,3.7793,3.7793,3.7793,3.7835,3.8358,3.8553,3.8608,3.9156,3.9532,3.9705,3.9454,3.9156,3.8854,3.8635,3.8206,3.7793,3.7793,3.7472,3.7115,3.7338,3.7602,3.7793,3.7793,3.8161,3.8553,3.8553,3.8951,3.9375,3.9375,3.8924,3.869,3.9279,3.8513,3.7793,3.7793,3.7793,3.7602,3.7054,3.7456,3.7793,3.7793,3.7793,3.7793,3.7793,3.7084,3.6322,3.5661,3.5164,3.4876,3.4876,3.4876,3.4876,3.4876,3.4876,3.4876,3.4876,3.4876,3.4876,3.4876,3.4876,3.4876,3.4876,3.4876,3.4981,2.0475,2.0617,2.0989,2.1145,2.0749,2.0411,2.0742,2.0246,1.9782,2.0122,2.0052,1.9927,1.9927,2.0124,2.0615,2.1554,2.3488,2.5047,2.5543,2.8421,3.0762,3.1442,3.2967,3.4592,3.6214,3.6783,3.7054,3.7054,3.7515,3.7921,3.8189,3.8234,3.8346,3.8668,3.8092,3.7793,3.7793,3.8092,3.8234,3.8218,3.8513,3.8668,3.8668,3.8668,3.8668,3.8668,3.8668,3.8668,0.0,3.8668,3.8668,3.8723,3.9183,3.9342,3.9394,3.9927,4.0096,4.0096,4.0096,3.9782,3.9342,3.9342,3.9049,3.8668,3.8668,3.8458,3.8234,3.8234,3.843,3.8668,3.8668,3.9022,3.9342,3.9342,3.9731,4.0096,4.0096,3.9705,3.9489,3.9995,3.9305,3.8668,3.8668,3.8668,3.8513,3.8003,3.8358,3.8668,3.8668,3.8668,3.8668,3.8668,3.7946,3.7365,3.7084,3.6101,3.5619,3.5894,3.5636,3.5504,3.5504,3.5504,3.5504,3.5504,3.5504,3.5504,3.5504,3.5504,3.5504,3.5504,3.5504,3.5504,0.0,1.9764,1.9836,2.0176,2.0,1.9945,2.0764,2.0345,0.0,2.0829,2.0649,2.0348,2.0348,2.0907,2.146,2.1736,2.3948,2.5654,2.5787,2.8606,3.1663,3.4421,3.4776,3.5566,3.7591,3.7851,3.7863,3.7863,3.7921,3.8262,3.8951,3.9005,3.9342,4.007,3.8723,3.795,3.795,3.8635,3.9005,3.8989,3.9756,4.0096,4.0096,4.0096,4.0096,4.0096,4.0096,4.0096,4.0096,4.0096,4.0096,4.0096,4.0096,4.0096,4.0096,4.0096,4.0096,4.0096,4.0096,4.0096,4.0096,4.0096,4.0096,4.0096,4.0096,3.9584,3.9005,3.9005,3.9516,4.0096,4.0096,4.0096,4.0096,4.0096,4.0096,4.0096,4.0096,4.0096,4.0096,4.0096,4.0045,4.002,4.002,4.002,4.002,4.002,4.007,4.0096,4.0096,4.0096,4.0096,4.0096,3.9368,3.8635,3.8007,3.6538,3.5926,3.6554,3.6006,3.5651,3.5651,3.5651,3.5651,3.5651,3.5619,3.5587,3.5587,3.5537,3.5504,3.5504,3.5504,3.5504,2.0615,0.0,2.0106,1.9892,2.0,2.021,0.0,2.0566,2.0747,2.0975,2.091,2.0845,2.0845,2.1418,2.2101,2.2686,2.5048,2.7032,2.7666,3.0252,3.2946,3.5193,3.5463,3.6075,3.7649,3.8302,3.8635,3.8635,3.9209,3.9653,3.9808,3.9808,3.9901,4.0096,3.9731,3.9558,3.9558,3.9731,3.9808,3.9808,4.002,4.0096,4.0096,4.0096,4.0096,4.0096,4.0096,4.0096,4.0096,4.0096,4.0096,4.0096,4.0096,4.0096,4.0096,4.0096,4.0096,4.0096,4.0096,4.0096,4.0096,4.0096,4.0096,4.0096,4.0096,3.9969,3.9808,3.9808,3.9952,4.0096,4.0096,4.0096,4.0096,4.0096,4.0096,4.0096,4.0096,4.0096,4.0096,4.0096,3.961,3.9166,3.9166,3.9166,3.9166,3.9166,3.9705,4.0096,4.0096,4.0096,4.0096,4.0096,3.9368,3.9086,3.9532,3.8149,3.7086,3.6646,3.701,3.7265,3.7265,3.7265,3.7265,3.7265,3.6661,3.6337,3.6337,3.5782,3.5504,3.5504,3.5504,3.5504,2.0847,2.0649,2.0297,2.0311,2.0296,2.04,2.0797,2.0959,2.1102,2.1508,2.1431,2.1373,2.1713,2.2405,2.3195,2.3987,2.6169,2.8327,3.0016,3.1886,3.3882,3.5951,3.6523,3.7324,3.8717,3.9209,3.9463,3.9463,3.9833,4.0096,4.0096,4.0096,4.0096,4.0096,4.0096,4.0096,4.0096,4.0096,4.0096,4.0096,4.0096,4.0096,4.0096,4.0096,4.0096,4.0096,4.0096,4.0096,4.0096,4.0096,4.0096,4.0096,4.0096,4.0096,4.0096,4.0096,4.0096,4.0096,4.0096,4.0096,4.0096,4.0096,4.0096,4.0096,4.0096,4.0096,4.0096,4.0096,4.0096,4.0096,4.0096,4.0096,4.0096,4.0096,4.0096,4.0096,4.0096,4.0096,4.0096,4.0096,3.9756,3.9463,3.9463,3.9463,3.9463,3.9463,3.9808,4.0096,4.0096,4.0096,4.0096,4.0096,3.9714,3.9489,3.9542,3.9129,3.8497,3.77,3.7732,3.7793,3.7793,3.7793,3.7793,3.7793,3.6994,3.6615,3.6615,3.6196,3.5831,3.5504,3.5831,3.5799,2.0988,2.0862,2.0583,2.0926,2.0764,2.0683,2.1429,2.1384,2.1433,2.2286,2.2139,2.2101,2.288,2.3725,2.4585,2.5403,2.7502,2.9865,3.2358,3.3566,3.4863,3.6754,3.7674,3.867,3.9978,4.0096,4.0096,4.0096,4.0096,4.0096,4.0096,4.0096,4.0096,4.0096,4.0096,4.0096,4.0096,4.0096,4.0096,4.0096,4.0096,4.0096,4.0096,4.0096,4.0096,4.0096,4.0096,4.0096,4.0096,4.0096,4.0096,4.0096,4.0096,4.0096,4.0096,4.0096,4.0096,4.0096,4.0096,4.0096,4.0096,4.0096,4.0096,4.0096,4.0096,4.0096,4.0096,4.0096,4.0096,4.0096,4.0096,4.0096,4.0096,4.0096,4.0096,4.0096,4.0096,4.0096,4.0096,4.0096,4.0096,4.0096,4.0096,4.0096,4.0096,4.0096,4.0096,4.0096,4.0096,4.0096,4.0096,4.0096,4.0096,3.9808,3.9139,3.9705,3.9808,3.9139,3.8513,3.8149,3.8149,3.8149,3.8149,3.8149,3.7233,3.6843,3.6948,3.6722,3.6275,3.5668,3.6306,3.6196,2.1788,2.1749,2.1337,2.1055,2.1197,2.1445,2.1567,2.1855,2.232,2.3059,2.3163,2.3386,2.4246,2.541,2.6347,2.6604,2.9503,3.229,3.3932,3.5402,3.668,3.7627,3.8385,3.9176,4.0003,4.0096,4.0096,4.0096,4.0096,4.0096,4.0096,4.0096,4.0096,4.0096,4.0096,4.0096,4.0096,4.0096,4.0096,4.0096,4.0096,4.0096,4.0096,4.0096,4.0096,4.0096,4.0096,4.0096,4.0096,4.0096,4.0096,4.0096,4.0096,4.0096,4.0096,4.0096,4.0096,4.0096,4.0096,4.0096,4.0096,4.0096,4.0096,4.0096,4.0096,4.0096,4.0096,4.0096,4.0096,4.0096,4.0096,4.0096,4.0096,4.0096,4.0096,4.0096,4.0096,4.0096,4.0096,4.0096,4.0096,4.0096,4.0096,4.0096,4.0096,4.0096,4.0096,4.0096,4.0096,4.0096,4.0096,4.0096,4.0096,4.0045,3.9927,4.002,4.0045,3.9927,3.9825,3.9731,3.9731,3.9731,3.9731,3.9731,3.8346,3.7933,3.8536,3.7247,3.6554,3.6446,3.6554,3.6196,2.1874,2.2135,2.1928,2.1751,2.1643,2.1772,2.2412,2.2738,2.3105,2.3848,2.4,2.4363,2.5564,2.6345,2.7369,2.9057,3.1671,3.3732,3.4387,3.6163,3.7516,3.7872,3.8903,3.974,4.0079,4.0096,4.0096,4.0096,4.0096,4.0096,4.0096,4.0096,4.0096,4.0096,4.0096,4.0096,4.0096,4.0096,4.0096,4.0096,4.0096,4.0096,4.0096,4.0096,4.0096,4.0096,4.0096,4.0096,4.0096,4.0096,4.0096,4.0096,4.0096,4.0096,4.0096,4.0096,4.0096,4.0096,4.0096,4.0096,4.0096,4.0096,4.0096,4.0096,4.0096,4.0096,4.0096,4.0096,4.0096,4.0096,4.0096,4.0096,4.0096,4.0096,4.0096,4.0096,4.0096,4.0096,4.0096,4.0096,4.0096,4.0096,4.0096,4.0096,4.0096,4.0096,4.0096,4.0096,4.0096,4.0096,4.0096,4.0096,4.0096,4.0096,4.0096,4.0096,4.0096,4.0096,4.0096,4.0096,4.0096,4.0096,4.0096,4.0096,3.8995,3.8553,3.8908,3.8185,3.7658,3.7279,3.7658,3.744,2.1818,2.2296,2.233,2.2499,2.2283,2.2267,2.3199,2.3528,2.3932,2.4829,2.5015,2.5491,2.6993,2.7651,2.8876,3.1663,3.3453,3.4624,3.4979,3.6688,3.7973,3.8142,3.9292,4.0096,4.0096,4.0096,4.0096,4.0096,4.0096,4.0096,4.0096,4.0096,4.0096,4.0096,4.0096,4.0096,4.0096,4.0096,4.0096,4.0096,4.0096,4.0096,4.0096,4.0096,4.0096,4.0096,4.0096,4.0096,4.0096,4.0096,4.0096,4.0096,4.0096,4.0096,4.0096,4.0096,4.0096,4.0096,4.0096,4.0096,4.0096,4.0096,4.0096,4.0096,4.0096,4.0096,4.0096,4.0096,4.0096,4.0096,4.0096,4.0096,4.0096,4.0096,4.0096,4.0096,4.0096,4.0096,4.0096,4.0096,4.0096,4.0096,4.0096,4.0096,4.0096,4.0096,4.0096,4.0096,4.0096,4.0096,4.0096,4.0096,4.0096,4.0096,4.0096,4.0096,4.0096,4.0096,4.0096,4.0096,4.0096,4.0096,4.0096,4.0096,3.9315,3.8989,3.9166,3.8989,3.8608,3.8064,3.8635,3.8497,2.1874,2.2296,2.2448,2.3139,2.3294,2.3296,2.3376,2.3932,2.4812,2.6251,2.6539,2.7044,2.8718,3.0153,3.1779,3.392,3.4399,3.5018,3.644,3.7347,3.8159,3.8836,3.9622,4.0096,4.0096,4.0096,4.0096,4.0096,4.0096,4.0096,4.0096,4.0096,4.0096,4.0096,4.0096,4.0096,4.0096,4.0096,4.0096,4.0096,4.0096,4.0096,4.0096,4.0096,4.0096,4.0096,4.0096,4.0096,4.0096,4.0096,4.0096,4.0096,4.0096,4.0096,4.0096,4.0096,4.0096,4.0096,4.0096,4.0096,4.0096,4.0096,4.0096,4.0096,4.0096,4.0096,4.0096,4.0096,4.0096,4.0096,4.0096,4.0096,4.0096,4.0096,4.0096,4.0096,4.0096,4.0096,4.0096,4.0096,4.0096,4.0096,4.0096,4.0096,4.0096,4.0096,4.0096,4.0096,4.0096,4.0096,4.0096,4.0096,4.0096,4.0096,4.0096,4.0096,4.0096,4.0096,4.0096,4.0096,4.0096,4.0096,4.0096,4.0096,3.9315,3.9262,4.002,3.9246,3.8881,3.8827,3.8881,3.8497,2.1874,2.2296,2.2482,2.3224,2.4086,2.478,2.478,2.5338,2.6166,2.7164,2.7774,2.8599,3.016,3.2018,3.3597,3.4366,3.5306,3.6135,3.6728,3.7821,3.8684,3.8954,3.9656,4.0096,4.0096,4.0096,4.0096,4.0096,4.0096,4.0096,4.0096,4.0096,4.0096,4.0096,4.0096,4.0096,4.0096,4.0096,4.0096,4.0096,4.0096,4.0096,4.0096,4.0096,4.0096,4.0096,4.0096,4.0096,4.0096,4.0096,4.0096,4.0096,4.0096,4.0096,4.0096,4.0096,4.0096,4.0096,4.0096,4.0096,4.0096,4.0096,4.0096,4.0096,4.0096,4.0096,4.0096,4.0096,4.0096,4.0096,4.0096,4.0096,4.0096,4.0096,4.0096,4.0096,4.0096,4.0096,4.0096,4.0096,4.0096,4.0096,4.0096,4.0096,4.0096,4.0096,4.0096,4.0096,4.0096,4.0096,4.0096,4.0096,4.0096,4.0096,4.0096,4.0096,4.0096,4.0096,4.0096,4.0096,4.0096,4.0096,4.0096,4.0096,3.9808,3.9808,4.0096,3.9782,3.9636,3.9636,3.9636,3.9506,2.1874,2.2465,2.2835,2.3562,2.4678,2.5711,2.6184,2.6877,2.7638,2.8365,2.933,3.0499,3.1968,3.3474,3.4658,3.5131,3.6118,3.6965,3.7438,3.8345,3.9089,3.9334,3.9791,4.0096,4.0096,4.0096,4.0096,4.0096,4.0096,4.0096,4.0096,4.0096,4.0096,4.0096,4.0096,4.0096,4.0096,4.0096,4.0096,4.0096,4.0096,4.0096,4.0096,4.0096,4.0096,4.0096,4.0096,4.0096,4.0096,4.0096,4.0096,4.0096,4.0096,4.0096,4.0096,4.0096,4.0096,4.0096,4.0096,4.0096,4.0096,4.0096,4.0096,4.0096,4.0096,4.0096,4.0096,4.0096,4.0096,4.0096,4.0096,4.0096,4.0096,4.0096,4.0096,4.0096,4.0096,4.0096,4.0096,4.0096,4.0096,4.0096,4.0096,4.0096,4.0096,4.0096,4.0096,4.0096,4.0096,4.0096,4.0096,4.0096,4.0096,4.0096,4.0096,4.0096,4.0096,4.0096,4.0096,4.0096,4.0096,4.0096,4.0096,4.0096,4.0096,4.0096,4.0096,4.0096,4.0096,4.0096,4.0096,4.0096,2.1874,2.2835,2.3577,2.4305,2.505,2.6015,2.7486,2.8433,2.923,2.9989,3.1292,3.2767,3.4218,3.4506,3.5013,3.6558,3.6812,3.7337,3.8785,3.9005,3.9276,4.0011,4.0096,4.0096,4.0096,4.0096,4.0096,4.0096,4.0096,4.0096,4.0096,4.0096,4.0096,4.0096,4.0096,4.0096,4.0096,4.0096,4.0096,4.0096,4.0096,4.0096,4.0096,4.0096,4.0096,4.0096,4.0096,4.0096,4.0096,4.0096,4.0096,4.0096,4.0096,4.0096,4.0096,4.0096,4.0096,4.0096,4.0096,4.0096,4.0096,4.0096,4.0096,4.0096,4.0096,4.0096,4.0096,4.0096,4.0096,4.0096,4.0096,4.0096,4.0096,4.0096,4.0096,4.0096,4.0096,4.0096,4.0096,4.0096,4.0096,4.0096,4.0096,4.0096,4.0096,4.0096,4.0096,4.0096,4.0096,4.0096,4.0096,4.0096,4.0096,4.0096,4.0096,4.0096,4.0096,4.0096,4.0096,4.0096,4.0096,4.0096,4.0096,4.0096,4.0096,4.0096,4.0096,4.0096,4.0096,4.0096,4.0096,4.0096,2.1874,2.2448,2.2936,2.4186,2.5439,2.6776,2.8298,2.9228,3.0277,3.207,3.3169,3.3986,3.4404,3.5391,3.6271,3.6728,3.7675,3.8481,3.8937,3.9453,3.9859,4.0079,4.0096,4.0096,4.0096,4.0096,4.0096,4.0096,4.0096,4.0096,4.0096,4.0096,4.0096,4.0096,4.0096,4.0096,4.0096,4.0096,4.0096,4.0096,4.0096,4.0096,4.0096,4.0096,4.0096,4.0096,4.0096,4.0096,4.0096,4.0096,4.0096,4.0096,4.0096,4.0096,4.0096,4.0096,4.0096,4.0096,4.0096,4.0096,4.0096,4.0096,4.0096,4.0096,4.0096,4.0096,4.0096,4.0096,4.0096,4.0096,4.0096,4.0096,4.0096,4.0096,4.0096,4.0096,4.0096,4.0096,4.0096,4.0096,4.0096,4.0096,4.0096,4.0096,4.0096,4.0096,4.0096,4.0096,4.0096,4.0096,4.0096,4.0096,4.0096,4.0096,4.0096,4.0096,4.0096,4.0096,4.0096,4.0096,4.0096,4.0096,4.0096,4.0096,4.0096,4.0096,4.0096,4.0096,4.0096,4.0096,4.0096,4.0096,2.1874,2.2499,2.3021,2.4203,2.5608,2.7317,2.9754,3.0651,3.1444,3.3068,3.3981,3.4675,3.5306,3.6186,3.6998,3.7591,3.8413,3.9089,3.9394,3.9825,4.0096,4.0096,4.0096,4.0096,4.0096,4.0096,4.0096,4.0096,4.0096,4.0096,4.0096,4.0096,4.0096,4.0096,4.0096,4.0096,4.0096,4.0096,4.0096,4.0096,4.0096,4.0096,4.0096,4.0096,4.0096,4.0096,4.0096,4.0096,4.0096,4.0096,4.0096,4.0096,4.0096,4.0096,4.0096,4.0096,4.0096,4.0096,4.0096,4.0096,4.0096,4.0096,4.0096,4.0096,4.0096,4.0096,4.0096,4.0096,4.0096,4.0096,4.0096,4.0096,4.0096,4.0096,4.0096,4.0096,4.0096,4.0096,4.0096,4.0096,4.0096,4.0096,4.0096,4.0096,4.0096,4.0096,4.0096,4.0096,4.0096,4.0096,4.0096,4.0096,4.0096,4.0096,4.0096,4.0096,4.0096,4.0096,4.0096,4.0096,4.0096,4.0096,4.0096,4.0096,4.0096,4.0096,4.0096,4.0096,4.0096,4.0096,4.0096,4.0096,2.1874,2.2801,2.3477,2.4305,2.5709,2.7842,3.1396,3.231,3.2632,3.344,3.4134,3.5047,3.6541,3.6846,3.7371,3.8768,3.9056,3.9326,4.0011,4.0096,4.0096,4.0096,4.0096,4.0096,4.0096,4.0096,4.0096,4.0096,4.0096,4.0096,4.0096,4.0096,4.0096,4.0096,4.0096,4.0096,4.0096,4.0096,4.0096,4.0096,4.0146,4.0146,4.0096,4.0096,4.0096,4.0096,4.0096,4.0096,4.0096,4.0096,4.0096,4.0096,4.0096,4.0096,4.0096,4.0096,4.0096,4.0096,4.0096,4.0096,4.0096,4.0096,4.0096,4.0096,4.0096,4.0096,4.0096,4.0096,4.0096,4.0096,4.0096,4.0096,4.0096,4.0096,4.0096,4.0096,4.0096,4.0096,4.0096,4.0096,4.0096,4.0096,4.0096,4.0096,4.0096,4.0096,4.0096,4.0096,4.0096,4.0096,4.0096,4.0096,4.0096,4.0096,4.0096,4.0096,4.0096,4.0096,4.0096,4.0096,4.0096,4.0096,4.0096,4.0096,4.0096,4.0096,4.0096,4.0096,4.0096,4.0096,4.0096,4.0096,2.1874,2.2429,2.2852,2.4169,2.6522,2.9027,3.0987,3.2324,3.3541,3.4856,3.5245,3.5673,3.6626,3.7263,3.7956,3.8853,3.9503,3.9926,4.0079,4.0096,4.0096,4.0096,4.0096,4.0096,4.0096,4.0096,4.0096,4.0096,4.0096,4.0096,4.0096,4.0096,4.0096,4.0096,4.0096,4.0096,4.0096,4.0096,4.0096,4.0113,4.0546,4.0521,4.0096,4.0096,4.0096,4.0096,4.0096,4.0096,4.0096,4.0096,4.0096,4.0096,4.0096,4.0096,4.0096,4.0096,4.0096,4.0096,4.0096,4.0096,4.0096,4.0096,4.0096,4.0096,4.0096,4.0096,4.0096,4.0096,4.0096,4.0096,4.0096,4.0096,4.0096,4.0096,4.0096,4.0096,4.0096,4.0096,4.0096,4.0096,4.0096,4.0096,4.0096,4.0096,4.0096,4.0096,4.0096,4.0096,4.0096,4.0096,4.0096,4.0096,4.0096,4.0096,4.0096,4.0096,4.0096,4.0096,4.0096,4.0096,4.0096,4.0096,4.0096,4.0096,4.0096,4.0096,4.0096,4.0096,4.0096,4.0096,4.0096,4.0096,2.1448,2.204,2.2736,2.456,2.7029,2.9399,3.0852,3.2341,3.3728,3.4844,3.5346,3.5938,3.711,3.7652,3.8261,3.9368,3.9859,4.0096,4.0096,4.0096,4.0096,4.0096,4.0096,4.0096,4.0096,4.0096,4.0096,4.0096,4.0096,4.0096,4.0096,4.0096,4.0096,4.0096,4.0343,4.0473,4.0473,4.0767,4.0914,4.0932,4.1196,4.1178,4.0908,4.0336,4.0096,4.0096,4.0096,4.0096,4.0096,4.0096,4.0096,4.0096,4.0096,4.0096,4.0096,4.0096,4.0096,4.0096,4.0096,4.0096,4.0096,4.0096,4.0096,4.0096,4.0096,4.0096,4.0096,4.0096,4.0096,4.0096,4.0096,4.0096,4.0096,4.0096,4.0096,4.0096,4.0096,4.0096,4.0096,4.0096,4.0096,4.0096,4.0096,4.0096,4.0096,4.0096,4.0096,4.0096,4.0096,4.0096,4.0096,4.0096,4.0096,4.0096,4.0096,4.0096,4.0096,4.0096,4.0096,4.0096,4.0096,4.0096,4.0096,4.0096,4.0096,4.0096,4.0096,4.0096,4.0096,4.0096,4.0096,4.0096,2.0987,2.1921,2.3156,2.5102,2.73,2.9348,3.07,3.2256,3.3575,3.4184,3.5013,3.6073,3.7635,3.7905,3.8379,3.9859,4.0096,4.0096,4.0096,4.0096,4.0096,4.0096,4.0096,4.0096,4.0096,4.0096,4.0096,4.0096,4.0196,4.0254,4.0254,4.0336,4.0385,4.0385,4.0803,4.1064,4.1064,4.1556,4.181,4.181,4.181,4.1853,4.1916,4.0885,4.0336,4.0229,4.0146,4.0096,4.0096,4.0096,4.0096,4.0096,4.0096,4.0096,4.0096,4.0096,4.0096,4.0096,4.0096,4.0096,4.0096,4.0096,4.0096,4.0096,4.0096,4.0096,4.0096,4.0096,4.0096,4.0096,4.0096,4.0096,4.0096,4.0096,4.0096,4.0096,4.0096,4.0096,4.0096,4.0096,4.0096,4.0096,4.0096,4.0096,4.0096,4.0096,4.0096,4.0096,4.0096,4.0096,4.0096,4.0096,4.0096,4.0096,4.0096,4.0096,4.0096,4.0096,4.0096,4.0096,4.0096,4.0096,4.0096,4.0096,4.0096,4.0096,4.0096,4.0096,4.0096,4.0096,4.0096,4.0096,2.0987,2.2663,2.444,2.5372,2.73,2.923,3.0057,3.1884,3.344,3.3541,3.4636,3.6073,3.7635,3.7905,3.8379,3.9859,4.0096,4.0096,4.0096,4.0096,4.0096,4.0096,4.0096,4.0096,4.0096,4.0096,4.0096,4.0096,4.0528,4.0803,4.0803,4.1291,4.1556,4.1556,4.1643,4.1686,4.1686,4.175,4.181,4.181,4.181,4.2062,4.2557,4.1874,4.1291,4.0756,4.0311,4.0096,4.0096,4.0096,4.0096,4.0096,4.0096,4.0096,4.0096,4.0096,4.0096,4.0096,4.0096,4.0096,4.0096,4.0096,4.0096,4.0096,4.0096,4.0096,4.0096,4.0096,4.0096,4.0096,4.0096,4.0096,4.0096,4.0096,4.0096,4.0096,4.0096,4.0096,4.0096,4.0096,4.0096,4.0096,4.0096,4.0096,4.0096,4.0096,4.0096,4.0096,4.0096,4.0096,4.0096,4.0096,4.0096,4.0096,4.0096,4.0096,4.0096,4.0096,4.0096,4.0096,4.0096,4.0096,4.0096,4.0096,4.0096,4.0096,4.0096,4.0096,4.0096,4.0096,4.0096,4.0096,2.0869,2.2647,2.4303,2.4859,2.6353,2.8028,2.9211,3.0869,3.2408,3.3237,3.4252,3.5453,3.6992,3.7618,3.8261,3.9292,3.9842,4.0096,4.0096,4.0096,4.0096,4.0096,4.0368,4.0552,4.0552,4.0844,4.1053,4.1053,4.1268,4.1402,4.1402,4.1643,4.181,4.181,4.2142,4.2302,4.2302,4.26,4.2753,4.2753,4.2753,4.2884,4.3142,4.256,4.1979,4.138,4.0797,4.0744,4.103,4.0696,4.0552,4.0552,4.0552,4.0368,4.0096,4.0096,4.0096,4.0096,4.0096,4.0096,4.0096,4.0096,4.0096,4.0096,4.0096,4.0096,4.0096,4.0096,4.0096,4.0096,4.0096,4.0096,4.0096,4.0096,4.0096,4.0096,4.0096,4.0096,4.0096,4.0096,4.0096,4.0096,4.0096,4.0096,4.0096,4.0096,4.0096,4.0096,4.0096,4.0096,4.0096,4.0096,4.0096,4.0096,4.0096,4.0096,4.0096,4.0096,4.0096,4.0096,4.0096,4.0096,4.0096,4.0096,4.0096,4.0096,4.0096,4.0096,4.0096,4.0096,4.0096,4.0096,2.0976,2.2531,2.38,2.424,2.5599,2.7097,2.8164,2.9854,3.1512,3.2611,3.3664,3.4823,3.6173,3.7091,3.7922,3.8853,3.9469,3.9893,4.0079,4.0096,4.0146,4.0286,4.0655,4.0972,4.111,4.1534,4.181,4.181,4.1937,4.2021,4.2021,4.2165,4.2226,4.2226,4.2675,4.2902,4.2902,4.3303,4.3515,4.3515,4.3515,4.3515,4.3497,4.3105,4.2656,4.2206,4.1451,4.138,4.1768,4.1313,4.1133,4.1133,4.1133,4.0874,4.0514,4.036,4.0311,4.0286,4.0146,4.0096,4.0096,4.0096,4.0096,4.0096,4.0096,4.0096,4.0096,4.0096,4.0096,4.0096,4.0096,4.0096,4.0096,4.0096,4.0096,4.0096,4.0096,4.0096,4.0096,4.0096,4.0096,4.0096,4.0096,4.0096,4.0096,4.0096,4.0096,4.0096,4.0096,4.0096,4.0096,4.0096,4.0096,4.0096,4.0096,4.0096,4.0096,4.0096,4.0096,4.0096,4.0096,4.0096,4.0096,4.0096,4.0096,4.0096,4.0096,4.0096,4.0096,4.0096,4.0096,4.0096,2.1531,2.2535,2.3272,2.3796,2.5569,2.71,2.686,2.9076,3.1207,3.1292,3.2806,3.438,3.5235,3.6207,3.7337,3.8751,3.9022,3.9317,4.0011,4.0096,4.0286,4.0803,4.088,4.1133,4.1686,4.1789,4.181,4.181,4.2322,4.2655,4.2655,4.3142,4.341,4.341,4.3444,4.3444,4.3444,4.3497,4.3515,4.3515,4.3515,4.3515,4.3515,4.3462,4.3444,4.3339,4.2246,4.1771,4.181,4.1768,4.175,4.175,4.175,4.1746,4.1643,4.1064,4.0856,4.078,4.0286,4.0096,4.0096,4.0096,4.0096,4.0096,4.0096,4.0096,4.0096,4.0096,4.0096,4.0096,4.0096,4.0096,4.0096,4.0096,4.0096,4.0096,4.0096,4.0096,4.0096,4.0096,4.0096,4.0096,4.0096,4.0096,4.0096,4.0096,4.0096,4.0096,4.0096,4.0096,4.0096,4.0096,4.0096,4.0096,4.0096,4.0096,4.0096,4.0096,4.0096,4.0096,4.0096,4.0096,4.0096,4.0096,4.0096,4.0096,4.0096,4.0096,4.0096,4.0096,4.0096,4.0096,2.1054,2.1989,2.2959,2.3925,2.4752,2.5708,2.7093,2.8247,2.9587,3.1568,3.2528,3.3387,3.4687,3.6057,3.7224,3.7932,3.8431,3.8916,3.9333,3.9402,3.9645,4.0317,4.1036,4.1556,4.1789,4.2446,4.2903,4.2903,4.3087,4.3214,4.3214,4.3392,4.3515,4.3515,4.3515,4.3515,4.3515,4.3515,4.3515,4.3515,4.3515,4.3515,4.3515,4.3515,4.3515,4.3479,4.3069,4.2903,4.2847,4.2521,4.2382,4.2382,4.2382,4.2142,4.1771,4.1556,4.149,4.1446,4.1263,4.0938,4.0607,4.0607,4.0607,4.0552,4.0204,4.0343,4.0607,4.0607,4.0607,4.0607,4.0607,4.0607,4.0607,4.0607,4.0914,4.1173,4.1173,4.0618,4.0204,4.0552,4.0336,4.0096,4.0096,4.0096,4.0096,4.0096,4.0096,4.0096,4.0096,4.0096,4.0096,4.0096,4.0096,4.0096,4.0096,4.0096,4.0096,4.0096,4.0096,4.0237,4.0601,4.0607,4.0797,4.1173,4.0821,4.0424,4.0096,4.0096,4.0096,4.0096,4.0096,4.0096,2.0612,2.1499,2.2506,2.347,2.4082,2.4844,2.6303,2.7229,2.8379,3.0425,3.14,3.2346,3.3908,3.5185,3.6292,3.7213,3.8,3.8656,3.9067,3.9124,3.9365,4.0037,4.1053,4.1752,4.1932,4.2887,4.3515,4.3515,4.3515,4.3515,4.3515,4.3515,4.3515,4.3515,4.3515,4.3515,4.3515,4.3515,4.3515,4.3515,4.3515,4.3515,4.3515,4.3515,4.3515,4.3515,4.3515,4.3515,4.3462,4.3124,4.2976,4.2976,4.2976,4.2733,4.2346,4.2183,4.2101,4.2062,4.1874,4.1534,4.1201,4.1201,4.1201,4.1133,4.0791,4.0914,4.1201,4.1201,4.1201,4.1201,4.1201,4.1201,4.1201,4.1201,4.1512,4.1853,4.2059,4.1353,4.0791,4.1133,4.0897,4.0666,4.0666,4.0666,4.0666,4.0666,4.0666,4.0594,4.0392,4.0546,4.0594,4.0392,4.0546,4.0666,4.0666,4.0666,4.0666,4.0666,4.0666,4.0821,4.1201,4.1201,4.1402,4.1789,4.167,4.1325,4.0777,4.0315,4.0231,4.0485,4.0485,4.062,0.0,0.0,0.0,2.2389,2.3631,2.4675,2.4394,2.6091,2.7752,2.7823,2.9394,3.1225,3.2852,3.3482,3.4477,3.6646,3.7701,3.8514,3.9234,3.9358,3.9576,4.0111,4.0888,4.1578,4.2182,4.2983,4.346,4.346,4.3496,4.3515,4.3515,4.3515,4.3515,4.3515,4.3515,4.3515,4.3515,4.3515,4.3515,4.3515,4.3515,4.3515,4.3515,4.3515,4.3515,4.3515,4.3515,4.3515,4.3515,4.3515,4.3515,4.3515,4.3515,4.3515,4.3427,4.292,4.2713,4.2635,4.2041,4.1853,4.1832,4.1832,4.1832,4.1814,4.181,4.181,4.1832,4.1832,4.1832,4.1832,4.1832,4.1832,4.1832,4.1832,4.1853,4.2,4.2596,4.2264,4.1853,4.1832,4.181,4.181,4.181,4.181,4.181,4.181,4.181,4.1599,4.0995,4.1446,4.1578,4.0995,4.1446,4.181,4.181,4.181,4.181,4.181,4.181,4.181,4.1832,4.1849,4.1888,4.1888,4.2654,4.2753,4.2168,4.0853,4.0536,4.1238,4.1238,4.1627,2.0272,0.0,0.0,0.0,0.0,0.0,2.4855,2.5605,2.6556,2.83,2.9101,2.9996,3.161,3.2457,3.3323,3.4524,3.6074,3.7292,3.7685,3.8227,3.8852,3.954,4.0158,4.06,4.0745,4.1898,4.2635,0.0,4.3167,4.3515,4.3515,4.3515,4.3515,4.3515,4.3515,4.3515,4.3515,4.3515,4.3515,4.3515,4.3515,4.3515,4.3515,4.3515,4.3515,4.3515,4.3515,4.3515,4.3515,4.3515,4.3515,4.3515,4.3515,4.3515,4.3479,4.3321,4.3268,4.325,4.3087,4.2771,4.246,4.246,4.246,4.2362,4.1937,4.2101,4.246,4.246,4.246,4.246,4.246,4.246,4.246,4.246,4.2752,4.3069,4.325,4.316,4.2903,4.2539,4.2101,4.181,4.181,4.181,4.181,4.181,4.181,4.1729,4.1578,4.1703,4.1746,4.1578,4.1686,4.181,4.181,4.181,4.181,4.181,4.181,4.2018,4.2422,4.3019,4.3504,4.3905,4.4319,4.4203,4.354,4.2777,4.2286,4.1999,4.1999,4.21,1.9968,2.0236,2.0723,2.1722,0.0,0.0,2.4171,2.4915,2.5797,2.7218,2.7758,2.8491,3.0099,3.0785,3.1463,3.2614,3.4039,3.5403,3.6604,3.7163,3.7756,3.8528,3.9173,3.9708,4.0034,4.111,4.1809,4.1809,4.2543,4.3149,4.3478,4.3515,4.3515,4.3515,4.3515,4.3515,4.3515,4.3515,4.3515,4.3515,4.3515,4.3515,4.3515,4.3515,4.3515,4.3515,4.3515,4.3515,4.3515,4.3515,4.3515,4.3515,4.3515,4.3515,4.3515,4.3515,4.3515,4.3515,4.3515,4.3304,4.3032,4.3032,4.3032,4.2976,4.2619,4.2752,4.3032,4.3032,4.3032,4.3032,4.3032,4.3032,4.3032,4.3032,4.3268,4.3515,4.3515,4.3515,4.341,4.3087,4.2752,4.2523,4.2523,4.2523,4.2523,4.2523,4.2523,4.2424,4.2203,4.2364,4.2424,4.2203,4.2384,4.2523,4.2523,4.2523,4.2667,4.299,4.3008,4.3326,4.3995,4.4487,4.4893,4.5186,4.5677,4.5791,4.5467,4.4003,4.3115,4.2777,4.3081,4.3278,1.962,1.9895,2.0401,2.0493,2.163,0.0,2.2951,2.4116,2.5172,2.5356,2.597,2.6932,2.8455,2.873,2.9225,3.0754,3.1678,3.3096,3.5661,3.6101,3.645,3.7272,3.7991,3.8744,3.9567,4.0359,4.0857,4.0948,4.1791,4.2598,4.3331,4.346,4.3515,4.3515,4.3515,4.3515,4.3515,4.3515,4.3515,4.3515,4.3515,4.3515,4.3515,4.3515,4.3515,4.3515,4.3515,4.3515,4.3515,4.3515,4.3515,4.3515,4.3515,4.3515,4.3515,4.3515,4.3515,4.3515,4.3515,4.3515,4.3515,4.3515,4.3515,4.3515,4.3515,4.3515,4.3515,4.3515,4.3515,4.3515,4.3515,4.3515,4.3515,4.3515,4.3515,4.3515,4.3515,4.3515,4.3515,4.3515,4.3515,4.3515,4.3515,4.3515,4.3515,4.3515,4.3515,4.3339,4.2845,4.3214,4.3322,4.2845,4.3214,4.3551,4.3643,4.3626,4.3975,4.4782,4.4837,4.5149,4.5865,4.5993,4.603,4.603,4.6763,4.7206,4.7385,4.4789,4.3596,4.3739,4.4332,4.4682,2.0309,1.9913,1.9693,2.0346,2.0749,0.0,2.2694,2.3244,2.3841,2.5136,2.5521,2.5925,2.6877,2.706,2.7383,2.8349,2.9182,3.0785,3.3862,3.4839,3.5573,3.6431,3.667,3.7074,3.7896,3.8707,3.9441,4.0084,4.1479,4.2378,4.2525,4.3149,4.3515,4.3515,4.3515,4.3515,4.3515,4.3515,4.3515,4.3515,4.3515,4.3515,4.3515,4.3515,4.3515,4.3515,4.3515,4.3515,4.3515,4.3515,4.3515,4.3515,4.3515,4.3515,4.3515,4.3515,4.3515,4.3515,4.3515,4.3515,4.3515,4.3515,4.3515,4.3515,4.3515,4.3515,4.3515,4.3515,4.3515,4.3515,4.3515,4.3515,4.3515,4.3515,4.3515,4.3515,4.3515,4.3515,4.3515,4.3515,4.3515,4.3515,4.3515,4.3515,4.3515,4.3515,4.3515,4.3462,4.3357,4.3427,4.3444,4.3357,4.3427,4.3754,4.4415,4.447,4.4819,4.5626,4.5663,4.5736,4.5883,4.6526,4.6856,4.6856,4.7179,4.7346,4.7385,4.5837,4.5316,4.581,4.4966,4.5115,2.1363,2.0537,2.0005,2.0401,2.0503,0.0,0.0,2.2089,2.263,2.3446,2.3924,2.4447,2.5254,2.5731,2.6264,2.7071,2.7548,2.851,3.0522,3.2192,3.3532,3.4357,3.4816,3.5367,3.6174,3.7019,3.7991,3.9203,4.0414,4.1442,4.2268,4.2671,4.3075,4.3496,4.3515,4.3515,4.3515,4.3515,4.3515,4.3515,4.3515,4.3515,4.3515,4.3515,4.3515,4.3515,4.3515,4.3515,4.3515,4.3515,4.3515,4.3515,4.3515,4.3515,4.3515,4.3515,4.3515,4.3515,4.3515,4.3515,4.3515,4.3515,4.3515,4.3515,4.3515,4.3515,4.3515,4.3515,4.3515,4.3515,4.3515,4.3515,4.3515,4.3515,4.3515,4.3515,4.3515,4.3515,4.3515,4.3515,4.3515,4.3515,4.3515,4.3515,4.3515,4.3515,4.3515,4.3515,4.3515,4.3515,4.3662,4.4066,4.4103,4.4415,4.5241,4.5296,4.5645,4.6452,4.6507,4.6691,4.7076,4.748,4.77,4.77,4.7814,4.7856,4.7856,4.691,4.643,4.6383,4.5783,4.5815,2.2437,2.14,2.0749,2.0749,2.0749,2.0786,0.0,0.0,0.0,2.1996,2.2428,2.3006,2.3823,2.4511,2.5044,2.5373,2.597,2.6429,2.6623,2.8863,0.0,3.1794,3.2761,3.3587,3.4234,3.5367,3.6725,3.8358,3.9203,4.0304,4.1754,4.2139,4.2598,4.324,4.3423,4.3515,4.3515,4.3515,4.3515,4.3515,4.3515,4.3515,4.3515,4.3515,4.3515,4.3515,4.3515,4.3515,4.3515,4.3515,4.3515,4.3515,4.3515,4.3515,4.3515,4.3515,4.3515,4.3515,4.3515,4.3515,4.3515,4.3515,4.3515,4.3515,4.3515,4.3515,4.3515,4.3515,4.3515,4.3515,4.3515,4.3515,4.3515,4.3515,4.3515,4.3515,4.3515,4.3515,4.3515,4.3515,4.3515,4.3515,4.3515,4.3515,4.3515,4.3515,4.3515,4.3515,4.3515,4.3626,4.3975,4.4635,4.4838,4.5259,4.6067,4.614,4.6471,4.7278,4.7333,4.7608,4.8269,4.8306,4.8306,4.8306,4.8306,4.8306,4.8306,4.7797,4.7302,4.6756,4.6507,4.6524,2.3098,2.2263,2.1647,2.1647,2.1647,2.1849,2.2547,0.0,2.1996,2.2721,0.0,2.218,2.2988,0.0,0.0,2.1428,2.3639,2.4824,2.2767,2.5162,2.7703,2.9225,3.0742,3.1709,3.1788,3.383,3.583,3.7511,3.8377,3.9239,4.012,4.1534,4.2341,4.2433,4.313,4.3515,4.3515,4.3515,4.3515,4.3515,4.3515,4.3515,4.3515,4.3515,4.3515,4.3515,4.3515,4.3515,4.3515,4.3515,4.3515,4.3515,4.3515,4.3515,4.3515,4.3515,4.3515,4.3515,4.3515,4.3515,4.3515,4.3515,4.3515,4.3515,4.3515,4.3515,4.3515,4.3515,4.3515,4.3515,4.3515,4.3515,4.3515,4.3515,4.3515,4.3515,4.3515,4.3515,4.3515,4.3515,4.3515,4.3515,4.3515,4.3515,4.3515,4.3515,4.3515,4.3515,4.3515,4.4121,4.4617,4.4691,4.5351,4.6104,4.6892,4.6947,4.7296,4.8122,4.8159,4.8214,4.8306,4.8306,4.8306,4.8306,4.8306,4.8306,4.8306,4.823,4.8172,4.8055,4.6914,4.7004,2.485,2.3814,2.3079,2.2611,2.2161,2.1886,2.2226,2.2051,2.1757,2.1575,0.0,0.0,0.0,0.0,0.0,0.0,2.2418,0.0,0.0,0.0,2.5805,0.0,0.0,0.0,3.0613,3.2889,3.4596,3.5293,3.7015,3.834,3.9166,4.0286,4.1332,4.2268,4.2635,4.302,4.3515,4.3515,4.3515,4.3515,4.3515,4.3515,4.3515,4.3515,4.3515,4.3515,4.3515,4.3515,4.3515,4.3515,4.3515,4.3515,4.3515,4.3515,4.3515,4.3515,4.3515,4.3515,4.3515,4.3515,4.3515,4.3515,4.3515,4.3515,4.3515,4.3515,4.3515,4.3515,4.3515,4.3515,4.3515,4.3515,4.3515,4.3515,4.3515,4.3515,4.3515,4.3515,4.3515,4.3515,4.3515,4.3662,4.4121,4.3809,4.3515,4.3515,4.3901,4.4195,4.4195,4.4911,4.559,4.603,4.6379,4.6911,4.7718,4.7791,4.7938,4.8288,4.8306,4.8306,4.8306,4.8306,4.8306,4.8306,4.8306,4.8306,4.8306,4.8306,4.8306,4.8287,4.7738,4.7797,2.666,2.5631,2.4942,2.3914,2.3226,2.273,2.251,2.229,2.1877,2.1025,2.1161,0.0,0.0,0.0,0.0,0.0,0.0,2.1555,0.0,2.2382,0.0,0.0,0.0,0.0,0.0,3.1458,3.2852,3.3733,0.0,3.7052,3.8303,3.9129,4.0304,4.1919,4.2194,4.269,4.3496,4.3515,4.3515,4.3515,4.3515,4.3515,4.3515,4.3515,4.3515,4.3515,4.3515,4.3515,4.3515,4.3515,4.3515,4.3515,4.3515,4.3515,4.3515,4.3515,4.3515,4.3515,4.3515,4.3515,4.3515,4.3515,4.3515,4.3515,4.3515,4.3515,4.3515,4.3515,4.3515,4.3515,4.3515,4.3515,4.3515,4.3515,4.3515,4.3515,4.3515,4.3515,4.357,4.3791,4.3828,4.4085,4.4892,4.436,4.3901,4.4121,4.4654,4.5039,4.5039,4.5736,4.6452,4.7039,4.7296,4.7663,4.8251,4.8306,4.8306,4.8306,4.8306,4.8306,4.8306,4.8306,4.8306,4.8306,4.8306,4.8306,4.8306,4.8306,4.8306,4.8306,4.8306,4.8306,2.8172,2.7706,2.7302,2.5723,2.5301,2.5081,2.43,2.3529,2.2731,2.1923,2.1106,2.0529,0.0,0.0,0.0,0.0,0.0,0.0,0.0,0.0,0.0,0.0,0.0,0.0,0.0,0.0,0.0,0.0,3.3862,0.0,3.7419,3.8303,3.9478,4.1077,4.1901,4.269,4.3496,4.3515,4.3515,4.3515,4.3515,4.3515,4.3515,4.3515,4.3515,4.3515,4.3515,4.3515,4.3515,4.3515,4.3515,4.3515,4.3515,4.3515,4.3515,4.3515,4.3515,4.3515,4.3515,4.3515,4.3515,4.3515,4.3515,4.3515,4.3515,4.3515,4.3515,4.3515,4.3515,4.3515,4.3515,4.3515,4.3515,4.3515,4.3515,4.3515,4.3515,4.3515,4.3718,4.4525,4.4672,4.4929,4.5718,4.5186,4.4929,4.57,4.5847,4.5865,4.5865,4.6544,4.7076,4.7094,4.7791,4.8269,4.8306,4.8306,4.8306,4.8306,4.8306,4.8306,4.8306,4.8306,4.8306,4.8306,4.8306,4.8306,4.8306,4.8306,4.8306,4.8306,4.8306,4.8306,0.0,2.9787,2.8998,2.7394,2.699,2.6641,2.5301,2.4787,2.4208,2.2868,2.2364,2.1997,0.0,0.0,0.0,0.0,0.0,0.0,0.0,0.0,0.0,0.0,0.0,0.0,0.0,0.0,0.0,0.0,0.0,0.0,0.0,3.7474,3.8634,4.0267,4.1093,4.1901,4.269,4.3222,4.3515,4.3515,4.3515,4.3515,4.3515,4.3515,4.3515,4.3515,4.3515,4.3515,4.3515,4.3515,4.3515,4.3515,4.3515,4.3515,4.3515,4.3515,4.3515,4.3515,4.3515,4.3515,4.3515,4.3515,4.3515,4.3515,4.3515,4.3515,4.3515,4.3515,4.3515,4.3515,4.3515,4.3515,4.3515,4.3515,4.3515,4.3662,4.4176,4.4287,4.4525,4.5351,4.5498,4.5755,4.6544,4.647,4.6195,4.5938,4.6361,4.6691,4.6691,4.7407,4.7902,4.7902,4.8141,4.8306,4.8306,4.8306,4.8306,4.8306,4.8306,4.8306,4.8306,4.8306,4.8306,4.8306,4.8306,4.8306,4.8306,4.8306,4.8306,4.8306,4.8306,4.8306,3.3054,3.2082,0.0,2.9487,2.887,2.8227,2.6623,2.6256,2.5797,2.419,2.3639,0.0,0.0,0.0,0.0,0.0,0.0,0.0,0.0,1.9748,0.0,0.0,0.0,0.0,0.0,0.0,0.0,0.0,0.0,0.0,0.0,0.0,3.7823,3.9423,4.0526,4.148,4.2286,4.3094,4.3515,4.3515,4.3515,4.3515,4.3515,4.3515,4.3515,4.3515,4.3515,4.3515,4.3515,4.3515,4.3515,4.3515,4.3515,4.3515,4.3515,4.3515,4.3515,4.3515,4.3515,4.3515,4.3515,4.3515,4.3515,4.3515,4.3515,4.3515,4.3515,4.3515,4.3515,4.3515,4.3515,4.3699,4.392,4.392,4.414,4.4488,4.5021,4.5131,4.5369,4.6177,4.6342,4.6581,4.7388,4.7516,4.7351,4.6838,4.7205,4.7516,4.7516,4.7994,4.8306,4.8306,4.8306,4.8306,4.8306,4.8306,4.8306,4.8306,4.8306,4.8306,4.8306,4.8306,4.8306,4.8306,4.8306,4.8306,4.8306,4.8306,4.8306,4.8324,4.8618,4.8765]}]]